Time,TemperatureF,DewpointF,PressureIn,WindDirection,WindDirectionDegrees,WindSpeedMPH,WindSpeedGustMPH,Humidity,HourlyPrecipIn,Conditions,Clouds,dailyrainin,SoftwareType,DateUTC
2013-01-30 00:03:00,42.7,35.5,30.18,NW,315,1.3,1.3,75,0.00,-RMK Clear,SKC,0.00,WUHU216WMR200,2013-01-30 08:03:00,
2013-01-30 00:08:00,42.5,35.3,30.18,North,0,0.0,2.2,75,0.00,-RMK Clear,SKC,0.00,WUHU216WMR200,2013-01-30 08:08:00,
2013-01-30 00:13:00,42.3,35.4,30.18,WSW,247,0.0,2.2,76,0.00,-RMK Clear,SKC,0.00,WUHU216WMR200,2013-01-30 08:13:00,
2013-01-30 00:18:00,42.3,35.3,30.21,NNW,337,0.0,0.0,76,0.00,-RMK Clear,SKC,0.00,WUHU216WMR200,2013-01-30 08:18:00,
2013-01-30 00:23:00,42.1,35.1,30.21,West,270,2.0,2.5,76,0.00,-RMK Clear,SKC,0.00,WUHU216WMR200,2013-01-30 08:23:00,
2013-01-30 00:28:00,42.3,35.3,30.21,NE,45,0.0,2.5,76,0.00,-RMK Clear,SKC,0.00,WUHU216WMR200,2013-01-30 08:28:00,
2013-01-30 00:33:00,42.1,35.1,30.21,North,0,0.0,2.0,76,0.00,-RMK Clear,SKC,0.00,WUHU216WMR200,2013-01-30 08:33:00,
2013-01-30 00:38:00,41.9,34.9,30.21,NW,315,0.0,2.7,76,0.00,-RMK Clear,SKC,0.00,WUHU216WMR200,2013-01-30 08:38:00,
2013-01-30 00:43:00,42.1,35.1,30.21,ENE,67,0.0,2.7,76,0.00,-RMK Clear,SKC,0.00,WUHU216WMR200,2013-01-30 08:43:00,
2013-01-30 00:48:00,42.3,35.3,30.21,North,0,1.3,1.6,76,0.00,-RMK Clear,SKC,0.00,WUHU216WMR200,2013-01-30 08:48:00,
2013-01-30 00:53:00,42.3,35.3,30.21,North,0,1.3,1.6,76,0.00,-RMK Clear,SKC,0.00,WUHU216WMR200,2013-01-30 08:53:00,
2013-01-30 00:58:00,42.6,35.9,30.21,NNE,22,0.0,2.0,77,0.00,-RMK Clear,SKC,0.00,WUHU216WMR200,2013-01-30 08:58:00,
2013-01-30 01:03:00,42.8,35.8,30.18,North,0,0.0,2.2,76,0.00,-RMK Clear,SKC,0.00,WUHU216WMR200,2013-01-30 09:03:00,
2013-01-30 01:08:00,43.3,36.0,30.18,ENE,67,0.0,2.2,75,0.00,-RMK Clear,SKC,0.00,WUHU216WMR200,2013-01-30 09:08:00,
2013-01-30 01:13:00,43.2,35.9,30.18,North,0,0.9,2.0,75,0.00,-RMK Clear,SKC,0.00,WUHU216WMR200,2013-01-30 09:13:00,
2013-01-30 01:18:00,43.0,35.7,30.21,East,90,1.3,2.0,75,0.00,-RMK Clear,SKC,0.00,WUHU216WMR200,2013-01-30 09:18:00,
2013-01-30 01:23:00,43.0,35.7,30.21,ESE,112,0.0,2.0,75,0.00,-RMK Clear,SKC,0.00,WUHU216WMR200,2013-01-30 09:23:00,
2013-01-30 01:28:00,43.0,35.7,30.21,East,90,0.0,2.5,75,0.00,-RMK Clear,SKC,0.00,WUHU216WMR200,2013-01-30 09:28:00,
2013-01-30 01:33:00,43.2,35.9,30.21,SE,135,0.9,2.5,75,0.00,-RMK Clear,SKC,0.00,WUHU216WMR200,2013-01-30 09:33:00,
2013-01-30 01:38:00,43.3,36.0,30.21,SE,135,0.0,1.3,75,0.00,-RMK Clear,SKC,0.00,WUHU216WMR200,2013-01-30 09:38:00,
2013-01-30 01:43:00,43.5,36.2,30.21,East,90,0.0,1.3,75,0.00,-RMK Clear,SKC,0.00,WUHU216WMR200,2013-01-30 09:43:00,
2013-01-30 01:48:00,43.5,36.2,30.21,East,90,0.0,1.6,75,0.00,-RMK Clear,SKC,0.00,WUHU216WMR200,2013-01-30 09:48:00,
2013-01-30 01:53:00,43.3,36.0,30.21,SW,225,0.0,1.6,75,0.00,-RMK Clear,SKC,0.00,WUHU216WMR200,2013-01-30 09:53:00,
2013-01-30 01:58:00,43.3,36.0,30.21,NNW,337,0.0,1.3,75,0.00,-RMK Clear,SKC,0.00,WUHU216WMR200,2013-01-30 09:58:00,
2013-01-30 02:03:00,43.2,35.9,30.21,North,0,0.0,1.3,75,0.00,-RMK Clear,SKC,0.00,WUHU216WMR200,2013-01-30 10:03:00,
2013-01-30 02:08:00,43.0,35.7,30.21,East,90,0.0,0.0,75,0.00,-RMK Clear,SKC,0.00,WUHU216WMR200,2013-01-30 10:08:00,
2013-01-30 02:13:00,42.6,35.6,30.21,NE,45,0.0,0.0,76,0.00,-RMK Clear,SKC,0.00,WUHU216WMR200,2013-01-30 10:13:00,
2013-01-30 02:19:00,40.3,34.2,30.24,NNW,337,0.0,0.0,79,0.00,-RMK Clear,SKC,0.00,WUHU216WMR200,2013-01-30 10:19:00,
2013-01-30 02:20:00,40.2,34.1,30.24,North,0,0.0,0.0,79,0.00,-RMK Clear,SKC,0.00,WUHU216WMR200,2013-01-30 10:20:00,
2013-01-30 02:21:00,40.0,34.0,30.24,NE,45,0.0,0.0,79,0.00,-RMK Clear,SKC,0.00,WUHU216WMR200,2013-01-30 10:21:00,
2013-01-30 02:22:00,40.0,34.0,30.24,East,90,0.0,0.0,79,0.00,-RMK Clear,SKC,0.00,WUHU216WMR200,2013-01-30 10:22:00,
2013-01-30 02:23:00,40.0,34.0,30.24,WNW,292,0.0,0.0,79,0.00,-RMK Clear,SKC,0.00,WUHU216WMR200,2013-01-30 10:23:00,
2013-01-30 02:24:00,40.2,34.1,30.24,NE,45,0.0,0.0,79,0.00,-RMK Clear,SKC,0.00,WUHU216WMR200,2013-01-30 10:24:00,
2013-01-30 02:25:00,40.2,34.1,30.24,North,0,2.5,2.5,79,0.00,-RMK Clear,SKC,0.00,WUHU216WMR200,2013-01-30 10:25:00,
2013-01-30 02:26:00,40.3,34.2,30.24,NE,45,0.0,2.5,79,0.00,-RMK Clear,SKC,0.00,WUHU216WMR200,2013-01-30 10:26:00,
2013-01-30 02:27:00,40.5,34.4,30.24,East,90,0.9,2.5,79,0.00,-RMK Clear,SKC,0.00,WUHU216WMR200,2013-01-30 10:27:00,
2013-01-30 02:28:00,40.7,34.3,30.24,East,90,0.0,2.5,78,0.00,-RMK Clear,SKC,0.00,WUHU216WMR200,2013-01-30 10:28:00,
2013-01-30 02:29:00,40.9,34.5,30.24,South,180,1.3,2.5,78,0.00,-RMK Clear,SKC,0.00,WUHU216WMR200,2013-01-30 10:29:00,
2013-01-30 02:30:00,40.9,34.5,30.24,East,90,0.0,2.5,78,0.00,-RMK Clear,SKC,0.00,WUHU216WMR200,2013-01-30 10:30:00,
2013-01-30 02:31:00,41.2,34.8,30.24,East,90,0.0,2.5,78,0.00,-RMK Clear,SKC,0.00,WUHU216WMR200,2013-01-30 10:31:00,
2013-01-30 02:32:00,41.1,34.7,30.24,NW,315,0.0,2.5,78,0.00,-RMK Clear,SKC,0.00,WUHU216WMR200,2013-01-30 10:32:00,
2013-01-30 02:33:00,41.1,34.7,30.21,SE,135,0.0,2.5,78,0.00,-RMK Clear,SKC,0.00,WUHU216WMR200,2013-01-30 10:33:00,
2013-01-30 02:34:00,41.1,34.7,30.21,NNW,337,0.0,2.5,78,0.00,-RMK Clear,SKC,0.00,WUHU216WMR200,2013-01-30 10:34:00,
2013-01-30 02:35:00,40.9,34.5,30.21,East,90,0.0,2.5,78,0.00,-RMK Clear,SKC,0.00,WUHU216WMR200,2013-01-30 10:35:00,
2013-01-30 02:36:00,40.9,34.5,30.21,North,0,0.0,1.3,78,0.00,-RMK Clear,SKC,0.00,WUHU216WMR200,2013-01-30 10:36:00,
2013-01-30 02:37:00,40.9,34.8,30.21,NNW,337,0.0,1.3,79,0.00,-RMK Clear,SKC,0.00,WUHU216WMR200,2013-01-30 10:37:00,
2013-01-30 02:38:00,40.7,34.3,30.21,ESE,112,1.1,1.3,78,0.00,-RMK Clear,SKC,0.00,WUHU216WMR200,2013-01-30 10:38:00,
2013-01-30 02:39:00,40.7,34.3,30.21,NW,315,2.5,2.5,78,0.00,-RMK Clear,SKC,0.00,WUHU216WMR200,2013-01-30 10:39:00,
2013-01-30 02:40:00,40.7,34.3,30.21,NE,45,1.3,2.5,78,0.00,-RMK Clear,SKC,0.00,WUHU216WMR200,2013-01-30 10:40:00,
2013-01-30 02:41:00,40.7,34.3,30.21,NNW,337,0.0,2.5,78,0.00,-RMK Clear,SKC,0.00,WUHU216WMR200,2013-01-30 10:41:00,
2013-01-30 02:42:00,40.7,34.3,30.21,West,270,0.0,2.5,78,0.00,-RMK Clear,SKC,0.00,WUHU216WMR200,2013-01-30 10:42:00,
2013-01-30 02:43:00,40.7,34.6,30.21,West,270,0.0,2.5,79,0.00,-RMK Clear,SKC,0.00,WUHU216WMR200,2013-01-30 10:43:00,
2013-01-30 02:44:00,40.7,34.6,30.21,WSW,247,0.0,2.5,79,0.00,-RMK Clear,SKC,0.00,WUHU216WMR200,2013-01-30 10:44:00,
2013-01-30 02:45:00,39.7,33.6,30.21,SW,225,0.0,2.5,79,0.00,-RMK Clear,SKC,0.00,WUHU216WMR200,2013-01-30 10:45:00,
2013-01-30 02:46:00,39.5,33.8,30.21,SW,225,0.0,2.5,80,0.00,-RMK Clear,SKC,0.00,WUHU216WMR200,2013-01-30 10:46:00,
2013-01-30 02:47:00,39.5,33.8,30.21,WSW,247,1.6,2.5,80,0.00,-RMK Clear,SKC,0.00,WUHU216WMR200,2013-01-30 10:47:00,
2013-01-30 02:48:00,39.5,33.8,30.24,West,270,2.9,2.9,80,0.00,-RMK Clear,SKC,0.00,WUHU216WMR200,2013-01-30 10:48:00,
2013-01-30 02:49:00,39.5,33.8,30.24,NW,315,2.2,2.9,80,0.00,-RMK Clear,SKC,0.00,WUHU216WMR200,2013-01-30 10:49:00,
2013-01-30 02:50:00,39.5,33.8,30.24,North,0,0.0,2.9,80,0.00,-RMK Clear,SKC,0.00,WUHU216WMR200,2013-01-30 10:50:00,
2013-01-30 02:51:00,39.3,33.6,30.24,NE,45,0.0,2.9,80,0.00,-RMK Clear,SKC,0.00,WUHU216WMR200,2013-01-30 10:51:00,
2013-01-30 02:52:00,39.3,33.6,30.24,North,0,0.0,2.9,80,0.00,-RMK Clear,SKC,0.00,WUHU216WMR200,2013-01-30 10:52:00,
2013-01-30 02:53:00,39.3,33.6,30.24,NNE,22,0.9,2.9,80,0.00,-RMK Clear,SKC,0.00,WUHU216WMR200,2013-01-30 10:53:00,
2013-01-30 02:54:00,39.3,33.6,30.24,North,0,0.0,2.9,80,0.00,-RMK Clear,SKC,0.00,WUHU216WMR200,2013-01-30 10:54:00,
2013-01-30 02:55:00,39.2,33.5,30.24,North,0,0.0,2.9,80,0.00,-RMK Clear,SKC,0.00,WUHU216WMR200,2013-01-30 10:55:00,
2013-01-30 02:56:00,39.2,33.5,30.24,North,0,0.0,2.9,80,0.00,-RMK Clear,SKC,0.00,WUHU216WMR200,2013-01-30 10:56:00,
2013-01-30 02:57:00,39.2,33.5,30.24,WNW,292,0.0,2.9,80,0.00,-RMK Clear,SKC,0.00,WUHU216WMR200,2013-01-30 10:57:00,
2013-01-30 02:58:00,39.2,33.5,30.24,WNW,292,2.5,2.9,80,0.00,-RMK Clear,SKC,0.00,WUHU216WMR200,2013-01-30 10:58:00,
2013-01-30 02:59:00,39.0,33.3,30.24,WNW,292,3.4,3.4,80,0.00,-RMK Clear,SKC,0.00,WUHU216WMR200,2013-01-30 10:59:00,
2013-01-30 03:00:00,39.0,33.3,30.24,WNW,292,2.7,3.4,80,0.00,-RMK Clear,SKC,0.00,WUHU216WMR200,2013-01-30 11:00:00,
2013-01-30 03:01:00,38.8,33.1,30.24,NNW,337,2.5,3.4,80,0.00,-RMK Clear,SKC,0.00,WUHU216WMR200,2013-01-30 11:01:00,
2013-01-30 03:02:00,38.8,32.8,30.24,WNW,292,2.5,3.4,79,0.00,-RMK Clear,SKC,0.00,WUHU216WMR200,2013-01-30 11:02:00,
2013-01-30 03:03:00,39.0,33.3,30.24,West,270,6.3,6.3,80,0.00,-RMK Clear,SKC,0.00,WUHU216WMR200,2013-01-30 11:03:00,
2013-01-30 03:04:00,39.2,33.8,30.24,NW,315,2.7,6.3,81,0.00,-RMK Clear,SKC,0.00,WUHU216WMR200,2013-01-30 11:04:00,
2013-01-30 03:05:00,39.2,33.8,30.24,NW,315,1.1,6.3,81,0.00,-RMK Clear,SKC,0.00,WUHU216WMR200,2013-01-30 11:05:00,
2013-01-30 03:06:00,39.2,33.5,30.24,NE,45,1.6,6.3,80,0.00,-RMK Clear,SKC,0.00,WUHU216WMR200,2013-01-30 11:06:00,
2013-01-30 03:07:00,39.3,33.9,30.24,North,0,0.0,6.3,81,0.00,-RMK Clear,SKC,0.00,WUHU216WMR200,2013-01-30 11:07:00,
2013-01-30 03:08:00,39.3,33.9,30.24,ENE,67,0.0,6.3,81,0.00,-RMK Clear,SKC,0.00,WUHU216WMR200,2013-01-30 11:08:00,
2013-01-30 03:09:00,39.3,33.9,30.24,East,90,0.0,6.3,81,0.00,-RMK Clear,SKC,0.00,WUHU216WMR200,2013-01-30 11:09:00,
2013-01-30 03:10:00,39.3,33.9,30.24,East,90,0.0,6.3,81,0.00,-RMK Clear,SKC,0.00,WUHU216WMR200,2013-01-30 11:10:00,
2013-01-30 03:11:00,39.3,33.6,30.24,WNW,292,0.0,6.3,80,0.00,-RMK Clear,SKC,0.00,WUHU216WMR200,2013-01-30 11:11:00,
2013-01-30 03:12:00,39.3,33.6,30.24,WNW,292,1.6,6.3,80,0.00,-RMK Clear,SKC,0.00,WUHU216WMR200,2013-01-30 11:12:00,
2013-01-30 03:13:00,39.2,33.8,30.24,SW,225,1.1,6.3,81,0.00,-RMK Clear,SKC,0.00,WUHU216WMR200,2013-01-30 11:13:00,
2013-01-30 03:14:00,39.2,33.8,30.24,SW,225,0.0,2.7,81,0.00,-RMK Clear,SKC,0.00,WUHU216WMR200,2013-01-30 11:14:00,
2013-01-30 03:15:00,39.2,33.5,30.24,North,0,0.9,1.6,80,0.00,-RMK Clear,SKC,0.00,WUHU216WMR200,2013-01-30 11:15:00,
2013-01-30 03:16:00,39.0,33.3,30.24,North,0,0.0,1.6,80,0.00,-RMK Clear,SKC,0.00,WUHU216WMR200,2013-01-30 11:16:00,
2013-01-30 03:17:00,39.0,33.3,30.24,NE,45,0.0,1.6,80,0.00,-RMK Clear,SKC,0.00,WUHU216WMR200,2013-01-30 11:17:00,
2013-01-30 03:18:00,39.0,33.3,30.24,NE,45,0.0,1.6,80,0.00,-RMK Clear,SKC,0.00,WUHU216WMR200,2013-01-30 11:18:00,
2013-01-30 03:19:00,39.0,33.6,30.24,NE,45,0.0,1.6,81,0.00,-RMK Clear,SKC,0.00,WUHU216WMR200,2013-01-30 11:19:00,
2013-01-30 03:20:00,38.8,33.1,30.24,NE,45,0.0,1.6,80,0.00,-RMK Clear,SKC,0.00,WUHU216WMR200,2013-01-30 11:20:00,
2013-01-30 03:21:00,38.8,33.1,30.24,North,0,0.0,1.6,80,0.00,-RMK Clear,SKC,0.00,WUHU216WMR200,2013-01-30 11:21:00,
2013-01-30 03:22:00,38.8,33.1,30.24,North,0,0.0,1.6,80,0.00,-RMK Clear,SKC,0.00,WUHU216WMR200,2013-01-30 11:22:00,
2013-01-30 03:23:00,38.6,32.9,30.24,North,0,0.0,1.1,80,0.00,-RMK Clear,SKC,0.00,WUHU216WMR200,2013-01-30 11:23:00,
2013-01-30 03:24:00,38.6,32.9,30.24,NNE,22,0.0,0.9,80,0.00,-RMK Clear,SKC,0.00,WUHU216WMR200,2013-01-30 11:24:00,
2013-01-30 03:25:00,38.6,32.9,30.24,NW,315,2.5,2.5,80,0.00,-RMK Clear,SKC,0.00,WUHU216WMR200,2013-01-30 11:25:00,
2013-01-30 03:26:00,38.8,33.1,30.24,NNE,22,0.0,2.5,80,0.00,-RMK Clear,SKC,0.00,WUHU216WMR200,2013-01-30 11:26:00,
2013-01-30 03:27:00,38.8,33.1,30.24,NNE,22,0.0,2.5,80,0.00,-RMK Clear,SKC,0.00,WUHU216WMR200,2013-01-30 11:27:00,
2013-01-30 03:28:00,39.0,33.3,30.24,NE,45,0.0,2.5,80,0.00,-RMK Clear,SKC,0.00,WUHU216WMR200,2013-01-30 11:28:00,
2013-01-30 03:29:00,38.8,33.1,30.24,East,90,0.0,2.5,80,0.00,-RMK Clear,SKC,0.00,WUHU216WMR200,2013-01-30 11:29:00,
2013-01-30 03:30:00,39.0,33.3,30.24,East,90,0.0,2.5,80,0.00,-RMK Clear,SKC,0.00,WUHU216WMR200,2013-01-30 11:30:00,
2013-01-30 03:31:00,39.0,33.6,30.24,East,90,0.0,2.5,81,0.00,-RMK Clear,SKC,0.00,WUHU216WMR200,2013-01-30 11:31:00,
2013-01-30 03:32:00,38.8,33.4,30.24,NNE,22,0.0,2.5,81,0.00,-RMK Clear,SKC,0.00,WUHU216WMR200,2013-01-30 11:32:00,
2013-01-30 03:33:00,38.6,33.2,30.24,North,0,0.0,2.5,81,0.00,-RMK Clear,SKC,0.00,WUHU216WMR200,2013-01-30 11:33:00,
2013-01-30 03:34:00,38.6,32.9,30.24,North,0,0.0,2.5,80,0.00,-RMK Clear,SKC,0.00,WUHU216WMR200,2013-01-30 11:34:00,
2013-01-30 03:35:00,38.4,32.7,30.24,North,0,0.0,2.5,80,0.00,-RMK Clear,SKC,0.00,WUHU216WMR200,2013-01-30 11:35:00,
2013-01-30 03:36:00,38.4,32.7,30.24,NNW,337,0.0,0.0,80,0.00,-RMK Clear,SKC,0.00,WUHU216WMR200,2013-01-30 11:36:00,
2013-01-30 03:37:00,38.4,32.7,30.24,NNW,337,0.0,0.0,80,0.00,-RMK Clear,SKC,0.00,WUHU216WMR200,2013-01-30 11:37:00,
2013-01-30 03:38:00,38.3,32.9,30.24,East,90,0.0,0.0,81,0.00,-RMK Clear,SKC,0.00,WUHU216WMR200,2013-01-30 11:38:00,
2013-01-30 03:39:00,38.3,32.9,30.24,East,90,0.0,0.0,81,0.00,-RMK Clear,SKC,0.00,WUHU216WMR200,2013-01-30 11:39:00,
2013-01-30 03:40:00,38.3,32.9,30.24,East,90,0.0,0.0,81,0.00,-RMK Clear,SKC,0.00,WUHU216WMR200,2013-01-30 11:40:00,
2013-01-30 03:41:00,38.1,32.7,30.24,East,90,0.0,0.0,81,0.00,-RMK Clear,SKC,0.00,WUHU216WMR200,2013-01-30 11:41:00,
2013-01-30 03:42:00,38.1,32.7,30.24,ENE,67,0.0,0.0,81,0.00,-RMK Clear,SKC,0.00,WUHU216WMR200,2013-01-30 11:42:00,
2013-01-30 03:43:00,38.1,32.7,30.24,North,0,0.0,0.0,81,0.00,-RMK Clear,SKC,0.00,WUHU216WMR200,2013-01-30 11:43:00,
2013-01-30 03:44:00,38.1,32.7,30.24,North,0,0.0,0.0,81,0.00,-RMK Clear,SKC,0.00,WUHU216WMR200,2013-01-30 11:44:00,
2013-01-30 03:45:00,37.9,32.5,30.24,North,0,0.0,0.0,81,0.00,-RMK Clear,SKC,0.00,WUHU216WMR200,2013-01-30 11:45:00,
2013-01-30 03:46:00,37.9,32.5,30.24,North,0,0.0,0.0,81,0.00,-RMK Clear,SKC,0.00,WUHU216WMR200,2013-01-30 11:46:00,
2013-01-30 03:47:00,37.9,32.5,30.24,North,0,0.0,0.0,81,0.00,-RMK Clear,SKC,0.00,WUHU216WMR200,2013-01-30 11:47:00,
2013-01-30 03:48:00,37.9,32.5,30.24,North,0,0.0,0.0,81,0.00,-RMK Clear,SKC,0.00,WUHU216WMR200,2013-01-30 11:48:00,
2013-01-30 03:49:00,37.7,32.6,30.24,North,0,0.0,0.0,82,0.00,-RMK Clear,SKC,0.00,WUHU216WMR200,2013-01-30 11:49:00,
2013-01-30 03:50:00,37.7,32.6,30.24,North,0,0.0,0.0,82,0.00,-RMK Clear,SKC,0.00,WUHU216WMR200,2013-01-30 11:50:00,
2013-01-30 03:51:00,37.5,32.4,30.24,North,0,0.0,0.0,82,0.00,-RMK Clear,SKC,0.00,WUHU216WMR200,2013-01-30 11:51:00,
2013-01-30 03:52:00,37.5,32.4,30.24,NNE,22,0.0,0.0,82,0.00,-RMK Clear,SKC,0.00,WUHU216WMR200,2013-01-30 11:52:00,
2013-01-30 03:53:00,37.5,32.4,30.24,North,0,0.0,0.0,82,0.00,-RMK Clear,SKC,0.00,WUHU216WMR200,2013-01-30 11:53:00,
2013-01-30 03:54:00,37.5,32.4,30.24,North,0,0.0,0.0,82,0.00,-RMK Clear,SKC,0.00,WUHU216WMR200,2013-01-30 11:54:00,
2013-01-30 03:55:00,37.5,32.4,30.24,NNW,337,0.0,0.0,82,0.00,-RMK Clear,SKC,0.00,WUHU216WMR200,2013-01-30 11:55:00,
2013-01-30 03:56:00,37.4,32.3,30.24,NW,315,1.6,1.6,82,0.00,-RMK Clear,SKC,0.00,WUHU216WMR200,2013-01-30 11:56:00,
2013-01-30 03:57:00,37.4,32.3,30.24,NW,315,0.0,1.6,82,0.00,-RMK Clear,SKC,0.00,WUHU216WMR200,2013-01-30 11:57:00,
2013-01-30 03:58:00,37.4,32.3,30.24,ENE,67,0.0,1.6,82,0.00,-RMK Clear,SKC,0.00,WUHU216WMR200,2013-01-30 11:58:00,
2013-01-30 03:59:00,37.4,32.3,30.24,ENE,67,0.0,1.6,82,0.00,-RMK Clear,SKC,0.00,WUHU216WMR200,2013-01-30 11:59:00,
2013-01-30 04:00:00,37.4,32.3,30.24,ENE,67,0.0,1.6,82,0.00,-RMK Clear,SKC,0.00,WUHU216WMR200,2013-01-30 12:00:00,
2013-01-30 04:01:00,37.4,32.6,30.24,NNW,337,0.0,1.6,83,0.00,-RMK Clear,SKC,0.00,WUHU216WMR200,2013-01-30 12:01:00,
2013-01-30 04:02:00,37.4,32.3,30.24,NNW,337,0.0,1.6,82,0.00,-RMK Clear,SKC,0.00,WUHU216WMR200,2013-01-30 12:02:00,
2013-01-30 04:03:00,37.4,32.3,30.24,North,0,0.0,1.6,82,0.00,-RMK Clear,SKC,0.00,WUHU216WMR200,2013-01-30 12:03:00,
2013-01-30 04:04:00,37.4,32.3,30.24,NNE,22,0.0,1.6,82,0.00,-RMK Clear,SKC,0.00,WUHU216WMR200,2013-01-30 12:04:00,
2013-01-30 04:05:00,37.4,32.3,30.24,NNE,22,0.0,1.6,82,0.00,-RMK Clear,SKC,0.00,WUHU216WMR200,2013-01-30 12:05:00,
2013-01-30 04:06:00,37.4,32.6,30.24,NE,45,0.0,1.6,83,0.00,-RMK Clear,SKC,0.00,WUHU216WMR200,2013-01-30 12:06:00,
2013-01-30 04:07:00,37.2,32.4,30.24,NNW,337,0.0,0.0,83,0.00,-RMK Clear,SKC,0.00,WUHU216WMR200,2013-01-30 12:07:00,
2013-01-30 04:08:00,37.2,32.1,30.24,North,0,0.0,0.0,82,0.00,-RMK Clear,SKC,0.00,WUHU216WMR200,2013-01-30 12:08:00,
2013-01-30 04:09:00,37.2,32.4,30.24,North,0,0.0,0.0,83,0.00,-RMK Clear,SKC,0.00,WUHU216WMR200,2013-01-30 12:09:00,
2013-01-30 04:10:00,37.2,32.4,30.24,ENE,67,0.0,0.0,83,0.00,-RMK Clear,SKC,0.00,WUHU216WMR200,2013-01-30 12:10:00,
2013-01-30 04:11:00,37.2,32.4,30.24,ESE,112,0.0,0.0,83,0.00,-RMK Clear,SKC,0.00,WUHU216WMR200,2013-01-30 12:11:00,
2013-01-30 04:12:00,37.2,32.4,30.24,ESE,112,0.0,0.0,83,0.00,-RMK Clear,SKC,0.00,WUHU216WMR200,2013-01-30 12:12:00,
2013-01-30 04:13:00,37.2,32.4,30.24,East,90,0.0,0.0,83,0.00,-RMK Clear,SKC,0.00,WUHU216WMR200,2013-01-30 12:13:00,
2013-01-30 04:14:00,37.2,32.4,30.24,NE,45,0.0,0.0,83,0.00,-RMK Clear,SKC,0.00,WUHU216WMR200,2013-01-30 12:14:00,
2013-01-30 04:15:00,37.2,32.4,30.24,East,90,0.0,0.0,83,0.00,-RMK Clear,SKC,0.00,WUHU216WMR200,2013-01-30 12:15:00,
2013-01-30 04:16:00,37.2,32.4,30.24,ESE,112,0.0,0.0,83,0.00,-RMK Clear,SKC,0.00,WUHU216WMR200,2013-01-30 12:16:00,
2013-01-30 04:17:00,37.2,32.4,30.24,ESE,112,0.0,0.0,83,0.00,-RMK Clear,SKC,0.00,WUHU216WMR200,2013-01-30 12:17:00,
2013-01-30 04:18:00,37.2,32.7,30.24,East,90,0.0,0.0,84,0.00,-RMK Clear,SKC,0.00,WUHU216WMR200,2013-01-30 12:18:00,
2013-01-30 04:19:00,37.0,32.5,30.24,East,90,0.0,0.0,84,0.00,-RMK Clear,SKC,0.00,WUHU216WMR200,2013-01-30 12:19:00,
2013-01-30 04:20:00,37.0,32.5,30.24,East,90,0.0,0.0,84,0.00,-RMK Clear,SKC,0.00,WUHU216WMR200,2013-01-30 12:20:00,
2013-01-30 04:21:00,37.0,32.5,30.24,NW,315,0.0,0.0,84,0.00,-RMK Clear,SKC,0.00,WUHU216WMR200,2013-01-30 12:21:00,
2013-01-30 04:22:00,37.0,32.5,30.24,West,270,1.6,1.6,84,0.00,-RMK Clear,SKC,0.00,WUHU216WMR200,2013-01-30 12:22:00,
2013-01-30 04:23:00,36.8,32.3,30.24,WNW,292,0.0,1.6,84,0.00,-RMK Clear,SKC,0.00,WUHU216WMR200,2013-01-30 12:23:00,
2013-01-30 04:24:00,36.8,32.0,30.24,SW,225,1.3,1.6,83,0.00,-RMK Clear,SKC,0.00,WUHU216WMR200,2013-01-30 12:24:00,
2013-01-30 04:25:00,36.6,31.8,30.24,WNW,292,1.1,1.6,83,0.00,-RMK Clear,SKC,0.00,WUHU216WMR200,2013-01-30 12:25:00,
2013-01-30 04:26:00,36.6,31.8,30.24,WNW,292,0.0,1.6,83,0.00,-RMK Clear,SKC,0.00,WUHU216WMR200,2013-01-30 12:26:00,
2013-01-30 04:27:00,36.5,31.7,30.24,NNW,337,0.0,1.6,83,0.00,-RMK Clear,SKC,0.00,WUHU216WMR200,2013-01-30 12:27:00,
2013-01-30 04:28:00,36.5,31.7,30.24,North,0,0.0,1.6,83,0.00,-RMK Clear,SKC,0.00,WUHU216WMR200,2013-01-30 12:28:00,
2013-01-30 04:29:00,36.5,31.7,30.24,East,90,0.0,1.6,83,0.00,-RMK Clear,SKC,0.00,WUHU216WMR200,2013-01-30 12:29:00,
2013-01-30 04:30:00,36.5,31.7,30.24,East,90,0.0,1.6,83,0.00,-RMK Clear,SKC,0.00,WUHU216WMR200,2013-01-30 12:30:00,
2013-01-30 04:31:00,36.5,31.7,30.24,WNW,292,0.0,1.6,83,0.00,-RMK Clear,SKC,0.00,WUHU216WMR200,2013-01-30 12:31:00,
2013-01-30 04:32:00,36.3,31.5,30.24,North,0,0.0,1.6,83,0.00,-RMK Clear,SKC,0.00,WUHU216WMR200,2013-01-30 12:32:00,
2013-01-30 04:33:00,36.3,31.5,30.27,North,0,0.0,1.3,83,0.00,-RMK Clear,SKC,0.00,WUHU216WMR200,2013-01-30 12:33:00,
2013-01-30 04:34:00,36.3,31.5,30.27,North,0,0.0,1.3,83,0.00,-RMK Clear,SKC,0.00,WUHU216WMR200,2013-01-30 12:34:00,
2013-01-30 04:35:00,36.3,31.5,30.27,North,0,0.0,1.1,83,0.00,-RMK Clear,SKC,0.00,WUHU216WMR200,2013-01-30 12:35:00,
2013-01-30 04:36:00,36.1,31.3,30.27,North,0,0.0,0.0,83,0.00,-RMK Clear,SKC,0.00,WUHU216WMR200,2013-01-30 12:36:00,
2013-01-30 04:37:00,36.1,31.3,30.27,East,90,0.0,0.0,83,0.00,-RMK Clear,SKC,0.00,WUHU216WMR200,2013-01-30 12:37:00,
2013-01-30 04:38:00,36.1,31.6,30.27,WNW,292,0.0,0.0,84,0.00,-RMK Clear,SKC,0.00,WUHU216WMR200,2013-01-30 12:38:00,
2013-01-30 04:39:00,36.1,31.6,30.27,WNW,292,2.7,2.7,84,0.00,-RMK Clear,SKC,0.00,WUHU216WMR200,2013-01-30 12:39:00,
2013-01-30 04:40:00,36.1,31.6,30.27,West,270,1.3,2.7,84,0.00,-RMK Clear,SKC,0.00,WUHU216WMR200,2013-01-30 12:40:00,
2013-01-30 04:41:00,36.1,31.6,30.27,North,0,2.0,2.7,84,0.00,-RMK Clear,SKC,0.00,WUHU216WMR200,2013-01-30 12:41:00,
2013-01-30 04:42:00,36.1,31.6,30.27,WNW,292,3.4,3.4,84,0.00,-RMK Clear,SKC,0.00,WUHU216WMR200,2013-01-30 12:42:00,
2013-01-30 04:43:00,35.9,31.4,30.27,NW,315,1.3,3.4,84,0.00,-RMK Clear,SKC,0.00,WUHU216WMR200,2013-01-30 12:43:00,
2013-01-30 04:44:00,35.9,31.4,30.27,NNE,22,0.0,3.4,84,0.00,-RMK Clear,SKC,0.00,WUHU216WMR200,2013-01-30 12:44:00,
2013-01-30 04:45:00,35.9,31.4,30.27,NNE,22,1.1,3.4,84,0.00,-RMK Clear,SKC,0.00,WUHU216WMR200,2013-01-30 12:45:00,
2013-01-30 04:46:00,35.9,31.4,30.27,NNE,22,0.0,3.4,84,0.00,-RMK Clear,SKC,0.00,WUHU216WMR200,2013-01-30 12:46:00,
2013-01-30 04:47:00,35.9,31.4,30.27,NW,315,0.0,3.4,84,0.00,-RMK Clear,SKC,0.00,WUHU216WMR200,2013-01-30 12:47:00,
2013-01-30 04:48:00,35.9,31.4,30.27,NW,315,0.0,3.4,84,0.00,-RMK Clear,SKC,0.00,WUHU216WMR200,2013-01-30 12:48:00,
2013-01-30 04:49:00,35.9,31.4,30.27,NW,315,0.0,3.4,84,0.00,-RMK Clear,SKC,0.00,WUHU216WMR200,2013-01-30 12:49:00,
2013-01-30 04:50:00,35.9,31.4,30.27,North,0,0.0,3.4,84,0.00,-RMK Clear,SKC,0.00,WUHU216WMR200,2013-01-30 12:50:00,
2013-01-30 04:51:00,35.9,31.7,30.27,North,0,0.0,3.4,85,0.00,-RMK Clear,SKC,0.00,WUHU216WMR200,2013-01-30 12:51:00,
2013-01-30 04:52:00,36.1,31.6,30.27,North,0,0.0,3.4,84,0.00,-RMK Clear,SKC,0.00,WUHU216WMR200,2013-01-30 12:52:00,
2013-01-30 04:53:00,36.1,31.9,30.27,North,0,0.0,1.3,85,0.00,-RMK Clear,SKC,0.00,WUHU216WMR200,2013-01-30 12:53:00,
2013-01-30 04:54:00,36.1,31.9,30.27,North,0,0.0,1.1,85,0.00,-RMK Clear,SKC,0.00,WUHU216WMR200,2013-01-30 12:54:00,
2013-01-30 04:55:00,36.1,31.9,30.27,North,0,0.0,1.1,85,0.00,-RMK Clear,SKC,0.00,WUHU216WMR200,2013-01-30 12:55:00,
2013-01-30 04:56:00,36.1,31.9,30.27,NNW,337,0.0,0.0,85,0.00,-RMK Clear,SKC,0.00,WUHU216WMR200,2013-01-30 12:56:00,
2013-01-30 04:57:00,36.1,31.9,30.27,NNE,22,0.0,0.0,85,0.00,-RMK Clear,SKC,0.00,WUHU216WMR200,2013-01-30 12:57:00,
2013-01-30 04:58:00,36.1,31.9,30.27,NNE,22,0.0,0.0,85,0.00,-RMK Clear,SKC,0.00,WUHU216WMR200,2013-01-30 12:58:00,
2013-01-30 04:59:00,36.1,31.9,30.27,East,90,0.0,0.0,85,0.00,-RMK Clear,SKC,0.00,WUHU216WMR200,2013-01-30 12:59:00,
2013-01-30 05:00:00,36.3,32.1,30.27,East,90,0.0,0.0,85,0.00,-RMK Clear,SKC,0.00,WUHU216WMR200,2013-01-30 13:00:00,
2013-01-30 05:01:00,36.3,32.1,30.27,East,90,0.0,0.0,85,0.00,-RMK Clear,SKC,0.00,WUHU216WMR200,2013-01-30 13:01:00,
2013-01-30 05:02:00,36.5,32.3,30.27,East,90,0.0,0.0,85,0.00,-RMK Clear,SKC,0.00,WUHU216WMR200,2013-01-30 13:02:00,
2013-01-30 05:03:00,36.3,32.1,30.27,East,90,0.0,0.0,85,0.00,-RMK Clear,SKC,0.00,WUHU216WMR200,2013-01-30 13:03:00,
2013-01-30 05:04:00,36.3,32.4,30.27,East,90,0.0,0.0,86,0.00,-RMK Clear,SKC,0.00,WUHU216WMR200,2013-01-30 13:04:00,
2013-01-30 05:05:00,36.3,32.4,30.27,East,90,0.0,0.0,86,0.00,-RMK Clear,SKC,0.00,WUHU216WMR200,2013-01-30 13:05:00,
2013-01-30 05:06:00,36.3,32.4,30.27,North,0,0.0,0.0,86,0.00,-RMK Clear,SKC,0.00,WUHU216WMR200,2013-01-30 13:06:00,
2013-01-30 05:07:00,36.3,32.4,30.27,NNW,337,0.0,0.0,86,0.00,-RMK Clear,SKC,0.00,WUHU216WMR200,2013-01-30 13:07:00,
2013-01-30 05:08:00,36.3,32.4,30.27,North,0,0.0,0.0,86,0.00,-RMK Clear,SKC,0.00,WUHU216WMR200,2013-01-30 13:08:00,
2013-01-30 05:09:00,36.3,32.4,30.27,North,0,0.0,0.0,86,0.00,-RMK Clear,SKC,0.00,WUHU216WMR200,2013-01-30 13:09:00,
2013-01-30 05:10:00,36.3,32.4,30.27,North,0,0.0,0.0,86,0.00,-RMK Clear,SKC,0.00,WUHU216WMR200,2013-01-30 13:10:00,
2013-01-30 05:11:00,36.3,32.4,30.27,North,0,0.0,0.0,86,0.00,-RMK Clear,SKC,0.00,WUHU216WMR200,2013-01-30 13:11:00,
2013-01-30 05:12:00,36.3,32.4,30.27,NNE,22,0.0,0.0,86,0.00,-RMK Clear,SKC,0.00,WUHU216WMR200,2013-01-30 13:12:00,
2013-01-30 05:13:00,36.3,32.4,30.27,ENE,67,0.0,0.0,86,0.00,-RMK Clear,SKC,0.00,WUHU216WMR200,2013-01-30 13:13:00,
2013-01-30 05:14:00,36.5,32.9,30.27,NW,315,0.0,0.0,87,0.00,-RMK Clear,SKC,0.00,WUHU216WMR200,2013-01-30 13:14:00,
2013-01-30 05:15:00,36.5,32.6,30.27,East,90,0.0,0.0,86,0.00,-RMK Clear,SKC,0.00,WUHU216WMR200,2013-01-30 13:15:00,
2013-01-30 05:16:00,36.5,32.6,30.27,SE,135,0.0,0.0,86,0.00,-RMK Clear,SKC,0.00,WUHU216WMR200,2013-01-30 13:16:00,
2013-01-30 05:17:00,36.5,32.6,30.27,NNE,22,0.0,0.0,86,0.00,-RMK Clear,SKC,0.00,WUHU216WMR200,2013-01-30 13:17:00,
2013-01-30 05:18:00,36.6,32.4,30.27,NE,45,0.0,0.0,85,0.00,-RMK Clear,SKC,0.00,WUHU216WMR200,2013-01-30 13:18:00,
2013-01-30 05:19:00,36.6,32.7,30.27,ESE,112,0.0,0.0,86,0.00,-RMK Clear,SKC,0.00,WUHU216WMR200,2013-01-30 13:19:00,
2013-01-30 05:20:00,36.6,32.7,30.27,East,90,0.0,0.0,86,0.00,-RMK Clear,SKC,0.00,WUHU216WMR200,2013-01-30 13:20:00,
2013-01-30 05:21:00,36.6,32.4,30.27,North,0,1.1,1.1,85,0.00,-RMK Clear,SKC,0.00,WUHU216WMR200,2013-01-30 13:21:00,
2013-01-30 05:22:00,36.6,32.4,30.27,NNW,337,2.0,2.0,85,0.00,-RMK Clear,SKC,0.00,WUHU216WMR200,2013-01-30 13:22:00,
2013-01-30 05:23:00,36.6,32.4,30.27,ENE,67,0.0,2.0,85,0.00,-RMK Clear,SKC,0.00,WUHU216WMR200,2013-01-30 13:23:00,
2013-01-30 05:24:00,36.5,32.3,30.27,North,0,0.0,2.0,85,0.00,-RMK Clear,SKC,0.00,WUHU216WMR200,2013-01-30 13:24:00,
2013-01-30 05:25:00,36.5,32.3,30.27,North,0,0.0,2.0,85,0.00,-RMK Clear,SKC,0.00,WUHU216WMR200,2013-01-30 13:25:00,
2013-01-30 05:26:00,36.5,32.6,30.27,NNE,22,0.0,2.0,86,0.00,-RMK Clear,SKC,0.00,WUHU216WMR200,2013-01-30 13:26:00,
2013-01-30 05:27:00,36.5,32.6,30.27,NNE,22,0.0,2.0,86,0.00,-RMK Clear,SKC,0.00,WUHU216WMR200,2013-01-30 13:27:00,
2013-01-30 05:28:00,36.5,32.6,30.27,NNW,337,0.0,2.0,86,0.00,-RMK Clear,SKC,0.00,WUHU216WMR200,2013-01-30 13:28:00,
2013-01-30 05:29:00,36.5,32.6,30.27,North,0,0.0,2.0,86,0.00,-RMK Clear,SKC,0.00,WUHU216WMR200,2013-01-30 13:29:00,
2013-01-30 05:30:00,36.3,32.4,30.27,North,0,0.0,2.0,86,0.00,-RMK Clear,SKC,0.00,WUHU216WMR200,2013-01-30 13:30:00,
2013-01-30 05:31:00,36.3,32.4,30.27,North,0,0.0,2.0,86,0.00,-RMK Clear,SKC,0.00,WUHU216WMR200,2013-01-30 13:31:00,
2013-01-30 05:32:00,36.3,32.4,30.27,North,0,0.0,2.0,86,0.00,-RMK Clear,SKC,0.00,WUHU216WMR200,2013-01-30 13:32:00,
2013-01-30 05:33:00,36.3,32.4,30.27,North,0,0.0,0.0,86,0.00,-RMK Clear,SKC,0.00,WUHU216WMR200,2013-01-30 13:33:00,
2013-01-30 05:34:00,36.3,32.4,30.27,North,0,0.0,0.0,86,0.00,-RMK Clear,SKC,0.00,WUHU216WMR200,2013-01-30 13:34:00,
2013-01-30 05:35:00,36.3,32.4,30.27,NNW,337,0.0,0.0,86,0.00,-RMK Clear,SKC,0.00,WUHU216WMR200,2013-01-30 13:35:00,
2013-01-30 05:36:00,36.3,32.4,30.27,NNW,337,0.0,0.0,86,0.00,-RMK Clear,SKC,0.00,WUHU216WMR200,2013-01-30 13:36:00,
2013-01-30 05:37:00,36.1,32.2,30.27,North,0,0.0,0.0,86,0.00,-RMK Clear,SKC,0.00,WUHU216WMR200,2013-01-30 13:37:00,
2013-01-30 05:38:00,36.1,32.2,30.27,NW,315,0.0,0.0,86,0.00,-RMK Clear,SKC,0.00,WUHU216WMR200,2013-01-30 13:38:00,
2013-01-30 05:39:00,36.1,32.2,30.27,NNW,337,0.0,0.0,86,0.00,-RMK Clear,SKC,0.00,WUHU216WMR200,2013-01-30 13:39:00,
2013-01-30 05:40:00,36.1,32.2,30.27,North,0,0.0,0.0,86,0.00,-RMK Clear,SKC,0.00,WUHU216WMR200,2013-01-30 13:40:00,
2013-01-30 05:41:00,36.1,32.2,30.27,North,0,0.0,0.0,86,0.00,-RMK Clear,SKC,0.00,WUHU216WMR200,2013-01-30 13:41:00,
2013-01-30 05:42:00,36.1,32.2,30.27,North,0,0.0,0.0,86,0.00,-RMK Clear,SKC,0.00,WUHU216WMR200,2013-01-30 13:42:00,
2013-01-30 05:43:00,36.1,32.2,30.27,North,0,0.0,0.0,86,0.00,-RMK Clear,SKC,0.00,WUHU216WMR200,2013-01-30 13:43:00,
2013-01-30 05:44:00,35.9,32.3,30.27,North,0,0.0,0.0,87,0.00,-RMK Clear,SKC,0.00,WUHU216WMR200,2013-01-30 13:44:00,
2013-01-30 05:45:00,35.9,32.3,30.27,North,0,0.0,0.0,87,0.00,-RMK Clear,SKC,0.00,WUHU216WMR200,2013-01-30 13:45:00,
2013-01-30 05:46:00,35.9,32.3,30.27,North,0,0.0,0.0,87,0.00,-RMK Clear,SKC,0.00,WUHU216WMR200,2013-01-30 13:46:00,
2013-01-30 05:47:00,35.9,32.3,30.27,North,0,0.0,0.0,87,0.00,-RMK Clear,SKC,0.00,WUHU216WMR200,2013-01-30 13:47:00,
2013-01-30 05:48:00,35.9,32.3,30.27,North,0,0.0,0.0,87,0.00,-RMK Clear,SKC,0.00,WUHU216WMR200,2013-01-30 13:48:00,
2013-01-30 05:49:00,35.9,32.3,30.27,East,90,0.0,0.0,87,0.00,-RMK Clear,SKC,0.00,WUHU216WMR200,2013-01-30 13:49:00,
2013-01-30 05:50:00,35.9,32.3,30.27,East,90,0.0,0.0,87,0.00,-RMK Clear,SKC,0.00,WUHU216WMR200,2013-01-30 13:50:00,
2013-01-30 05:51:00,36.1,32.5,30.27,East,90,0.0,0.0,87,0.00,-RMK Clear,SKC,0.00,WUHU216WMR200,2013-01-30 13:51:00,
2013-01-30 05:52:00,36.1,32.5,30.27,East,90,0.0,0.0,87,0.00,-RMK Clear,SKC,0.00,WUHU216WMR200,2013-01-30 13:52:00,
2013-01-30 05:53:00,36.1,32.5,30.27,NE,45,0.0,0.0,87,0.00,-RMK Clear,SKC,0.00,WUHU216WMR200,2013-01-30 13:53:00,
2013-01-30 05:54:00,36.1,32.5,30.27,NE,45,0.0,0.0,87,0.00,-RMK Clear,SKC,0.00,WUHU216WMR200,2013-01-30 13:54:00,
2013-01-30 05:55:00,36.1,32.5,30.27,NNW,337,0.0,0.0,87,0.00,-RMK Clear,SKC,0.00,WUHU216WMR200,2013-01-30 13:55:00,
2013-01-30 05:56:00,36.1,32.5,30.27,NNW,337,0.0,0.0,87,0.00,-RMK Clear,SKC,0.00,WUHU216WMR200,2013-01-30 13:56:00,
2013-01-30 05:57:00,36.1,32.5,30.27,North,0,0.0,0.0,87,0.00,-RMK Clear,SKC,0.00,WUHU216WMR200,2013-01-30 13:57:00,
2013-01-30 05:58:00,36.1,32.5,30.27,NNE,22,0.0,0.0,87,0.00,-RMK Clear,SKC,0.00,WUHU216WMR200,2013-01-30 13:58:00,
2013-01-30 05:59:00,36.3,32.7,30.27,NNE,22,0.0,0.0,87,0.00,-RMK Clear,SKC,0.00,WUHU216WMR200,2013-01-30 13:59:00,
2013-01-30 06:00:00,36.3,32.7,30.27,NE,45,0.0,0.0,87,0.00,-RMK Clear,SKC,0.00,WUHU216WMR200,2013-01-30 14:00:00,
2013-01-30 06:01:00,36.3,32.7,30.27,NNE,22,0.0,0.0,87,0.00,-RMK Clear,SKC,0.00,WUHU216WMR200,2013-01-30 14:01:00,
2013-01-30 06:02:00,36.5,32.9,30.27,East,90,0.0,0.0,87,0.00,-RMK Clear,SKC,0.00,WUHU216WMR200,2013-01-30 14:02:00,
2013-01-30 06:03:00,36.5,32.9,30.27,ESE,112,0.0,0.0,87,0.00,-RMK Clear,SKC,0.00,WUHU216WMR200,2013-01-30 14:03:00,
2013-01-30 06:04:00,36.5,32.9,30.27,ESE,112,0.0,0.0,87,0.00,-RMK Clear,SKC,0.00,WUHU216WMR200,2013-01-30 14:04:00,
2013-01-30 06:05:00,36.5,32.9,30.27,ESE,112,0.0,0.0,87,0.00,-RMK Clear,SKC,0.00,WUHU216WMR200,2013-01-30 14:05:00,
2013-01-30 06:06:00,36.5,32.9,30.27,ESE,112,0.0,0.0,87,0.00,-RMK Clear,SKC,0.00,WUHU216WMR200,2013-01-30 14:06:00,
2013-01-30 06:07:00,36.5,32.9,30.27,North,0,0.0,0.0,87,0.00,-RMK Clear,SKC,0.00,WUHU216WMR200,2013-01-30 14:07:00,
2013-01-30 06:08:00,36.5,32.9,30.27,NE,45,0.0,0.0,87,0.00,-RMK Clear,SKC,0.00,WUHU216WMR200,2013-01-30 14:08:00,
2013-01-30 06:09:00,36.5,32.9,30.27,NE,45,0.0,0.0,87,0.00,-RMK Clear,SKC,0.00,WUHU216WMR200,2013-01-30 14:09:00,
2013-01-30 06:10:00,36.3,32.7,30.27,NE,45,0.0,0.0,87,0.00,-RMK Clear,SKC,0.00,WUHU216WMR200,2013-01-30 14:10:00,
2013-01-30 06:11:00,36.3,32.7,30.27,ENE,67,0.0,0.0,87,0.00,-RMK Clear,SKC,0.00,WUHU216WMR200,2013-01-30 14:11:00,
2013-01-30 06:12:00,36.3,32.7,30.27,ENE,67,0.0,0.0,87,0.00,-RMK Clear,SKC,0.00,WUHU216WMR200,2013-01-30 14:12:00,
2013-01-30 06:13:00,36.3,32.7,30.27,East,90,0.0,0.0,87,0.00,-RMK Clear,SKC,0.00,WUHU216WMR200,2013-01-30 14:13:00,
2013-01-30 06:14:00,36.3,32.4,30.27,East,90,0.0,0.0,86,0.00,-RMK Clear,SKC,0.00,WUHU216WMR200,2013-01-30 14:14:00,
2013-01-30 06:15:00,36.3,32.4,30.27,East,90,0.0,0.0,86,0.00,-RMK Clear,SKC,0.00,WUHU216WMR200,2013-01-30 14:15:00,
2013-01-30 06:16:00,36.3,32.4,30.27,East,90,0.0,0.0,86,0.00,-RMK Clear,SKC,0.00,WUHU216WMR200,2013-01-30 14:16:00,
2013-01-30 06:17:00,36.3,32.4,30.27,East,90,0.0,0.0,86,0.00,-RMK Clear,SKC,0.00,WUHU216WMR200,2013-01-30 14:17:00,
2013-01-30 06:18:00,36.5,32.6,30.27,East,90,0.0,0.0,86,0.00,-RMK Clear,SKC,0.00,WUHU216WMR200,2013-01-30 14:18:00,
2013-01-30 06:19:00,36.5,32.6,30.27,ESE,112,0.0,0.0,86,0.00,-RMK Clear,SKC,0.00,WUHU216WMR200,2013-01-30 14:19:00,
2013-01-30 06:20:00,36.5,32.6,30.27,East,90,0.0,0.0,86,0.00,-RMK Clear,SKC,0.00,WUHU216WMR200,2013-01-30 14:20:00,
2013-01-30 06:21:00,36.5,32.6,30.27,East,90,0.0,0.0,86,0.00,-RMK Clear,SKC,0.00,WUHU216WMR200,2013-01-30 14:21:00,
2013-01-30 06:22:00,36.5,32.6,30.27,East,90,0.0,0.0,86,0.00,-RMK Clear,SKC,0.00,WUHU216WMR200,2013-01-30 14:22:00,
2013-01-30 06:23:00,36.5,32.6,30.27,East,90,0.0,0.0,86,0.00,-RMK Clear,SKC,0.00,WUHU216WMR200,2013-01-30 14:23:00,
2013-01-30 06:24:00,36.6,32.7,30.27,East,90,0.0,0.0,86,0.00,-RMK Clear,SKC,0.00,WUHU216WMR200,2013-01-30 14:24:00,
2013-01-30 06:25:00,36.5,32.6,30.27,East,90,0.0,0.0,86,0.00,-RMK Clear,SKC,0.00,WUHU216WMR200,2013-01-30 14:25:00,
2013-01-30 06:26:00,36.5,32.6,30.27,ESE,112,0.0,0.0,86,0.00,-RMK Clear,SKC,0.00,WUHU216WMR200,2013-01-30 14:26:00,
2013-01-30 06:27:00,36.6,32.7,30.27,East,90,0.0,0.0,86,0.00,-RMK Clear,SKC,0.00,WUHU216WMR200,2013-01-30 14:27:00,
2013-01-30 06:28:00,36.6,32.4,30.27,ENE,67,1.1,1.1,85,0.00,-RMK Clear,SKC,0.00,WUHU216WMR200,2013-01-30 14:28:00,
2013-01-30 06:29:00,36.6,32.4,30.27,NNE,22,0.0,1.1,85,0.00,-RMK Clear,SKC,0.00,WUHU216WMR200,2013-01-30 14:29:00,
2013-01-30 06:30:00,36.6,32.4,30.27,NNW,337,0.0,1.1,85,0.00,-RMK Clear,SKC,0.00,WUHU216WMR200,2013-01-30 14:30:00,
2013-01-30 06:31:00,36.6,32.4,30.27,ENE,67,0.0,1.1,85,0.00,-RMK Clear,SKC,0.00,WUHU216WMR200,2013-01-30 14:31:00,
2013-01-30 06:32:00,36.6,32.4,30.27,East,90,0.0,1.1,85,0.00,-RMK Clear,SKC,0.00,WUHU216WMR200,2013-01-30 14:32:00,
2013-01-30 06:33:00,36.6,32.4,30.27,East,90,0.0,1.1,85,0.00,-RMK Clear,SKC,0.00,WUHU216WMR200,2013-01-30 14:33:00,
2013-01-30 06:34:00,36.6,32.4,30.27,East,90,0.0,1.1,85,0.00,-RMK Clear,SKC,0.00,WUHU216WMR200,2013-01-30 14:34:00,
2013-01-30 06:35:00,36.8,32.6,30.27,ESE,112,0.0,1.1,85,0.00,-RMK Clear,SKC,0.00,WUHU216WMR200,2013-01-30 14:35:00,
2013-01-30 06:36:00,36.8,32.6,30.27,East,90,2.2,2.2,85,0.00,-RMK Clear,SKC,0.00,WUHU216WMR200,2013-01-30 14:36:00,
2013-01-30 06:37:00,36.8,32.6,30.27,East,90,0.0,2.2,85,0.00,-RMK Clear,SKC,0.00,WUHU216WMR200,2013-01-30 14:37:00,
2013-01-30 06:38:00,36.8,32.6,30.27,NNE,22,0.0,2.2,85,0.00,-RMK Clear,SKC,0.00,WUHU216WMR200,2013-01-30 14:38:00,
2013-01-30 06:39:00,36.8,32.6,30.27,NE,45,0.0,2.2,85,0.00,-RMK Clear,SKC,0.00,WUHU216WMR200,2013-01-30 14:39:00,
2013-01-30 06:40:00,36.8,32.6,30.27,NE,45,1.3,2.2,85,0.00,-RMK Clear,SKC,0.00,WUHU216WMR200,2013-01-30 14:40:00,
2013-01-30 06:41:00,36.8,32.6,30.27,NNE,22,2.9,2.9,85,0.00,-RMK Clear,SKC,0.00,WUHU216WMR200,2013-01-30 14:41:00,
2013-01-30 06:42:00,37.0,32.8,30.27,NNE,22,2.5,2.9,85,0.00,-RMK Clear,SKC,0.00,WUHU216WMR200,2013-01-30 14:42:00,
2013-01-30 06:43:00,37.0,32.8,30.27,NNE,22,1.6,2.9,85,0.00,-RMK Clear,SKC,0.00,WUHU216WMR200,2013-01-30 14:43:00,
2013-01-30 06:44:00,37.0,32.8,30.27,ENE,67,0.0,2.9,85,0.00,-RMK Clear,SKC,0.00,WUHU216WMR200,2013-01-30 14:44:00,
2013-01-30 06:45:00,37.0,32.8,30.27,NE,45,0.0,2.9,85,0.00,-RMK Clear,SKC,0.00,WUHU216WMR200,2013-01-30 14:45:00,
2013-01-30 06:46:00,37.2,33.3,30.27,NW,315,0.0,2.9,86,0.00,-RMK Clear,SKC,0.00,WUHU216WMR200,2013-01-30 14:46:00,
2013-01-30 06:47:00,37.0,33.1,30.27,ENE,67,0.0,2.9,86,0.00,-RMK Clear,SKC,0.00,WUHU216WMR200,2013-01-30 14:47:00,
2013-01-30 06:48:00,37.0,33.4,30.24,North,0,0.0,2.9,87,0.00,-RMK Clear,SKC,0.00,WUHU216WMR200,2013-01-30 14:48:00,
2013-01-30 06:49:00,36.8,32.9,30.24,NNW,337,1.6,2.9,86,0.00,-RMK Clear,SKC,0.00,WUHU216WMR200,2013-01-30 14:49:00,
2013-01-30 06:50:00,36.8,32.9,30.24,NE,45,1.6,2.9,86,0.00,-RMK Clear,SKC,0.00,WUHU216WMR200,2013-01-30 14:50:00,
2013-01-30 06:51:00,37.0,33.1,30.24,NE,45,1.3,2.9,86,0.00,-RMK Clear,SKC,0.00,WUHU216WMR200,2013-01-30 14:51:00,
2013-01-30 06:52:00,37.2,33.3,30.24,NE,45,0.0,2.5,86,0.00,-RMK Clear,SKC,0.00,WUHU216WMR200,2013-01-30 14:52:00,
2013-01-30 06:53:00,37.4,33.5,30.24,NE,45,0.0,1.6,86,0.00,-RMK Clear,SKC,0.00,WUHU216WMR200,2013-01-30 14:53:00,
2013-01-30 06:54:00,37.4,33.5,30.24,East,90,0.0,1.6,86,0.00,-RMK Clear,SKC,0.00,WUHU216WMR200,2013-01-30 14:54:00,
2013-01-30 06:55:00,37.5,33.6,30.24,NW,315,1.1,1.6,86,0.00,-RMK Clear,SKC,0.00,WUHU216WMR200,2013-01-30 14:55:00,
2013-01-30 06:56:00,37.5,33.6,30.24,NE,45,1.1,1.6,86,0.00,-RMK Clear,SKC,0.00,WUHU216WMR200,2013-01-30 14:56:00,
2013-01-30 06:57:00,37.9,33.7,30.24,NE,45,0.0,1.6,85,0.00,-RMK Clear,SKC,0.00,WUHU216WMR200,2013-01-30 14:57:00,
2013-01-30 06:58:00,37.9,33.7,30.24,NNW,337,0.0,1.6,85,0.00,-RMK Clear,SKC,0.00,WUHU216WMR200,2013-01-30 14:58:00,
2013-01-30 06:59:00,37.9,33.7,30.24,North,0,0.0,1.6,85,0.00,-RMK Clear,SKC,0.00,WUHU216WMR200,2013-01-30 14:59:00,
2013-01-30 07:00:00,37.9,34.0,30.24,North,0,0.0,1.6,86,0.00,-RMK Clear,SKC,0.00,WUHU216WMR200,2013-01-30 15:00:00,
2013-01-30 07:01:00,37.9,34.0,30.24,North,0,0.0,1.3,86,0.00,-RMK Clear,SKC,0.00,WUHU216WMR200,2013-01-30 15:01:00,
2013-01-30 07:02:00,37.7,33.8,30.24,NNE,22,0.0,1.1,86,0.00,-RMK Clear,SKC,0.00,WUHU216WMR200,2013-01-30 15:02:00,
2013-01-30 07:03:00,37.7,34.1,30.27,NE,45,0.0,1.1,87,0.00,-RMK Clear,SKC,0.00,WUHU216WMR200,2013-01-30 15:03:00,
2013-01-30 07:04:00,37.7,34.1,30.27,North,0,0.0,1.1,87,0.00,-RMK Clear,SKC,0.00,WUHU216WMR200,2013-01-30 15:04:00,
2013-01-30 07:05:00,37.9,34.0,30.27,North,0,0.0,1.1,86,0.00,-RMK Clear,SKC,0.00,WUHU216WMR200,2013-01-30 15:05:00,
2013-01-30 07:06:00,37.9,34.0,30.27,NNE,22,0.0,1.1,86,0.00,-RMK Clear,SKC,0.00,WUHU216WMR200,2013-01-30 15:06:00,
2013-01-30 07:07:00,37.9,34.3,30.27,NNE,22,0.0,0.0,87,0.00,-RMK Clear,SKC,0.00,WUHU216WMR200,2013-01-30 15:07:00,
2013-01-30 07:08:00,37.9,34.3,30.27,ESE,112,0.0,0.0,87,0.00,-RMK Clear,SKC,0.00,WUHU216WMR200,2013-01-30 15:08:00,
2013-01-30 07:09:00,38.1,34.5,30.27,ESE,112,0.0,0.0,87,0.00,-RMK Clear,SKC,0.00,WUHU216WMR200,2013-01-30 15:09:00,
2013-01-30 07:10:00,38.1,34.5,30.27,ENE,67,0.0,0.0,87,0.00,-RMK Clear,SKC,0.00,WUHU216WMR200,2013-01-30 15:10:00,
2013-01-30 07:11:00,38.1,34.5,30.27,ENE,67,0.0,0.0,87,0.00,-RMK Clear,SKC,0.00,WUHU216WMR200,2013-01-30 15:11:00,
2013-01-30 07:12:00,38.1,34.5,30.27,ENE,67,0.0,0.0,87,0.00,-RMK Clear,SKC,0.00,WUHU216WMR200,2013-01-30 15:12:00,
2013-01-30 07:13:00,38.1,34.5,30.27,NNE,22,0.0,0.0,87,0.00,-RMK Clear,SKC,0.00,WUHU216WMR200,2013-01-30 15:13:00,
2013-01-30 07:14:00,38.1,34.5,30.27,NNE,22,0.0,0.0,87,0.00,-RMK Clear,SKC,0.00,WUHU216WMR200,2013-01-30 15:14:00,
2013-01-30 07:15:00,38.3,34.7,30.27,WSW,247,0.0,0.0,87,0.00,-RMK Clear,SKC,0.00,WUHU216WMR200,2013-01-30 15:15:00,
2013-01-30 07:16:00,38.3,34.7,30.27,WSW,247,0.0,0.0,87,0.00,-RMK Clear,SKC,0.00,WUHU216WMR200,2013-01-30 15:16:00,
2013-01-30 07:17:00,38.3,34.7,30.27,SE,135,0.0,0.0,87,0.00,-RMK Clear,SKC,0.00,WUHU216WMR200,2013-01-30 15:17:00,
2013-01-30 07:18:00,38.3,34.7,30.27,North,0,0.0,0.0,87,0.00,-RMK Clear,SKC,0.00,WUHU216WMR200,2013-01-30 15:18:00,
2013-01-30 07:19:00,38.3,34.7,30.27,NNW,337,0.0,0.0,87,0.00,-RMK Clear,SKC,0.00,WUHU216WMR200,2013-01-30 15:19:00,
2013-01-30 07:20:00,38.4,34.8,30.27,NNW,337,0.0,0.0,87,0.00,-RMK Clear,SKC,0.00,WUHU216WMR200,2013-01-30 15:20:00,
2013-01-30 07:21:00,38.4,34.8,30.27,NNW,337,0.0,0.0,87,0.00,-RMK Clear,SKC,0.00,WUHU216WMR200,2013-01-30 15:21:00,
2013-01-30 07:22:00,38.4,34.8,30.27,NE,45,0.0,0.0,87,0.00,-RMK Clear,SKC,0.00,WUHU216WMR200,2013-01-30 15:22:00,
2013-01-30 07:23:00,38.6,34.9,30.27,East,90,0.0,0.0,87,0.00,-RMK Clear,SKC,0.00,WUHU216WMR200,2013-01-30 15:23:00,
2013-01-30 07:24:00,38.6,34.9,30.27,East,90,0.0,0.0,87,0.00,-RMK Clear,SKC,0.00,WUHU216WMR200,2013-01-30 15:24:00,
2013-01-30 07:25:00,38.8,35.1,30.27,East,90,0.0,0.0,87,0.00,-RMK Clear,SKC,0.00,WUHU216WMR200,2013-01-30 15:25:00,
2013-01-30 07:26:00,38.8,35.1,30.27,WNW,292,0.0,0.0,87,0.00,-RMK Clear,SKC,0.00,WUHU216WMR200,2013-01-30 15:26:00,
2013-01-30 07:27:00,38.8,35.1,30.27,WNW,292,0.0,0.0,87,0.00,-RMK Clear,SKC,0.00,WUHU216WMR200,2013-01-30 15:27:00,
2013-01-30 07:28:00,39.0,35.1,30.27,NW,315,0.9,0.9,86,0.00,-RMK Clear,SKC,0.00,WUHU216WMR200,2013-01-30 15:28:00,
2013-01-30 07:29:00,39.0,35.1,30.27,NW,315,0.0,0.9,86,0.00,-RMK Clear,SKC,0.00,WUHU216WMR200,2013-01-30 15:29:00,
2013-01-30 07:30:00,39.0,35.1,30.27,North,0,0.0,0.9,86,0.00,-RMK Clear,SKC,0.00,WUHU216WMR200,2013-01-30 15:30:00,
2013-01-30 07:31:00,39.2,35.3,30.27,North,0,0.0,0.9,86,0.00,-RMK Clear,SKC,0.00,WUHU216WMR200,2013-01-30 15:31:00,
2013-01-30 07:32:00,39.2,35.5,30.27,East,90,0.0,0.9,87,0.00,-RMK Clear,SKC,0.00,WUHU216WMR200,2013-01-30 15:32:00,
2013-01-30 07:33:00,39.2,35.5,30.27,East,90,0.0,0.9,87,0.00,-RMK Clear,SKC,0.00,WUHU216WMR200,2013-01-30 15:33:00,
2013-01-30 07:34:00,39.5,35.8,30.27,East,90,0.0,0.9,87,0.00,-RMK Clear,SKC,0.00,WUHU216WMR200,2013-01-30 15:34:00,
2013-01-30 07:35:00,39.7,36.0,30.27,East,90,0.0,0.9,87,0.00,-RMK Clear,SKC,0.00,WUHU216WMR200,2013-01-30 15:35:00,
2013-01-30 07:36:00,39.7,36.0,30.27,NE,45,0.0,0.9,87,0.00,-RMK Clear,SKC,0.00,WUHU216WMR200,2013-01-30 15:36:00,
2013-01-30 07:37:00,39.7,35.7,30.27,ENE,67,0.0,0.9,86,0.00,-RMK Clear,SKC,0.00,WUHU216WMR200,2013-01-30 15:37:00,
2013-01-30 07:38:00,39.9,35.9,30.27,West,270,0.0,0.9,86,0.00,-RMK Clear,SKC,0.00,WUHU216WMR200,2013-01-30 15:38:00,
2013-01-30 07:39:00,40.1,36.1,30.27,WSW,247,0.0,0.0,86,0.00,-RMK Clear,SKC,0.00,WUHU216WMR200,2013-01-30 15:39:00,
2013-01-30 07:40:00,40.2,36.2,30.27,SSW,202,0.0,0.0,86,0.00,-RMK Clear,SKC,0.00,WUHU216WMR200,2013-01-30 15:40:00,
2013-01-30 07:41:00,40.2,36.2,30.27,SSW,202,0.0,0.0,86,0.00,-RMK Clear,SKC,0.00,WUHU216WMR200,2013-01-30 15:41:00,
2013-01-30 07:42:00,40.2,36.2,30.27,SSW,202,0.0,0.0,86,0.00,-RMK Clear,SKC,0.00,WUHU216WMR200,2013-01-30 15:42:00,
2013-01-30 07:43:00,40.4,36.4,30.27,SSW,202,0.0,0.0,86,0.00,-RMK Clear,SKC,0.00,WUHU216WMR200,2013-01-30 15:43:00,
2013-01-30 07:44:00,40.4,36.4,30.27,SSW,202,0.0,0.0,86,0.00,-RMK Clear,SKC,0.00,WUHU216WMR200,2013-01-30 15:44:00,
2013-01-30 07:45:00,40.6,36.6,30.27,SSW,202,0.0,0.0,86,0.00,-RMK Clear,SKC,0.00,WUHU216WMR200,2013-01-30 15:45:00,
2013-01-30 07:46:00,40.8,37.1,30.27,South,180,0.0,0.0,87,0.00,-RMK Clear,SKC,0.00,WUHU216WMR200,2013-01-30 15:46:00,
2013-01-30 07:47:00,41.0,37.3,30.30,West,270,0.0,0.0,87,0.00,-RMK Clear,SKC,0.00,WUHU216WMR200,2013-01-30 15:47:00,
2013-01-30 07:48:00,41.1,37.4,30.30,South,180,0.0,0.0,87,0.00,-RMK Clear,SKC,0.00,WUHU216WMR200,2013-01-30 15:48:00,
2013-01-30 07:49:00,41.1,37.4,30.30,South,180,0.0,0.0,87,0.00,-RMK Clear,SKC,0.00,WUHU216WMR200,2013-01-30 15:49:00,
2013-01-30 07:50:00,41.3,37.6,30.30,WSW,247,0.0,0.0,87,0.00,-RMK Clear,SKC,0.00,WUHU216WMR200,2013-01-30 15:50:00,
2013-01-30 07:51:00,41.5,37.5,30.30,ESE,112,1.1,1.1,86,0.00,-RMK Clear,SKC,0.00,WUHU216WMR200,2013-01-30 15:51:00,
2013-01-30 07:52:00,41.5,37.5,30.30,SSW,202,0.0,1.1,86,0.00,-RMK Clear,SKC,0.00,WUHU216WMR200,2013-01-30 15:52:00,
2013-01-30 07:53:00,41.7,37.7,30.30,SSW,202,0.0,1.1,86,0.00,-RMK Clear,SKC,0.00,WUHU216WMR200,2013-01-30 15:53:00,
2013-01-30 07:54:00,42.8,38.5,30.30,SSW,202,0.0,1.1,85,0.00,-RMK Clear,SKC,0.00,WUHU216WMR200,2013-01-30 15:54:00,
2013-01-30 07:55:00,44.0,39.1,30.30,South,180,0.0,1.1,83,0.00,-RMK Clear,SKC,0.00,WUHU216WMR200,2013-01-30 15:55:00,
2013-01-30 07:56:00,45.6,39.1,30.30,SSW,202,0.0,1.1,78,0.00,-RMK Clear,SKC,0.00,WUHU216WMR200,2013-01-30 15:56:00,
2013-01-30 07:57:00,46.2,38.7,30.30,SSW,202,0.0,1.1,75,0.00,-RMK Clear,SKC,0.00,WUHU216WMR200,2013-01-30 15:57:00,
2013-01-30 07:58:00,46.7,38.1,30.30,ESE,112,0.0,1.1,72,0.00,-RMK Clear,SKC,0.00,WUHU216WMR200,2013-01-30 15:58:00,
2013-01-30 07:59:00,47.4,38.1,30.30,South,180,0.0,1.1,70,0.00,-RMK Clear,SKC,0.00,WUHU216WMR200,2013-01-30 15:59:00,
2013-01-30 08:00:00,48.0,38.3,30.30,South,180,0.0,1.1,69,0.00,-RMK Clear,SKC,0.00,WUHU216WMR200,2013-01-30 16:00:00,
2013-01-30 08:01:00,48.7,39.0,30.30,South,180,0.0,1.1,69,0.00,-RMK Clear,SKC,0.00,WUHU216WMR200,2013-01-30 16:01:00,
2013-01-30 08:02:00,49.6,39.8,30.30,South,180,0.0,0.0,69,0.00,-RMK Clear,SKC,0.00,WUHU216WMR200,2013-01-30 16:02:00,
2013-01-30 08:03:00,50.7,39.8,30.30,SSE,157,0.0,0.0,66,0.00,-RMK Clear,SKC,0.00,WUHU216WMR200,2013-01-30 16:03:00,
2013-01-30 08:04:00,50.9,39.6,30.30,SSE,157,0.0,0.0,65,0.00,-RMK Clear,SKC,0.00,WUHU216WMR200,2013-01-30 16:04:00,
2013-01-30 08:05:00,51.0,39.2,30.30,SSE,157,0.0,0.0,64,0.00,-RMK Clear,SKC,0.00,WUHU216WMR200,2013-01-30 16:05:00,
2013-01-30 08:06:00,51.4,39.6,30.30,SE,135,0.0,0.0,64,0.00,-RMK Clear,SKC,0.00,WUHU216WMR200,2013-01-30 16:06:00,
2013-01-30 08:07:00,51.6,39.4,30.30,SSE,157,0.0,0.0,63,0.00,-RMK Clear,SKC,0.00,WUHU216WMR200,2013-01-30 16:07:00,
2013-01-30 08:08:00,51.8,39.2,30.30,SSW,202,0.0,0.0,62,0.00,-RMK Clear,SKC,0.00,WUHU216WMR200,2013-01-30 16:08:00,
2013-01-30 08:09:00,51.8,38.8,30.30,SSW,202,0.0,0.0,61,0.00,-RMK Clear,SKC,0.00,WUHU216WMR200,2013-01-30 16:09:00,
2013-01-30 08:10:00,51.4,37.5,30.30,West,270,1.3,1.3,59,0.00,-RMK Clear,SKC,0.00,WUHU216WMR200,2013-01-30 16:10:00,
2013-01-30 08:11:00,51.9,38.0,30.30,South,180,0.0,1.3,59,0.00,-RMK Clear,SKC,0.00,WUHU216WMR200,2013-01-30 16:11:00,
2013-01-30 08:12:00,51.9,37.5,30.30,SSW,202,0.0,1.3,58,0.00,-RMK Clear,SKC,0.00,WUHU216WMR200,2013-01-30 16:12:00,
2013-01-30 08:13:00,51.8,37.4,30.30,East,90,0.0,1.3,58,0.00,-RMK Clear,SKC,0.00,WUHU216WMR200,2013-01-30 16:13:00,
2013-01-30 08:14:00,51.8,37.4,30.30,South,180,0.0,1.3,58,0.00,-RMK Clear,SKC,0.00,WUHU216WMR200,2013-01-30 16:14:00,
2013-01-30 08:15:00,51.6,36.8,30.30,SSW,202,0.0,1.3,57,0.00,-RMK Clear,SKC,0.00,WUHU216WMR200,2013-01-30 16:15:00,
2013-01-30 08:16:00,51.0,35.8,30.30,SW,225,0.0,1.3,56,0.00,-RMK Clear,SKC,0.00,WUHU216WMR200,2013-01-30 16:16:00,
2013-01-30 08:17:00,50.9,35.7,30.30,South,180,0.0,1.3,56,0.00,-RMK Clear,SKC,0.00,WUHU216WMR200,2013-01-30 16:17:00,
2013-01-30 08:18:00,51.2,36.4,30.30,ESE,112,0.9,1.3,57,0.00,-RMK Clear,SKC,0.00,WUHU216WMR200,2013-01-30 16:18:00,
2013-01-30 08:19:00,51.4,37.5,30.30,SSW,202,0.0,1.3,59,0.00,-RMK Clear,SKC,0.00,WUHU216WMR200,2013-01-30 16:19:00,
2013-01-30 08:20:00,51.6,38.1,30.30,WNW,292,0.0,1.3,60,0.00,-RMK Clear,SKC,0.00,WUHU216WMR200,2013-01-30 16:20:00,
2013-01-30 08:21:00,51.9,38.9,30.30,SSW,202,1.1,1.1,61,0.00,-RMK Clear,SKC,0.00,WUHU216WMR200,2013-01-30 16:21:00,
2013-01-30 08:22:00,51.9,38.4,30.30,WSW,247,0.9,1.1,60,0.00,-RMK Clear,SKC,0.00,WUHU216WMR200,2013-01-30 16:22:00,
2013-01-30 08:23:00,51.8,37.4,30.30,South,180,0.0,1.1,58,0.00,-RMK Clear,SKC,0.00,WUHU216WMR200,2013-01-30 16:23:00,
2013-01-30 08:24:00,51.0,36.2,30.30,SW,225,1.6,1.6,57,0.00,-RMK Clear,SKC,0.00,WUHU216WMR200,2013-01-30 16:24:00,
2013-01-30 08:25:00,51.0,36.2,30.30,South,180,0.9,1.6,57,0.00,-RMK Clear,SKC,0.00,WUHU216WMR200,2013-01-30 16:25:00,
2013-01-30 08:26:00,50.7,35.0,30.30,SE,135,0.0,1.6,55,0.00,-RMK Clear,SKC,0.00,WUHU216WMR200,2013-01-30 16:26:00,
2013-01-30 08:27:00,51.6,36.3,30.30,SSW,202,0.0,1.6,56,0.00,-RMK Clear,SKC,0.00,WUHU216WMR200,2013-01-30 16:27:00,
2013-01-30 08:28:00,51.9,36.2,30.30,South,180,0.0,1.6,55,0.00,-RMK Clear,SKC,0.00,WUHU216WMR200,2013-01-30 16:28:00,
2013-01-30 08:29:00,52.1,36.3,30.30,East,90,0.0,1.6,55,0.00,-RMK Clear,SKC,0.00,WUHU216WMR200,2013-01-30 16:29:00,
2013-01-30 08:30:00,52.5,37.2,30.30,East,90,0.0,1.6,56,0.00,-RMK Clear,SKC,0.00,WUHU216WMR200,2013-01-30 16:30:00,
2013-01-30 08:31:00,52.8,37.9,30.30,ESE,112,0.0,1.6,57,0.00,-RMK Clear,SKC,0.00,WUHU216WMR200,2013-01-30 16:31:00,
2013-01-30 08:32:00,53.0,38.1,30.30,East,90,0.0,1.6,57,0.00,-RMK Clear,SKC,0.00,WUHU216WMR200,2013-01-30 16:32:00,
2013-01-30 08:33:00,53.6,40.0,30.30,East,90,0.0,1.6,60,0.00,-RMK Clear,SKC,0.00,WUHU216WMR200,2013-01-30 16:33:00,
2013-01-30 08:34:00,53.6,39.6,30.30,SSE,157,0.0,1.6,59,0.00,-RMK Clear,SKC,0.00,WUHU216WMR200,2013-01-30 16:34:00,
2013-01-30 08:35:00,53.6,39.6,30.30,SSE,157,0.0,0.9,59,0.00,-RMK Clear,SKC,0.00,WUHU216WMR200,2013-01-30 16:35:00,
2013-01-30 08:36:00,53.0,37.7,30.30,SE,135,0.0,0.0,56,0.00,-RMK Clear,SKC,0.00,WUHU216WMR200,2013-01-30 16:36:00,
2013-01-30 08:37:00,52.3,36.5,30.30,SE,135,0.0,0.0,55,0.00,-RMK Clear,SKC,0.00,WUHU216WMR200,2013-01-30 16:37:00,
2013-01-30 08:38:00,51.8,37.0,30.30,South,180,0.0,0.0,57,0.00,-RMK Clear,SKC,0.00,WUHU216WMR200,2013-01-30 16:38:00,
2013-01-30 08:39:00,51.4,36.6,30.30,SSE,157,0.0,0.0,57,0.00,-RMK Clear,SKC,0.00,WUHU216WMR200,2013-01-30 16:39:00,
2013-01-30 08:40:00,51.0,36.2,30.30,SE,135,0.0,0.0,57,0.00,-RMK Clear,SKC,0.00,WUHU216WMR200,2013-01-30 16:40:00,
2013-01-30 08:41:00,50.3,36.0,30.30,SW,225,0.0,0.0,58,0.00,-RMK Clear,SKC,0.00,WUHU216WMR200,2013-01-30 16:41:00,
2013-01-30 08:42:00,50.7,36.9,30.30,ESE,112,0.0,0.0,59,0.00,-RMK Clear,SKC,0.00,WUHU216WMR200,2013-01-30 16:42:00,
2013-01-30 08:43:00,50.9,37.0,30.30,South,180,0.0,0.0,59,0.00,-RMK Clear,SKC,0.00,WUHU216WMR200,2013-01-30 16:43:00,
2013-01-30 08:44:00,51.0,37.6,30.30,South,180,0.0,0.0,60,0.00,-RMK Clear,SKC,0.00,WUHU216WMR200,2013-01-30 16:44:00,
2013-01-30 08:45:00,51.0,37.6,30.30,SSE,157,0.0,0.0,60,0.00,-RMK Clear,SKC,0.00,WUHU216WMR200,2013-01-30 16:45:00,
2013-01-30 08:46:00,51.0,37.6,30.30,SE,135,0.0,0.0,60,0.00,-RMK Clear,SKC,0.00,WUHU216WMR200,2013-01-30 16:46:00,
2013-01-30 08:47:00,51.0,37.6,30.33,SSW,202,0.0,0.0,60,0.00,-RMK Clear,SKC,0.00,WUHU216WMR200,2013-01-30 16:47:00,
2013-01-30 08:48:00,51.0,37.6,30.33,West,270,1.1,1.1,60,0.00,-RMK Clear,SKC,0.00,WUHU216WMR200,2013-01-30 16:48:00,
2013-01-30 08:49:00,50.7,38.1,30.33,ESE,112,0.0,1.1,62,0.00,-RMK Clear,SKC,0.00,WUHU216WMR200,2013-01-30 16:49:00,
2013-01-30 08:51:00,50.7,38.1,30.33,SSW,202,0.0,1.1,62,0.00,-RMK Clear,SKC,0.00,WUHU216WMR200,2013-01-30 16:51:00,
2013-01-30 08:52:00,50.3,37.8,30.33,SW,225,0.9,1.1,62,0.00,-RMK Clear,SKC,0.00,WUHU216WMR200,2013-01-30 16:52:00,
2013-01-30 08:53:00,50.3,37.8,30.33,SSW,202,0.0,1.1,62,0.00,-RMK Clear,SKC,0.00,WUHU216WMR200,2013-01-30 16:53:00,
2013-01-30 08:54:00,50.0,37.1,30.33,South,180,0.0,1.1,61,0.00,-RMK Clear,SKC,0.00,WUHU216WMR200,2013-01-30 16:54:00,
2013-01-30 08:55:00,50.1,38.0,30.33,East,90,0.0,1.1,63,0.00,-RMK Clear,SKC,0.00,WUHU216WMR200,2013-01-30 16:55:00,
2013-01-30 08:56:00,50.3,38.2,30.33,SSW,202,0.0,1.1,63,0.00,-RMK Clear,SKC,0.00,WUHU216WMR200,2013-01-30 16:56:00,
2013-01-30 08:57:00,50.3,38.2,30.33,SE,135,0.0,1.1,63,0.00,-RMK Clear,SKC,0.00,WUHU216WMR200,2013-01-30 16:57:00,
2013-01-30 08:58:00,50.5,38.0,30.33,East,90,0.0,1.1,62,0.00,-RMK Clear,SKC,0.00,WUHU216WMR200,2013-01-30 16:58:00,
2013-01-30 08:59:00,50.7,39.0,30.33,ESE,112,0.0,0.9,64,0.00,-RMK Clear,SKC,0.00,WUHU216WMR200,2013-01-30 16:59:00,
2013-01-30 09:00:00,50.9,38.7,30.33,South,180,0.0,0.9,63,0.00,-RMK Clear,SKC,0.00,WUHU216WMR200,2013-01-30 17:00:00,
2013-01-30 09:01:00,50.7,38.1,30.33,WSW,247,1.1,1.1,62,0.00,-RMK Clear,SKC,0.00,WUHU216WMR200,2013-01-30 17:01:00,
2013-01-30 09:02:00,50.3,37.3,30.33,South,180,0.0,1.1,61,0.00,-RMK Clear,SKC,0.00,WUHU216WMR200,2013-01-30 17:02:00,
2013-01-30 09:03:00,50.3,37.8,30.33,SE,135,0.0,1.1,62,0.00,-RMK Clear,SKC,0.00,WUHU216WMR200,2013-01-30 17:03:00,
2013-01-30 09:04:00,50.7,38.6,30.33,ESE,112,1.1,1.1,63,0.00,-RMK Clear,SKC,0.00,WUHU216WMR200,2013-01-30 17:04:00,
2013-01-30 09:05:00,51.2,38.6,30.33,SSE,157,0.9,1.1,62,0.00,-RMK Clear,SKC,0.00,WUHU216WMR200,2013-01-30 17:05:00,
2013-01-30 09:06:00,51.0,38.4,30.33,South,180,0.0,1.1,62,0.00,-RMK Clear,SKC,0.00,WUHU216WMR200,2013-01-30 17:06:00,
2013-01-30 09:07:00,50.7,37.7,30.33,South,180,0.0,1.1,61,0.00,-RMK Clear,SKC,0.00,WUHU216WMR200,2013-01-30 17:07:00,
2013-01-30 09:08:00,50.7,37.7,30.33,SE,135,0.0,1.1,61,0.00,-RMK Clear,SKC,0.00,WUHU216WMR200,2013-01-30 17:08:00,
2013-01-30 09:09:00,50.7,37.7,30.33,SSW,202,0.0,1.1,61,0.00,-RMK Clear,SKC,0.00,WUHU216WMR200,2013-01-30 17:09:00,
2013-01-30 09:10:00,50.7,38.1,30.33,SSE,157,0.0,1.1,62,0.00,-RMK Clear,SKC,0.00,WUHU216WMR200,2013-01-30 17:10:00,
2013-01-30 09:11:00,51.0,39.2,30.33,South,180,0.0,1.1,64,0.00,-RMK Clear,SKC,0.00,WUHU216WMR200,2013-01-30 17:11:00,
2013-01-30 09:12:00,50.9,39.2,30.33,SSE,157,1.1,1.1,64,0.00,-RMK Clear,SKC,0.00,WUHU216WMR200,2013-01-30 17:12:00,
2013-01-30 09:13:00,50.9,38.7,30.33,SW,225,0.0,1.1,63,0.00,-RMK Clear,SKC,0.00,WUHU216WMR200,2013-01-30 17:13:00,
2013-01-30 09:14:00,50.9,38.7,30.33,East,90,0.0,1.1,63,0.00,-RMK Clear,SKC,0.00,WUHU216WMR200,2013-01-30 17:14:00,
2013-01-30 09:15:00,51.0,38.4,30.33,NE,45,0.0,1.1,62,0.00,-RMK Clear,SKC,0.00,WUHU216WMR200,2013-01-30 17:15:00,
2013-01-30 09:16:00,51.2,38.6,30.33,East,90,0.0,1.1,62,0.00,-RMK Clear,SKC,0.00,WUHU216WMR200,2013-01-30 17:16:00,
2013-01-30 09:17:00,51.2,38.6,30.33,South,180,0.0,1.1,62,0.00,-RMK Clear,SKC,0.00,WUHU216WMR200,2013-01-30 17:17:00,
2013-01-30 09:18:00,51.0,38.8,30.33,SSW,202,1.1,1.1,63,0.00,-RMK Clear,SKC,0.00,WUHU216WMR200,2013-01-30 17:18:00,
2013-01-30 09:19:00,51.2,39.4,30.33,South,180,0.0,1.1,64,0.00,-RMK Clear,SKC,0.00,WUHU216WMR200,2013-01-30 17:19:00,
2013-01-30 09:20:00,51.4,39.6,30.33,SE,135,0.0,1.1,64,0.00,-RMK Clear,SKC,0.00,WUHU216WMR200,2013-01-30 17:20:00,
2013-01-30 09:21:00,51.6,39.8,30.33,ENE,67,0.0,1.1,64,0.00,-RMK Clear,SKC,0.00,WUHU216WMR200,2013-01-30 17:21:00,
2013-01-30 09:22:00,51.6,39.4,30.33,South,180,0.0,1.1,63,0.00,-RMK Clear,SKC,0.00,WUHU216WMR200,2013-01-30 17:22:00,
2013-01-30 09:23:00,51.8,39.6,30.33,SW,225,0.9,1.1,63,0.00,-RMK Clear,SKC,0.00,WUHU216WMR200,2013-01-30 17:23:00,
2013-01-30 09:24:00,51.9,39.3,30.33,SW,225,0.0,1.1,62,0.00,-RMK Clear,SKC,0.00,WUHU216WMR200,2013-01-30 17:24:00,
2013-01-30 09:25:00,51.8,38.8,30.33,ESE,112,0.0,1.1,61,0.00,-RMK Clear,SKC,0.00,WUHU216WMR200,2013-01-30 17:25:00,
2013-01-30 09:26:00,51.9,38.9,30.33,SW,225,1.3,1.3,61,0.00,-RMK Clear,SKC,0.00,WUHU216WMR200,2013-01-30 17:26:00,
2013-01-30 09:27:00,51.8,38.3,30.33,West,270,0.0,1.3,60,0.00,-RMK Clear,SKC,0.00,WUHU216WMR200,2013-01-30 17:27:00,
2013-01-30 09:28:00,51.8,38.8,30.33,South,180,0.9,1.3,61,0.00,-RMK Clear,SKC,0.00,WUHU216WMR200,2013-01-30 17:28:00,
2013-01-30 09:29:00,51.8,38.8,30.33,SSE,157,0.0,1.3,61,0.00,-RMK Clear,SKC,0.00,WUHU216WMR200,2013-01-30 17:29:00,
2013-01-30 09:30:00,51.8,39.2,30.33,SSE,157,0.0,1.3,62,0.00,-RMK Clear,SKC,0.00,WUHU216WMR200,2013-01-30 17:30:00,
2013-01-30 09:31:00,51.9,39.7,30.33,SSE,157,0.0,1.3,63,0.00,-RMK Clear,SKC,0.00,WUHU216WMR200,2013-01-30 17:31:00,
2013-01-30 09:32:00,52.1,39.9,30.33,WSW,247,1.1,1.3,63,0.00,-RMK Clear,SKC,0.00,WUHU216WMR200,2013-01-30 17:32:00,
2013-01-30 09:33:00,52.5,40.3,30.33,SE,135,1.1,1.3,63,0.00,-RMK Clear,SKC,0.00,WUHU216WMR200,2013-01-30 17:33:00,
2013-01-30 09:34:00,52.5,39.8,30.33,WNW,292,1.1,1.3,62,0.00,-RMK Clear,SKC,0.00,WUHU216WMR200,2013-01-30 17:34:00,
2013-01-30 09:35:00,52.7,40.0,30.33,SSW,202,1.3,1.3,62,0.00,-RMK Clear,SKC,0.00,WUHU216WMR200,2013-01-30 17:35:00,
2013-01-30 09:36:00,52.7,40.0,30.33,SW,225,1.6,1.6,62,0.00,-RMK Clear,SKC,0.00,WUHU216WMR200,2013-01-30 17:36:00,
2013-01-30 09:37:00,52.7,39.6,30.33,West,270,0.9,1.6,61,0.00,-RMK Clear,SKC,0.00,WUHU216WMR200,2013-01-30 17:37:00,
2013-01-30 09:38:00,52.8,39.7,30.33,South,180,0.9,1.6,61,0.00,-RMK Clear,SKC,0.00,WUHU216WMR200,2013-01-30 17:38:00,
2013-01-30 09:39:00,53.0,39.9,30.33,SE,135,2.2,2.2,61,0.00,-RMK Clear,SKC,0.00,WUHU216WMR200,2013-01-30 17:39:00,
2013-01-30 09:40:00,53.2,40.1,30.33,SW,225,1.1,2.2,61,0.00,-RMK Clear,SKC,0.00,WUHU216WMR200,2013-01-30 17:40:00,
2013-01-30 09:41:00,53.4,40.3,30.33,WSW,247,1.6,2.2,61,0.00,-RMK Clear,SKC,0.00,WUHU216WMR200,2013-01-30 17:41:00,
2013-01-30 09:42:00,52.7,38.7,30.33,SSW,202,2.0,2.2,59,0.00,-RMK Clear,SKC,0.00,WUHU216WMR200,2013-01-30 17:42:00,
2013-01-30 09:43:00,52.5,39.4,30.33,ESE,112,0.0,2.2,61,0.00,-RMK Clear,SKC,0.00,WUHU216WMR200,2013-01-30 17:43:00,
2013-01-30 09:44:00,53.0,40.3,30.33,SE,135,1.6,2.2,62,0.00,-RMK Clear,SKC,0.00,WUHU216WMR200,2013-01-30 17:44:00,
2013-01-30 09:45:00,53.2,40.1,30.33,SSW,202,1.6,2.2,61,0.00,-RMK Clear,SKC,0.00,WUHU216WMR200,2013-01-30 17:45:00,
2013-01-30 09:46:00,53.2,40.1,30.33,SW,225,0.0,2.2,61,0.00,-RMK Clear,SKC,0.00,WUHU216WMR200,2013-01-30 17:46:00,
2013-01-30 09:47:00,53.2,40.1,30.33,ENE,67,0.0,2.2,61,0.00,-RMK Clear,SKC,0.00,WUHU216WMR200,2013-01-30 17:47:00,
2013-01-30 09:48:00,53.4,40.7,30.33,ENE,67,0.0,2.2,62,0.00,-RMK Clear,SKC,0.00,WUHU216WMR200,2013-01-30 17:48:00,
2013-01-30 09:49:00,53.6,40.5,30.33,ESE,112,0.0,2.2,61,0.00,-RMK Clear,SKC,0.00,WUHU216WMR200,2013-01-30 17:49:00,
2013-01-30 09:50:00,53.4,40.3,30.33,SSW,202,0.0,2.0,61,0.00,-RMK Clear,SKC,0.00,WUHU216WMR200,2013-01-30 17:50:00,
2013-01-30 09:51:00,53.6,40.9,30.33,SSW,202,1.1,2.0,62,0.00,-RMK Clear,SKC,0.00,WUHU216WMR200,2013-01-30 17:51:00,
2013-01-30 09:52:00,53.4,39.4,30.33,East,90,0.0,2.0,59,0.00,-RMK Clear,SKC,0.00,WUHU216WMR200,2013-01-30 17:52:00,
2013-01-30 09:53:00,53.4,40.3,30.33,South,180,1.1,1.6,61,0.00,-RMK Clear,SKC,0.00,WUHU216WMR200,2013-01-30 17:53:00,
2013-01-30 09:54:00,53.6,40.5,30.33,SE,135,1.6,1.6,61,0.00,-RMK Clear,SKC,0.00,WUHU216WMR200,2013-01-30 17:54:00,
2013-01-30 09:55:00,53.7,40.6,30.33,WSW,247,0.9,1.6,61,0.00,-RMK Clear,SKC,0.00,WUHU216WMR200,2013-01-30 17:55:00,
2013-01-30 09:56:00,53.7,40.6,30.33,South,180,0.0,1.6,61,0.00,-RMK Clear,SKC,0.00,WUHU216WMR200,2013-01-30 17:56:00,
2013-01-30 09:57:00,53.7,40.1,30.33,SSW,202,0.0,1.6,60,0.00,-RMK Clear,SKC,0.00,WUHU216WMR200,2013-01-30 17:57:00,
2013-01-30 09:58:00,54.1,40.9,30.33,West,270,0.0,1.6,61,0.00,-RMK Clear,SKC,0.00,WUHU216WMR200,2013-01-30 17:58:00,
2013-01-30 09:59:00,54.1,40.9,30.33,SSW,202,0.0,1.6,61,0.00,-RMK Clear,SKC,0.00,WUHU216WMR200,2013-01-30 17:59:00,
2013-01-30 10:00:00,54.1,40.9,30.33,SSW,202,0.0,1.6,61,0.00,-RMK Clear,SKC,0.00,WUHU216WMR200,2013-01-30 18:00:00,
2013-01-30 10:01:00,54.1,40.9,30.33,SSW,202,0.0,1.6,61,0.00,-RMK Clear,SKC,0.00,WUHU216WMR200,2013-01-30 18:01:00,
2013-01-30 10:02:00,54.3,41.6,30.33,ESE,112,0.0,1.6,62,0.00,-RMK Clear,SKC,0.00,WUHU216WMR200,2013-01-30 18:02:00,
2013-01-30 10:03:00,54.5,41.7,30.30,SSE,157,1.1,1.6,62,0.00,-RMK Clear,SKC,0.00,WUHU216WMR200,2013-01-30 18:03:00,
2013-01-30 10:04:00,54.5,41.7,30.30,ESE,112,0.9,1.6,62,0.00,-RMK Clear,SKC,0.00,WUHU216WMR200,2013-01-30 18:04:00,
2013-01-30 10:05:00,54.6,42.7,30.30,SW,225,1.6,1.6,64,0.00,-RMK Clear,SKC,0.00,WUHU216WMR200,2013-01-30 18:05:00,
2013-01-30 10:06:00,54.5,40.9,30.30,SSE,157,0.0,1.6,60,0.00,-RMK Clear,SKC,0.00,WUHU216WMR200,2013-01-30 18:06:00,
2013-01-30 10:07:00,54.5,40.4,30.30,SSW,202,1.3,1.6,59,0.00,-RMK Clear,SKC,0.00,WUHU216WMR200,2013-01-30 18:07:00,
2013-01-30 10:08:00,54.5,40.4,30.30,ESE,112,0.0,1.6,59,0.00,-RMK Clear,SKC,0.00,WUHU216WMR200,2013-01-30 18:08:00,
2013-01-30 10:09:00,54.6,40.5,30.30,SW,225,2.2,2.2,59,0.00,-RMK Clear,SKC,0.00,WUHU216WMR200,2013-01-30 18:09:00,
2013-01-30 10:10:00,54.6,40.1,30.30,NE,45,3.1,3.1,58,0.00,-RMK Clear,SKC,0.00,WUHU216WMR200,2013-01-30 18:10:00,
2013-01-30 10:11:00,54.5,40.0,30.30,WNW,292,2.2,3.1,58,0.00,-RMK Clear,SKC,0.00,WUHU216WMR200,2013-01-30 18:11:00,
2013-01-30 10:12:00,54.5,40.4,30.30,SSE,157,2.0,3.1,59,0.00,-RMK Clear,SKC,0.00,WUHU216WMR200,2013-01-30 18:12:00,
2013-01-30 10:13:00,54.6,40.1,30.30,NW,315,1.3,3.1,58,0.00,-RMK Clear,SKC,0.00,WUHU216WMR200,2013-01-30 18:13:00,
2013-01-30 10:14:00,54.6,40.1,30.30,SW,225,0.0,3.1,58,0.00,-RMK Clear,SKC,0.00,WUHU216WMR200,2013-01-30 18:14:00,
2013-01-30 10:15:00,54.8,41.2,30.30,ESE,112,0.0,3.1,60,0.00,-RMK Clear,SKC,0.00,WUHU216WMR200,2013-01-30 18:15:00,
2013-01-30 10:16:00,55.0,41.8,30.30,SSE,157,2.7,3.1,61,0.00,-RMK Clear,SKC,0.00,WUHU216WMR200,2013-01-30 18:16:00,
2013-01-30 10:17:00,55.0,41.8,30.30,West,270,0.9,3.1,61,0.00,-RMK Clear,SKC,0.00,WUHU216WMR200,2013-01-30 18:17:00,
2013-01-30 10:18:00,55.0,40.9,30.33,SSW,202,0.0,3.1,59,0.00,-RMK Clear,SKC,0.00,WUHU216WMR200,2013-01-30 18:18:00,
2013-01-30 10:19:00,55.0,41.4,30.33,NW,315,0.0,3.1,60,0.00,-RMK Clear,SKC,0.00,WUHU216WMR200,2013-01-30 18:19:00,
2013-01-30 10:20:00,55.2,41.1,30.33,North,0,0.0,3.1,59,0.00,-RMK Clear,SKC,0.00,WUHU216WMR200,2013-01-30 18:20:00,
2013-01-30 10:21:00,55.4,41.7,30.33,ENE,67,0.0,2.7,60,0.00,-RMK Clear,SKC,0.00,WUHU216WMR200,2013-01-30 18:21:00,
2013-01-30 10:22:00,55.4,41.7,30.33,East,90,1.1,2.7,60,0.00,-RMK Clear,SKC,0.00,WUHU216WMR200,2013-01-30 18:22:00,
2013-01-30 10:23:00,55.4,42.2,30.33,NE,45,0.0,2.7,61,0.00,-RMK Clear,SKC,0.00,WUHU216WMR200,2013-01-30 18:23:00,
2013-01-30 10:24:00,55.4,42.2,30.33,East,90,0.0,2.7,61,0.00,-RMK Clear,SKC,0.00,WUHU216WMR200,2013-01-30 18:24:00,
2013-01-30 10:25:00,55.4,42.2,30.33,ENE,67,0.0,2.7,61,0.00,-RMK Clear,SKC,0.00,WUHU216WMR200,2013-01-30 18:25:00,
2013-01-30 10:26:00,55.4,42.2,30.33,ESE,112,0.0,2.7,61,0.00,-RMK Clear,SKC,0.00,WUHU216WMR200,2013-01-30 18:26:00,
2013-01-30 10:27:00,55.5,42.3,30.33,NE,45,0.0,1.1,61,0.00,-RMK Clear,SKC,0.00,WUHU216WMR200,2013-01-30 18:27:00,
2013-01-30 10:28:00,55.5,42.3,30.33,ENE,67,1.6,1.6,61,0.00,-RMK Clear,SKC,0.00,WUHU216WMR200,2013-01-30 18:28:00,
2013-01-30 10:29:00,55.7,42.5,30.33,East,90,0.0,1.6,61,0.00,-RMK Clear,SKC,0.00,WUHU216WMR200,2013-01-30 18:29:00,
2013-01-30 10:30:00,55.7,42.5,30.33,East,90,0.0,1.6,61,0.00,-RMK Clear,SKC,0.00,WUHU216WMR200,2013-01-30 18:30:00,
2013-01-30 10:31:00,55.9,42.6,30.33,West,270,0.0,1.6,61,0.00,-RMK Clear,SKC,0.00,WUHU216WMR200,2013-01-30 18:31:00,
2013-01-30 10:32:00,55.9,42.2,30.33,North,0,0.0,1.6,60,0.00,-RMK Clear,SKC,0.00,WUHU216WMR200,2013-01-30 18:32:00,
2013-01-30 10:33:00,55.9,42.6,30.33,NE,45,0.0,1.6,61,0.00,-RMK Clear,SKC,0.00,WUHU216WMR200,2013-01-30 18:33:00,
2013-01-30 10:34:00,56.1,42.4,30.33,East,90,0.0,1.6,60,0.00,-RMK Clear,SKC,0.00,WUHU216WMR200,2013-01-30 18:34:00,
2013-01-30 10:35:00,56.3,42.6,30.33,East,90,0.0,1.6,60,0.00,-RMK Clear,SKC,0.00,WUHU216WMR200,2013-01-30 18:35:00,
2013-01-30 10:36:00,56.1,41.9,30.33,NE,45,0.0,1.6,59,0.00,-RMK Clear,SKC,0.00,WUHU216WMR200,2013-01-30 18:36:00,
2013-01-30 10:37:00,56.3,41.2,30.33,ENE,67,0.0,1.6,57,0.00,-RMK Clear,SKC,0.00,WUHU216WMR200,2013-01-30 18:37:00,
2013-01-30 10:38:00,56.3,42.1,30.33,SE,135,0.9,1.6,59,0.00,-RMK Clear,SKC,0.00,WUHU216WMR200,2013-01-30 18:38:00,
2013-01-30 10:39:00,56.4,42.7,30.33,South,180,1.1,1.1,60,0.00,-RMK Clear,SKC,0.00,WUHU216WMR200,2013-01-30 18:39:00,
2013-01-30 10:40:00,56.6,42.9,30.33,SW,225,1.1,1.1,60,0.00,-RMK Clear,SKC,0.00,WUHU216WMR200,2013-01-30 18:40:00,
2013-01-30 10:41:00,56.6,42.0,30.33,South,180,1.6,1.6,58,0.00,-RMK Clear,SKC,0.00,WUHU216WMR200,2013-01-30 18:41:00,
2013-01-30 10:42:00,56.6,42.4,30.33,SE,135,0.0,1.6,59,0.00,-RMK Clear,SKC,0.00,WUHU216WMR200,2013-01-30 18:42:00,
2013-01-30 10:43:00,56.6,42.4,30.33,SSW,202,0.0,1.6,59,0.00,-RMK Clear,SKC,0.00,WUHU216WMR200,2013-01-30 18:43:00,
2013-01-30 10:44:00,56.6,42.4,30.33,SE,135,0.0,1.6,59,0.00,-RMK Clear,SKC,0.00,WUHU216WMR200,2013-01-30 18:44:00,
2013-01-30 10:45:00,56.8,42.6,30.33,SW,225,0.0,1.6,59,0.00,-RMK Clear,SKC,0.00,WUHU216WMR200,2013-01-30 18:45:00,
2013-01-30 10:46:00,57.0,42.8,30.33,South,180,0.0,1.6,59,0.00,-RMK Clear,SKC,0.00,WUHU216WMR200,2013-01-30 18:46:00,
2013-01-30 10:47:00,57.0,41.9,30.33,SSE,157,1.3,1.6,57,0.00,-RMK Clear,SKC,0.00,WUHU216WMR200,2013-01-30 18:47:00,
2013-01-30 10:48:00,57.2,42.1,30.33,SSE,157,0.0,1.6,57,0.00,-RMK Clear,SKC,0.00,WUHU216WMR200,2013-01-30 18:48:00,
2013-01-30 10:49:00,57.2,42.5,30.33,SE,135,0.0,1.6,58,0.00,-RMK Clear,SKC,0.00,WUHU216WMR200,2013-01-30 18:49:00,
2013-01-30 10:50:00,57.2,41.1,30.33,South,180,0.0,1.6,55,0.00,-RMK Clear,SKC,0.00,WUHU216WMR200,2013-01-30 18:50:00,
2013-01-30 10:51:00,57.3,40.2,30.33,SW,225,1.3,1.6,53,0.00,-RMK Clear,SKC,0.00,WUHU216WMR200,2013-01-30 18:51:00,
2013-01-30 10:52:00,57.3,41.2,30.33,South,180,0.0,1.3,55,0.00,-RMK Clear,SKC,0.00,WUHU216WMR200,2013-01-30 18:52:00,
2013-01-30 10:53:00,57.3,39.2,30.33,ENE,67,0.0,1.3,51,0.00,-RMK Clear,SKC,0.00,WUHU216WMR200,2013-01-30 18:53:00,
2013-01-30 10:54:00,57.3,39.7,30.33,WSW,247,1.1,1.3,52,0.00,-RMK Clear,SKC,0.00,WUHU216WMR200,2013-01-30 18:54:00,
2013-01-30 10:55:00,57.3,40.2,30.33,SW,225,0.0,1.3,53,0.00,-RMK Clear,SKC,0.00,WUHU216WMR200,2013-01-30 18:55:00,
2013-01-30 10:56:00,57.3,40.7,30.33,ESE,112,0.0,1.3,54,0.00,-RMK Clear,SKC,0.00,WUHU216WMR200,2013-01-30 18:56:00,
2013-01-30 10:57:00,57.3,41.2,30.33,SSE,157,0.0,1.3,55,0.00,-RMK Clear,SKC,0.00,WUHU216WMR200,2013-01-30 18:57:00,
2013-01-30 10:58:00,57.5,41.9,30.33,South,180,1.3,1.3,56,0.00,-RMK Clear,SKC,0.00,WUHU216WMR200,2013-01-30 18:58:00,
2013-01-30 10:59:00,57.7,41.1,30.33,SSE,157,0.0,1.3,54,0.00,-RMK Clear,SKC,0.00,WUHU216WMR200,2013-01-30 18:59:00,
2013-01-30 11:00:00,57.9,41.3,30.33,South,180,0.9,1.3,54,0.00,-RMK Clear,SKC,0.00,WUHU216WMR200,2013-01-30 19:00:00,
2013-01-30 11:01:00,58.1,42.0,30.33,SSE,157,1.3,1.3,55,0.00,-RMK Clear,SKC,0.00,WUHU216WMR200,2013-01-30 19:01:00,
2013-01-30 11:02:00,58.2,42.5,30.33,ESE,112,0.0,1.3,56,0.00,-RMK Clear,SKC,0.00,WUHU216WMR200,2013-01-30 19:02:00,
2013-01-30 11:03:00,58.2,42.0,30.30,South,180,0.0,1.3,55,0.00,-RMK Clear,SKC,0.00,WUHU216WMR200,2013-01-30 19:03:00,
2013-01-30 11:04:00,58.4,42.2,30.30,ESE,112,1.3,1.3,55,0.00,-RMK Clear,SKC,0.00,WUHU216WMR200,2013-01-30 19:04:00,
2013-01-30 11:05:00,58.4,42.2,30.30,SSE,157,0.0,1.3,55,0.00,-RMK Clear,SKC,0.00,WUHU216WMR200,2013-01-30 19:05:00,
2013-01-30 11:06:00,58.6,42.4,30.30,NE,45,0.9,1.3,55,0.00,-RMK Clear,SKC,0.00,WUHU216WMR200,2013-01-30 19:06:00,
2013-01-30 11:07:00,58.6,42.4,30.30,South,180,1.1,1.3,55,0.00,-RMK Clear,SKC,0.00,WUHU216WMR200,2013-01-30 19:07:00,
2013-01-30 11:08:00,58.6,42.4,30.30,WSW,247,1.3,1.3,55,0.00,-RMK Clear,SKC,0.00,WUHU216WMR200,2013-01-30 19:08:00,
2013-01-30 11:09:00,58.6,41.4,30.30,North,0,2.5,2.5,53,0.00,-RMK Clear,SKC,0.00,WUHU216WMR200,2013-01-30 19:09:00,
2013-01-30 11:10:00,58.8,42.1,30.30,NNE,22,1.6,2.5,54,0.00,-RMK Clear,SKC,0.00,WUHU216WMR200,2013-01-30 19:10:00,
2013-01-30 11:11:00,59.0,43.3,30.30,SW,225,2.2,2.5,56,0.00,-RMK Clear,SKC,0.00,WUHU216WMR200,2013-01-30 19:11:00,
2013-01-30 11:12:00,59.1,42.9,30.30,ESE,112,1.3,2.5,55,0.00,-RMK Clear,SKC,0.00,WUHU216WMR200,2013-01-30 19:12:00,
2013-01-30 11:13:00,59.0,42.8,30.30,ESE,112,1.1,2.5,55,0.00,-RMK Clear,SKC,0.00,WUHU216WMR200,2013-01-30 19:13:00,
2013-01-30 11:14:00,59.0,42.8,30.30,SE,135,0.0,2.5,55,0.00,-RMK Clear,SKC,0.00,WUHU216WMR200,2013-01-30 19:14:00,
2013-01-30 11:15:00,59.0,43.3,30.30,East,90,0.0,2.5,56,0.00,-RMK Clear,SKC,0.00,WUHU216WMR200,2013-01-30 19:15:00,
2013-01-30 11:16:00,59.1,43.4,30.30,South,180,1.3,2.5,56,0.00,-RMK Clear,SKC,0.00,WUHU216WMR200,2013-01-30 19:16:00,
2013-01-30 11:17:00,59.3,43.6,30.30,SSW,202,0.9,2.5,56,0.00,-RMK Clear,SKC,0.00,WUHU216WMR200,2013-01-30 19:17:00,
2013-01-30 11:18:00,59.3,42.6,30.33,SSE,157,0.0,2.5,54,0.00,-RMK Clear,SKC,0.00,WUHU216WMR200,2013-01-30 19:18:00,
2013-01-30 11:19:00,59.3,43.1,30.33,ESE,112,1.1,2.5,55,0.00,-RMK Clear,SKC,0.00,WUHU216WMR200,2013-01-30 19:19:00,
2013-01-30 11:20:00,59.1,42.9,30.33,SSE,157,0.0,2.2,55,0.00,-RMK Clear,SKC,0.00,WUHU216WMR200,2013-01-30 19:20:00,
2013-01-30 11:21:00,59.1,41.9,30.33,East,90,0.0,2.2,53,0.00,-RMK Clear,SKC,0.00,WUHU216WMR200,2013-01-30 19:21:00,
2013-01-30 11:22:00,59.1,42.4,30.33,East,90,0.9,1.3,54,0.00,-RMK Clear,SKC,0.00,WUHU216WMR200,2013-01-30 19:22:00,
2013-01-30 11:23:00,59.3,43.1,30.33,SE,135,1.6,1.6,55,0.00,-RMK Clear,SKC,0.00,WUHU216WMR200,2013-01-30 19:23:00,
2013-01-30 11:24:00,59.3,43.1,30.33,North,0,0.0,1.6,55,0.00,-RMK Clear,SKC,0.00,WUHU216WMR200,2013-01-30 19:24:00,
2013-01-30 11:25:00,59.1,41.9,30.33,NE,45,0.0,1.6,53,0.00,-RMK Clear,SKC,0.00,WUHU216WMR200,2013-01-30 19:25:00,
2013-01-30 11:26:00,59.0,41.8,30.33,SW,225,0.0,1.6,53,0.00,-RMK Clear,SKC,0.00,WUHU216WMR200,2013-01-30 19:26:00,
2013-01-30 11:27:00,59.0,42.3,30.33,East,90,0.0,1.6,54,0.00,-RMK Clear,SKC,0.00,WUHU216WMR200,2013-01-30 19:27:00,
2013-01-30 11:28:00,59.0,42.3,30.33,East,90,0.0,1.6,54,0.00,-RMK Clear,SKC,0.00,WUHU216WMR200,2013-01-30 19:28:00,
2013-01-30 11:29:00,59.3,43.1,30.33,SSE,157,0.0,1.6,55,0.00,-RMK Clear,SKC,0.00,WUHU216WMR200,2013-01-30 19:29:00,
2013-01-30 11:30:00,59.3,42.6,30.33,East,90,0.0,1.6,54,0.00,-RMK Clear,SKC,0.00,WUHU216WMR200,2013-01-30 19:30:00,
2013-01-30 11:31:00,59.5,43.3,30.33,East,90,0.0,1.6,55,0.00,-RMK Clear,SKC,0.00,WUHU216WMR200,2013-01-30 19:31:00,
2013-01-30 11:32:00,59.5,43.3,30.33,East,90,0.0,1.6,55,0.00,-RMK Clear,SKC,0.00,WUHU216WMR200,2013-01-30 19:32:00,
2013-01-30 11:33:00,60.0,43.2,30.33,East,90,0.0,1.6,54,0.00,-RMK Clear,SKC,0.00,WUHU216WMR200,2013-01-30 19:33:00,
2013-01-30 11:34:00,60.2,42.9,30.33,East,90,0.0,0.0,53,0.00,-RMK Clear,SKC,0.00,WUHU216WMR200,2013-01-30 19:34:00,
2013-01-30 11:35:00,60.0,43.2,30.33,SSE,157,0.0,0.0,54,0.00,-RMK Clear,SKC,0.00,WUHU216WMR200,2013-01-30 19:35:00,
2013-01-30 11:36:00,59.9,42.1,30.33,ESE,112,0.0,0.0,52,0.00,-RMK Clear,SKC,0.00,WUHU216WMR200,2013-01-30 19:36:00,
2013-01-30 11:37:00,60.0,42.7,30.33,South,180,0.0,0.0,53,0.00,-RMK Clear,SKC,0.00,WUHU216WMR200,2013-01-30 19:37:00,
2013-01-30 11:38:00,60.0,41.7,30.33,SE,135,0.0,0.0,51,0.00,-RMK Clear,SKC,0.00,WUHU216WMR200,2013-01-30 19:38:00,
2013-01-30 11:39:00,60.0,42.2,30.33,NE,45,0.9,0.9,52,0.00,-RMK Clear,SKC,0.00,WUHU216WMR200,2013-01-30 19:39:00,
2013-01-30 11:40:00,60.0,42.2,30.33,NE,45,0.0,0.9,52,0.00,-RMK Clear,SKC,0.00,WUHU216WMR200,2013-01-30 19:40:00,
2013-01-30 11:41:00,60.2,42.9,30.33,West,270,0.0,0.9,53,0.00,-RMK Clear,SKC,0.00,WUHU216WMR200,2013-01-30 19:41:00,
2013-01-30 11:42:00,60.2,42.4,30.33,NNW,337,0.0,0.9,52,0.00,-RMK Clear,SKC,0.00,WUHU216WMR200,2013-01-30 19:42:00,
2013-01-30 11:43:00,60.0,42.2,30.33,NE,45,0.0,0.9,52,0.00,-RMK Clear,SKC,0.00,WUHU216WMR200,2013-01-30 19:43:00,
2013-01-30 11:44:00,60.4,43.1,30.33,East,90,1.3,1.3,53,0.00,-RMK Clear,SKC,0.00,WUHU216WMR200,2013-01-30 19:44:00,
2013-01-30 11:45:00,60.4,43.6,30.33,SE,135,0.0,1.3,54,0.00,-RMK Clear,SKC,0.00,WUHU216WMR200,2013-01-30 19:45:00,
2013-01-30 11:46:00,60.6,43.8,30.33,SE,135,1.6,1.6,54,0.00,-RMK Clear,SKC,0.00,WUHU216WMR200,2013-01-30 19:46:00,
2013-01-30 11:47:00,60.8,44.0,30.33,SE,135,0.0,1.6,54,0.00,-RMK Clear,SKC,0.00,WUHU216WMR200,2013-01-30 19:47:00,
2013-01-30 11:48:00,60.8,44.0,30.30,SSE,157,0.0,1.6,54,0.00,-RMK Clear,SKC,0.00,WUHU216WMR200,2013-01-30 19:48:00,
2013-01-30 11:49:00,60.9,43.6,30.30,SE,135,0.9,1.6,53,0.00,-RMK Clear,SKC,0.00,WUHU216WMR200,2013-01-30 19:49:00,
2013-01-30 11:50:00,60.9,43.6,30.30,SE,135,1.3,1.6,53,0.00,-RMK Clear,SKC,0.00,WUHU216WMR200,2013-01-30 19:50:00,
2013-01-30 11:51:00,61.1,44.3,30.30,East,90,0.0,1.6,54,0.00,-RMK Clear,SKC,0.00,WUHU216WMR200,2013-01-30 19:51:00,
2013-01-30 11:52:00,61.1,44.3,30.30,SE,135,1.6,1.6,54,0.00,-RMK Clear,SKC,0.00,WUHU216WMR200,2013-01-30 19:52:00,
2013-01-30 11:53:00,61.1,44.3,30.30,East,90,1.6,1.6,54,0.00,-RMK Clear,SKC,0.00,WUHU216WMR200,2013-01-30 19:53:00,
2013-01-30 11:54:00,61.3,44.5,30.30,ESE,112,0.0,1.6,54,0.00,-RMK Clear,SKC,0.00,WUHU216WMR200,2013-01-30 19:54:00,
2013-01-30 11:55:00,61.1,44.3,30.30,ESE,112,2.2,2.2,54,0.00,-RMK Clear,SKC,0.00,WUHU216WMR200,2013-01-30 19:55:00,
2013-01-30 11:56:00,61.3,44.5,30.30,SE,135,2.5,2.5,54,0.00,-RMK Clear,SKC,0.00,WUHU216WMR200,2013-01-30 19:56:00,
2013-01-30 11:57:00,61.3,43.9,30.30,WNW,292,0.0,2.5,53,0.00,-RMK Clear,SKC,0.00,WUHU216WMR200,2013-01-30 19:57:00,
2013-01-30 11:58:00,61.3,42.9,30.30,NE,45,1.1,2.5,51,0.00,-RMK Clear,SKC,0.00,WUHU216WMR200,2013-01-30 19:58:00,
2013-01-30 11:59:00,61.1,44.3,30.30,WNW,292,0.0,2.5,54,0.00,-RMK Clear,SKC,0.00,WUHU216WMR200,2013-01-30 19:59:00,
2013-01-30 12:00:00,60.9,44.1,30.30,North,0,0.0,2.5,54,0.00,-RMK Clear,SKC,0.00,WUHU216WMR200,2013-01-30 20:00:00,
2013-01-30 12:01:00,60.9,44.1,30.30,SE,135,0.0,2.5,54,0.00,-RMK Clear,SKC,0.00,WUHU216WMR200,2013-01-30 20:01:00,
2013-01-30 12:02:00,60.9,44.1,30.30,East,90,0.0,2.5,54,0.00,-RMK Clear,SKC,0.00,WUHU216WMR200,2013-01-30 20:02:00,
2013-01-30 12:03:00,60.9,44.1,30.30,ESE,112,0.0,2.5,54,0.00,-RMK Clear,SKC,0.00,WUHU216WMR200,2013-01-30 20:03:00,
2013-01-30 12:04:00,61.1,44.3,30.30,NE,45,0.0,2.5,54,0.00,-RMK Clear,SKC,0.00,WUHU216WMR200,2013-01-30 20:04:00,
2013-01-30 12:05:00,61.1,44.3,30.30,SE,135,0.0,2.5,54,0.00,-RMK Clear,SKC,0.00,WUHU216WMR200,2013-01-30 20:05:00,
2013-01-30 12:06:00,61.5,44.1,30.30,South,180,0.0,2.5,53,0.00,-RMK Clear,SKC,0.00,WUHU216WMR200,2013-01-30 20:06:00,
2013-01-30 12:07:00,61.7,44.3,30.30,SE,135,0.0,1.1,53,0.00,-RMK Clear,SKC,0.00,WUHU216WMR200,2013-01-30 20:07:00,
2013-01-30 12:08:00,61.7,44.3,30.30,SE,135,1.3,1.3,53,0.00,-RMK Clear,SKC,0.00,WUHU216WMR200,2013-01-30 20:08:00,
2013-01-30 12:09:00,61.7,43.8,30.30,SW,225,1.3,1.3,52,0.00,-RMK Clear,SKC,0.00,WUHU216WMR200,2013-01-30 20:09:00,
2013-01-30 12:10:00,61.7,42.7,30.30,SE,135,0.0,1.3,50,0.00,-RMK Clear,SKC,0.00,WUHU216WMR200,2013-01-30 20:10:00,
2013-01-30 12:11:00,61.7,43.3,30.30,ENE,67,0.0,1.3,51,0.00,-RMK Clear,SKC,0.00,WUHU216WMR200,2013-01-30 20:11:00,
2013-01-30 12:12:00,61.7,44.3,30.30,South,180,0.0,1.3,53,0.00,-RMK Clear,SKC,0.00,WUHU216WMR200,2013-01-30 20:12:00,
2013-01-30 12:13:00,62.0,45.1,30.30,SSW,202,0.0,1.3,54,0.00,-RMK Clear,SKC,0.00,WUHU216WMR200,2013-01-30 20:13:00,
2013-01-30 12:14:00,62.4,44.5,30.30,SW,225,1.6,1.6,52,0.00,-RMK Clear,SKC,0.00,WUHU216WMR200,2013-01-30 20:14:00,
2013-01-30 12:15:00,62.4,43.4,30.30,South,180,1.6,1.6,50,0.00,-RMK Clear,SKC,0.00,WUHU216WMR200,2013-01-30 20:15:00,
2013-01-30 12:16:00,62.4,43.9,30.30,ESE,112,2.0,2.0,51,0.00,-RMK Clear,SKC,0.00,WUHU216WMR200,2013-01-30 20:16:00,
2013-01-30 12:17:00,62.2,43.2,30.30,East,90,1.6,2.0,50,0.00,-RMK Clear,SKC,0.00,WUHU216WMR200,2013-01-30 20:17:00,
2013-01-30 12:18:00,62.2,43.7,30.27,SE,135,0.0,2.0,51,0.00,-RMK Clear,SKC,0.00,WUHU216WMR200,2013-01-30 20:18:00,
2013-01-30 12:19:00,62.4,44.5,30.27,SSW,202,1.1,2.0,52,0.00,-RMK Clear,SKC,0.00,WUHU216WMR200,2013-01-30 20:19:00,
2013-01-30 12:20:00,62.4,43.4,30.27,SSE,157,2.0,2.0,50,0.00,-RMK Clear,SKC,0.00,WUHU216WMR200,2013-01-30 20:20:00,
2013-01-30 12:21:00,62.4,43.4,30.27,ESE,112,1.3,2.0,50,0.00,-RMK Clear,SKC,0.00,WUHU216WMR200,2013-01-30 20:21:00,
2013-01-30 12:22:00,62.6,43.6,30.27,West,270,1.3,2.0,50,0.00,-RMK Clear,SKC,0.00,WUHU216WMR200,2013-01-30 20:22:00,
2013-01-30 12:23:00,62.6,43.6,30.27,SW,225,1.6,2.7,50,0.00,-RMK Clear,SKC,0.00,WUHU216WMR200,2013-01-30 20:23:00,
2013-01-30 12:24:00,62.6,43.0,30.27,WSW,247,0.0,2.7,49,0.00,-RMK Clear,SKC,0.00,WUHU216WMR200,2013-01-30 20:24:00,
2013-01-30 12:25:00,62.6,42.5,30.27,South,180,0.0,2.7,48,0.00,-RMK Clear,SKC,0.00,WUHU216WMR200,2013-01-30 20:25:00,
2013-01-30 12:26:00,62.6,42.5,30.27,SSW,202,0.0,2.7,48,0.00,-RMK Clear,SKC,0.00,WUHU216WMR200,2013-01-30 20:26:00,
2013-01-30 12:27:00,62.4,43.4,30.27,South,180,2.2,2.7,50,0.00,-RMK Clear,SKC,0.00,WUHU216WMR200,2013-01-30 20:27:00,
2013-01-30 12:28:00,62.7,43.1,30.27,SSW,202,1.6,2.7,49,0.00,-RMK Clear,SKC,0.00,WUHU216WMR200,2013-01-30 20:28:00,
2013-01-30 12:29:00,62.7,42.0,30.27,North,0,2.5,2.7,47,0.00,-RMK Clear,SKC,0.00,WUHU216WMR200,2013-01-30 20:29:00,
2013-01-30 12:30:00,62.7,43.1,30.27,SSE,157,1.3,2.7,49,0.00,-RMK Clear,SKC,0.00,WUHU216WMR200,2013-01-30 20:30:00,
2013-01-30 12:31:00,62.9,43.9,30.27,ESE,112,1.3,2.7,50,0.00,-RMK Clear,SKC,0.00,WUHU216WMR200,2013-01-30 20:31:00,
2013-01-30 12:32:00,62.9,43.3,30.30,East,90,1.6,2.7,49,0.00,-RMK Clear,SKC,0.00,WUHU216WMR200,2013-01-30 20:32:00,
2013-01-30 12:33:00,62.9,42.7,30.30,SSW,202,1.3,2.5,48,0.00,-RMK Clear,SKC,0.00,WUHU216WMR200,2013-01-30 20:33:00,
2013-01-30 12:34:00,62.9,43.3,30.30,South,180,0.0,2.5,49,0.00,-RMK Clear,SKC,0.00,WUHU216WMR200,2013-01-30 20:34:00,
2013-01-30 12:35:00,62.9,43.3,30.30,SSW,202,0.0,2.5,49,0.00,-RMK Clear,SKC,0.00,WUHU216WMR200,2013-01-30 20:35:00,
2013-01-30 12:36:00,63.3,44.2,30.30,South,180,2.2,2.5,50,0.00,-RMK Clear,SKC,0.00,WUHU216WMR200,2013-01-30 20:36:00,
2013-01-30 12:37:00,63.5,43.9,30.30,SE,135,0.0,2.5,49,0.00,-RMK Clear,SKC,0.00,WUHU216WMR200,2013-01-30 20:37:00,
2013-01-30 12:38:00,63.5,44.4,30.30,East,90,0.0,2.5,50,0.00,-RMK Clear,SKC,0.00,WUHU216WMR200,2013-01-30 20:38:00,
2013-01-30 12:39:00,63.5,44.4,30.30,SSE,157,0.0,2.5,50,0.00,-RMK Clear,SKC,0.00,WUHU216WMR200,2013-01-30 20:39:00,
2013-01-30 12:40:00,63.6,44.5,30.30,NNW,337,1.6,2.2,50,0.00,-RMK Clear,SKC,0.00,WUHU216WMR200,2013-01-30 20:40:00,
2013-01-30 12:41:00,63.6,44.5,30.30,West,270,0.0,2.2,50,0.00,-RMK Clear,SKC,0.00,WUHU216WMR200,2013-01-30 20:41:00,
2013-01-30 12:42:00,63.5,43.3,30.30,SSW,202,1.3,2.2,48,0.00,-RMK Clear,SKC,0.00,WUHU216WMR200,2013-01-30 20:42:00,
2013-01-30 12:43:00,63.5,43.9,30.30,NE,45,2.5,2.5,49,0.00,-RMK Clear,SKC,0.00,WUHU216WMR200,2013-01-30 20:43:00,
2013-01-30 12:44:00,63.5,42.7,30.30,West,270,1.6,2.5,47,0.00,-RMK Clear,SKC,0.00,WUHU216WMR200,2013-01-30 20:44:00,
2013-01-30 12:45:00,63.3,43.1,30.30,North,0,0.0,2.5,48,0.00,-RMK Clear,SKC,0.00,WUHU216WMR200,2013-01-30 20:45:00,
2013-01-30 12:46:00,63.5,43.9,30.30,West,270,1.6,2.5,49,0.00,-RMK Clear,SKC,0.00,WUHU216WMR200,2013-01-30 20:46:00,
2013-01-30 12:47:00,63.5,43.3,30.27,SSW,202,1.1,2.5,48,0.00,-RMK Clear,SKC,0.00,WUHU216WMR200,2013-01-30 20:47:00,
2013-01-30 12:48:00,63.5,42.7,30.27,SE,135,0.0,2.5,47,0.00,-RMK Clear,SKC,0.00,WUHU216WMR200,2013-01-30 20:48:00,
2013-01-30 12:49:00,63.5,43.3,30.27,SW,225,2.0,2.5,48,0.00,-RMK Clear,SKC,0.00,WUHU216WMR200,2013-01-30 20:49:00,
2013-01-30 12:50:00,63.6,42.8,30.27,West,270,4.9,4.9,47,0.00,-RMK Clear,SKC,0.00,WUHU216WMR200,2013-01-30 20:50:00,
2013-01-30 12:51:00,63.6,42.8,30.27,NNW,337,2.7,4.9,47,0.00,-RMK Clear,SKC,0.00,WUHU216WMR200,2013-01-30 20:51:00,
2013-01-30 12:52:00,63.6,42.2,30.27,West,270,2.7,4.9,46,0.00,-RMK Clear,SKC,0.00,WUHU216WMR200,2013-01-30 20:52:00,
2013-01-30 12:53:00,63.8,43.0,30.27,North,0,2.2,4.9,47,0.00,-RMK Clear,SKC,0.00,WUHU216WMR200,2013-01-30 20:53:00,
2013-01-30 12:54:00,63.8,43.0,30.27,SE,135,0.9,4.9,47,0.00,-RMK Clear,SKC,0.00,WUHU216WMR200,2013-01-30 20:54:00,
2013-01-30 12:55:00,64.0,43.2,30.27,WNW,292,3.4,4.9,47,0.00,-RMK Clear,SKC,0.00,WUHU216WMR200,2013-01-30 20:55:00,
2013-01-30 12:56:00,64.0,43.2,30.27,SW,225,1.1,4.9,47,0.00,-RMK Clear,SKC,0.00,WUHU216WMR200,2013-01-30 20:56:00,
2013-01-30 12:57:00,64.2,43.4,30.27,NW,315,6.0,6.0,47,0.00,-RMK Clear,SKC,0.00,WUHU216WMR200,2013-01-30 20:57:00,
2013-01-30 12:58:00,64.0,41.4,30.27,West,270,4.9,6.0,44,0.00,-RMK Clear,SKC,0.00,WUHU216WMR200,2013-01-30 20:58:00,
2013-01-30 12:59:00,64.0,42.0,30.27,NW,315,4.3,6.0,45,0.00,-RMK Clear,SKC,0.00,WUHU216WMR200,2013-01-30 20:59:00,
2013-01-30 13:00:00,63.8,41.8,30.27,NW,315,3.6,6.0,45,0.00,-RMK Clear,SKC,0.00,WUHU216WMR200,2013-01-30 21:00:00,
2013-01-30 13:01:00,64.0,42.0,30.27,WSW,247,2.9,6.0,45,0.00,-RMK Clear,SKC,0.00,WUHU216WMR200,2013-01-30 21:01:00,
2013-01-30 13:02:00,64.2,42.8,30.27,WNW,292,2.9,6.0,46,0.00,-RMK Clear,SKC,0.00,WUHU216WMR200,2013-01-30 21:02:00,
2013-01-30 13:03:00,64.2,42.8,30.27,NNW,337,2.0,6.0,46,0.00,-RMK Clear,SKC,0.00,WUHU216WMR200,2013-01-30 21:03:00,
2013-01-30 13:04:00,64.2,41.6,30.27,East,90,0.0,6.0,44,0.00,-RMK Clear,SKC,0.00,WUHU216WMR200,2013-01-30 21:04:00,
2013-01-30 13:06:00,64.2,41.6,30.27,East,90,0.0,6.0,44,0.00,-RMK Clear,SKC,0.00,WUHU216WMR200,2013-01-30 21:06:00,
2013-01-30 13:07:00,64.2,42.8,30.27,NW,315,0.0,6.0,46,0.00,-RMK Clear,SKC,0.00,WUHU216WMR200,2013-01-30 21:07:00,
2013-01-30 13:08:00,64.4,43.6,30.27,SE,135,2.0,4.9,47,0.00,-RMK Clear,SKC,0.00,WUHU216WMR200,2013-01-30 21:08:00,
2013-01-30 13:09:00,64.4,43.0,30.27,SE,135,0.0,4.3,46,0.00,-RMK Clear,SKC,0.00,WUHU216WMR200,2013-01-30 21:09:00,
2013-01-30 13:10:00,64.2,41.6,30.27,SW,225,2.5,3.6,44,0.00,-RMK Clear,SKC,0.00,WUHU216WMR200,2013-01-30 21:10:00,
2013-01-30 13:11:00,64.2,42.2,30.27,SE,135,2.0,2.9,45,0.00,-RMK Clear,SKC,0.00,WUHU216WMR200,2013-01-30 21:11:00,
2013-01-30 13:12:00,64.4,42.4,30.27,North,0,2.5,2.9,45,0.00,-RMK Clear,SKC,0.00,WUHU216WMR200,2013-01-30 21:12:00,
2013-01-30 13:13:00,64.4,41.2,30.27,West,270,2.2,2.5,43,0.00,-RMK Clear,SKC,0.00,WUHU216WMR200,2013-01-30 21:13:00,
2013-01-30 13:14:00,64.5,43.1,30.27,WNW,292,2.0,2.5,46,0.00,-RMK Clear,SKC,0.00,WUHU216WMR200,2013-01-30 21:14:00,
2013-01-30 13:15:00,64.7,43.2,30.27,WNW,292,3.6,3.6,46,0.00,-RMK Clear,SKC,0.00,WUHU216WMR200,2013-01-30 21:15:00,
2013-01-30 13:16:00,64.7,43.2,30.27,WNW,292,4.0,4.0,46,0.00,-RMK Clear,SKC,0.00,WUHU216WMR200,2013-01-30 21:16:00,
2013-01-30 13:17:00,64.5,43.1,30.27,NE,45,1.3,4.0,46,0.00,-RMK Clear,SKC,0.00,WUHU216WMR200,2013-01-30 21:17:00,
2013-01-30 13:18:00,64.5,43.1,30.24,WNW,292,1.6,4.0,46,0.00,-RMK Clear,SKC,0.00,WUHU216WMR200,2013-01-30 21:18:00,
2013-01-30 13:19:00,64.5,41.9,30.24,West,270,4.3,4.3,44,0.00,-RMK Clear,SKC,0.00,WUHU216WMR200,2013-01-30 21:19:00,
2013-01-30 13:20:00,64.5,42.5,30.24,NW,315,1.6,4.3,45,0.00,-RMK Clear,SKC,0.00,WUHU216WMR200,2013-01-30 21:20:00,
2013-01-30 13:21:00,64.7,43.2,30.24,NW,315,2.2,4.3,46,0.00,-RMK Clear,SKC,0.00,WUHU216WMR200,2013-01-30 21:21:00,
2013-01-30 13:22:00,64.7,43.2,30.24,WNW,292,4.0,4.3,46,0.00,-RMK Clear,SKC,0.00,WUHU216WMR200,2013-01-30 21:22:00,
2013-01-30 13:23:00,64.7,43.2,30.24,NW,315,2.7,4.3,46,0.00,-RMK Clear,SKC,0.00,WUHU216WMR200,2013-01-30 21:23:00,
2013-01-30 13:24:00,64.4,41.2,30.24,South,180,0.0,4.3,43,0.00,-RMK Clear,SKC,0.00,WUHU216WMR200,2013-01-30 21:24:00,
2013-01-30 13:25:00,64.4,41.2,30.24,SSW,202,1.1,4.3,43,0.00,-RMK Clear,SKC,0.00,WUHU216WMR200,2013-01-30 21:25:00,
2013-01-30 13:26:00,64.7,43.2,30.24,WSW,247,2.2,4.3,46,0.00,-RMK Clear,SKC,0.00,WUHU216WMR200,2013-01-30 21:26:00,
2013-01-30 13:27:00,64.7,42.0,30.24,West,270,2.5,4.3,44,0.00,-RMK Clear,SKC,0.00,WUHU216WMR200,2013-01-30 21:27:00,
2013-01-30 13:28:00,64.7,42.0,30.24,NW,315,2.0,4.3,44,0.00,-RMK Clear,SKC,0.00,WUHU216WMR200,2013-01-30 21:28:00,
2013-01-30 13:29:00,64.9,42.8,30.24,West,270,2.0,4.3,45,0.00,-RMK Clear,SKC,0.00,WUHU216WMR200,2013-01-30 21:29:00,
2013-01-30 13:30:00,64.9,42.8,30.24,North,0,0.0,4.0,45,0.00,-RMK Clear,SKC,0.00,WUHU216WMR200,2013-01-30 21:30:00,
2013-01-30 13:31:00,65.1,43.0,30.24,West,270,0.0,4.0,45,0.00,-RMK Clear,SKC,0.00,WUHU216WMR200,2013-01-30 21:31:00,
2013-01-30 13:32:00,65.1,42.4,30.24,SW,225,1.6,4.0,44,0.00,-RMK Clear,SKC,0.00,WUHU216WMR200,2013-01-30 21:32:00,
2013-01-30 13:33:00,65.3,43.8,30.24,ENE,67,0.9,2.7,46,0.00,-RMK Clear,SKC,0.00,WUHU216WMR200,2013-01-30 21:33:00,
2013-01-30 13:34:00,65.1,43.0,30.24,NNW,337,4.0,4.0,45,0.00,-RMK Clear,SKC,0.00,WUHU216WMR200,2013-01-30 21:34:00,
2013-01-30 13:35:00,65.1,42.4,30.24,West,270,4.0,4.0,44,0.00,-RMK Clear,SKC,0.00,WUHU216WMR200,2013-01-30 21:35:00,
2013-01-30 13:36:00,65.1,42.4,30.24,NW,315,2.5,4.0,44,0.00,-RMK Clear,SKC,0.00,WUHU216WMR200,2013-01-30 21:36:00,
2013-01-30 13:37:00,64.9,42.8,30.24,West,270,0.0,4.0,45,0.00,-RMK Clear,SKC,0.00,WUHU216WMR200,2013-01-30 21:37:00,
2013-01-30 13:38:00,65.1,43.0,30.24,SW,225,4.0,4.0,45,0.00,-RMK Clear,SKC,0.00,WUHU216WMR200,2013-01-30 21:38:00,
2013-01-30 13:39:00,65.1,43.6,30.24,West,270,0.0,4.0,46,0.00,-RMK Clear,SKC,0.00,WUHU216WMR200,2013-01-30 21:39:00,
2013-01-30 13:40:00,65.3,43.2,30.24,SSE,157,2.5,4.0,45,0.00,-RMK Clear,SKC,0.00,WUHU216WMR200,2013-01-30 21:40:00,
2013-01-30 13:41:00,65.4,43.3,30.24,SSW,202,3.4,4.0,45,0.00,-RMK Clear,SKC,0.00,WUHU216WMR200,2013-01-30 21:41:00,
2013-01-30 13:42:00,65.4,43.3,30.24,SSW,202,2.5,4.0,45,0.00,-RMK Clear,SKC,0.00,WUHU216WMR200,2013-01-30 21:42:00,
2013-01-30 13:43:00,65.4,42.7,30.24,NW,315,0.0,4.0,44,0.00,-RMK Clear,SKC,0.00,WUHU216WMR200,2013-01-30 21:43:00,
2013-01-30 13:44:00,65.3,42.0,30.24,NNW,337,2.5,4.0,43,0.00,-RMK Clear,SKC,0.00,WUHU216WMR200,2013-01-30 21:44:00,
2013-01-30 13:45:00,65.1,41.8,30.24,NNW,337,3.1,4.0,43,0.00,-RMK Clear,SKC,0.00,WUHU216WMR200,2013-01-30 21:45:00,
2013-01-30 13:46:00,65.1,43.0,30.24,NW,315,2.5,4.0,45,0.00,-RMK Clear,SKC,0.00,WUHU216WMR200,2013-01-30 21:46:00,
2013-01-30 13:47:00,65.1,41.8,30.24,NW,315,6.3,6.3,43,0.00,-RMK Clear,SKC,0.00,WUHU216WMR200,2013-01-30 21:47:00,
2013-01-30 13:48:00,65.1,43.0,30.24,NW,315,5.8,6.3,45,0.00,-RMK Clear,SKC,0.00,WUHU216WMR200,2013-01-30 21:48:00,
2013-01-30 13:49:00,65.1,43.0,30.24,NW,315,7.6,7.6,45,0.00,-RMK Clear,SKC,0.00,WUHU216WMR200,2013-01-30 21:49:00,
2013-01-30 13:50:00,64.9,42.8,30.24,East,90,2.0,7.6,45,0.00,-RMK Clear,SKC,0.00,WUHU216WMR200,2013-01-30 21:50:00,
2013-01-30 13:51:00,64.9,42.8,30.24,NW,315,0.0,7.6,45,0.00,-RMK Clear,SKC,0.00,WUHU216WMR200,2013-01-30 21:51:00,
2013-01-30 13:52:00,65.1,42.4,30.24,North,0,6.3,7.6,44,0.00,-RMK Clear,SKC,0.00,WUHU216WMR200,2013-01-30 21:52:00,
2013-01-30 13:53:00,65.1,43.0,30.24,NNW,337,5.6,7.6,45,0.00,-RMK Clear,SKC,0.00,WUHU216WMR200,2013-01-30 21:53:00,
2013-01-30 13:54:00,64.9,42.8,30.24,WNW,292,2.9,7.6,45,0.00,-RMK Clear,SKC,0.00,WUHU216WMR200,2013-01-30 21:54:00,
2013-01-30 13:55:00,64.9,42.2,30.24,WSW,247,4.3,7.6,44,0.00,-RMK Clear,SKC,0.00,WUHU216WMR200,2013-01-30 21:55:00,
2013-01-30 13:56:00,64.9,41.0,30.24,NNW,337,2.7,7.6,42,0.00,-RMK Clear,SKC,0.00,WUHU216WMR200,2013-01-30 21:56:00,
2013-01-30 13:57:00,64.9,41.0,30.24,NW,315,3.4,7.6,42,0.00,-RMK Clear,SKC,0.00,WUHU216WMR200,2013-01-30 21:57:00,
2013-01-30 13:58:00,64.9,41.6,30.24,West,270,0.9,7.6,43,0.00,-RMK Clear,SKC,0.00,WUHU216WMR200,2013-01-30 21:58:00,
2013-01-30 13:59:00,65.1,41.8,30.24,NW,315,4.9,7.6,43,0.00,-RMK Clear,SKC,0.00,WUHU216WMR200,2013-01-30 21:59:00,
2013-01-30 14:00:00,65.1,42.4,30.24,NW,315,8.1,8.1,44,0.00,-RMK Clear,SKC,0.00,WUHU216WMR200,2013-01-30 22:00:00,
2013-01-30 14:01:00,65.1,41.8,30.24,WNW,292,3.8,8.1,43,0.00,-RMK Clear,SKC,0.00,WUHU216WMR200,2013-01-30 22:01:00,
2013-01-30 14:02:00,64.9,41.6,30.24,SSW,202,0.0,8.1,43,0.00,-RMK Clear,SKC,0.00,WUHU216WMR200,2013-01-30 22:02:00,
2013-01-30 14:03:00,64.9,42.2,30.24,SE,135,3.1,8.1,44,0.00,-RMK Clear,SKC,0.00,WUHU216WMR200,2013-01-30 22:03:00,
2013-01-30 14:05:00,65.1,41.8,30.24,NW,315,3.6,3.6,43,0.00,-RMK Clear,SKC,0.00,WUHU216WMR200,2013-01-30 22:05:00,
2013-01-30 14:06:00,65.3,41.3,30.24,WSW,247,5.8,6.0,42,0.00,-RMK Clear,SKC,0.00,WUHU216WMR200,2013-01-30 22:06:00,
2013-01-30 14:07:00,65.3,41.3,30.24,WNW,292,3.6,6.0,42,0.00,-RMK Clear,SKC,0.00,WUHU216WMR200,2013-01-30 22:07:00,
2013-01-30 14:08:00,65.3,41.3,30.24,WNW,292,5.8,8.1,42,0.00,-RMK Clear,SKC,0.00,WUHU216WMR200,2013-01-30 22:08:00,
2013-01-30 14:13:00,65.3,41.4,30.24,North,0,6.5,7.8,42,0.00,-RMK Clear,SKC,0.00,WUHU216WMR200,2013-01-30 22:13:00,
2013-01-30 14:18:00,65.4,40.7,30.21,WSW,247,8.5,8.5,41,0.00,-RMK Clear,SKC,0.00,WUHU216WMR200,2013-01-30 22:18:00,
2013-01-30 14:23:00,65.4,41.4,30.21,WSW,247,3.6,8.5,42,0.00,-RMK Clear,SKC,0.00,WUHU216WMR200,2013-01-30 22:23:00,
2013-01-30 14:28:00,65.5,40.8,30.21,West,270,1.3,8.1,41,0.00,-RMK Clear,SKC,0.00,WUHU216WMR200,2013-01-30 22:28:00,
2013-01-30 14:33:00,65.6,40.2,30.21,West,270,3.1,6.5,40,0.00,-RMK Clear,SKC,0.00,WUHU216WMR200,2013-01-30 22:33:00,
2013-01-30 14:38:00,65.9,39.7,30.21,SW,225,3.8,6.5,39,0.00,-RMK Clear,SKC,0.00,WUHU216WMR200,2013-01-30 22:38:00,
2013-01-30 14:43:00,65.9,41.1,30.21,West,270,2.9,6.0,40,0.00,-RMK Clear,SKC,0.00,WUHU216WMR200,2013-01-30 22:43:00,
2013-01-30 14:48:00,65.7,40.2,30.21,NW,315,2.5,8.5,39,0.00,-RMK Clear,SKC,0.00,WUHU216WMR200,2013-01-30 22:48:00,
2013-01-30 14:53:00,65.8,40.2,30.21,NW,315,7.6,8.5,39,0.00,-RMK Clear,SKC,0.00,WUHU216WMR200,2013-01-30 22:53:00,
2013-01-30 14:58:00,65.8,39.5,30.21,WNW,292,3.4,7.6,38,0.00,-RMK Clear,SKC,0.00,WUHU216WMR200,2013-01-30 22:58:00,
2013-01-30 15:03:00,66.0,39.6,30.21,WNW,292,4.0,7.6,38,0.00,-RMK Clear,SKC,0.00,WUHU216WMR200,2013-01-30 23:03:00,
2013-01-30 15:08:00,66.1,40.3,30.21,WSW,247,4.9,7.2,39,0.00,-RMK Clear,SKC,0.00,WUHU216WMR200,2013-01-30 23:08:00,
2013-01-30 15:13:00,65.8,40.1,30.21,WNW,292,2.7,8.1,39,0.00,-RMK Clear,SKC,0.00,WUHU216WMR200,2013-01-30 23:13:00,
2013-01-30 15:18:00,65.7,39.2,30.21,West,270,3.4,8.1,38,0.00,-RMK Clear,SKC,0.00,WUHU216WMR200,2013-01-30 23:18:00,
2013-01-30 15:23:00,66.0,40.1,30.21,NW,315,4.9,6.3,39,0.00,-RMK Clear,SKC,0.00,WUHU216WMR200,2013-01-30 23:23:00,
2013-01-30 15:28:00,65.8,39.3,30.21,West,270,3.1,7.4,38,0.00,-RMK Clear,SKC,0.00,WUHU216WMR200,2013-01-30 23:28:00,
2013-01-30 15:33:00,65.9,39.3,30.21,WSW,247,4.9,7.6,38,0.00,-RMK Clear,SKC,0.00,WUHU216WMR200,2013-01-30 23:33:00,
2013-01-30 15:38:00,65.8,39.8,30.21,West,270,6.3,7.6,39,0.00,-RMK Clear,SKC,0.00,WUHU216WMR200,2013-01-30 23:38:00,
2013-01-30 15:43:00,65.9,39.9,30.21,North,0,2.5,6.3,39,0.00,-RMK Clear,SKC,0.00,WUHU216WMR200,2013-01-30 23:43:00,
2013-01-30 15:48:00,65.9,40.6,30.21,West,270,4.3,6.3,40,0.00,-RMK Clear,SKC,0.00,WUHU216WMR200,2013-01-30 23:48:00,
2013-01-30 15:53:00,65.8,40.4,30.21,WSW,247,0.9,7.4,40,0.00,-RMK Clear,SKC,0.00,WUHU216WMR200,2013-01-30 23:53:00,
2013-01-30 15:58:00,65.6,38.8,30.21,WNW,292,6.7,7.4,38,0.00,-RMK Clear,SKC,0.00,WUHU216WMR200,2013-01-30 23:58:00,
2013-01-30 16:03:00,65.7,40.2,30.21,NW,315,3.4,6.7,39,0.00,-RMK Clear,SKC,0.00,WUHU216WMR200,2013-01-31 00:03:00,
2013-01-30 16:08:00,65.6,40.0,30.21,NW,315,2.5,6.5,39,0.00,-RMK Clear,SKC,0.00,WUHU216WMR200,2013-01-31 00:08:00,
2013-01-30 16:13:00,65.5,39.2,30.21,South,180,4.7,5.8,38,0.00,-RMK Clear,SKC,0.00,WUHU216WMR200,2013-01-31 00:13:00,
2013-01-30 16:18:00,65.4,39.0,30.21,SW,225,1.1,5.8,38,0.00,-RMK Clear,SKC,0.00,WUHU216WMR200,2013-01-31 00:18:00,
2013-01-30 16:23:00,65.3,39.7,30.21,NW,315,1.1,4.7,39,0.00,-RMK Clear,SKC,0.00,WUHU216WMR200,2013-01-31 00:23:00,
2013-01-30 16:28:00,65.2,38.8,30.21,WNW,292,3.1,4.7,38,0.00,-RMK Clear,SKC,0.00,WUHU216WMR200,2013-01-31 00:28:00,
2013-01-30 16:29:00,66.0,40.1,30.21,WNW,292,3.8,4.3,39,0.00,-RMK Clear,SKC,0.00,WUHU216WMR200,2013-01-31 00:29:00,
2013-01-30 16:30:00,66.0,40.1,30.21,NW,315,3.1,4.3,39,0.00,-RMK Clear,SKC,0.00,WUHU216WMR200,2013-01-31 00:30:00,
2013-01-30 16:31:00,65.8,39.9,30.21,SW,225,3.1,4.3,39,0.00,-RMK Clear,SKC,0.00,WUHU216WMR200,2013-01-31 00:31:00,
2013-01-30 16:32:00,65.8,40.6,30.21,WSW,247,2.0,4.3,40,0.00,-RMK Clear,SKC,0.00,WUHU216WMR200,2013-01-31 00:32:00,
2013-01-30 16:33:00,65.8,39.9,30.21,NNW,337,1.6,4.3,39,0.00,-RMK Clear,SKC,0.00,WUHU216WMR200,2013-01-31 00:33:00,
2013-01-30 16:34:00,65.8,40.6,30.21,WNW,292,2.5,4.3,40,0.00,-RMK Clear,SKC,0.00,WUHU216WMR200,2013-01-31 00:34:00,
2013-01-30 16:35:00,65.6,41.0,30.21,WNW,292,2.2,4.3,41,0.00,-RMK Clear,SKC,0.00,WUHU216WMR200,2013-01-31 00:35:00,
2013-01-30 16:36:00,65.6,41.0,30.21,North,0,2.9,4.3,41,0.00,-RMK Clear,SKC,0.00,WUHU216WMR200,2013-01-31 00:36:00,
2013-01-30 16:37:00,65.6,41.0,30.21,North,0,2.2,4.0,41,0.00,-RMK Clear,SKC,0.00,WUHU216WMR200,2013-01-31 00:37:00,
2013-01-30 16:38:00,65.6,40.4,30.21,East,90,2.7,3.8,40,0.00,-RMK Clear,SKC,0.00,WUHU216WMR200,2013-01-31 00:38:00,
2013-01-30 16:39:00,65.4,40.2,30.21,NW,315,2.9,3.8,40,0.00,-RMK Clear,SKC,0.00,WUHU216WMR200,2013-01-31 00:39:00,
2013-01-30 16:40:00,65.4,40.9,30.21,WNW,292,1.6,3.1,41,0.00,-RMK Clear,SKC,0.00,WUHU216WMR200,2013-01-31 00:40:00,
2013-01-30 16:41:00,65.4,40.2,30.21,SW,225,3.1,3.1,40,0.00,-RMK Clear,SKC,0.00,WUHU216WMR200,2013-01-31 00:41:00,
2013-01-30 16:42:00,65.3,40.1,30.21,East,90,0.9,3.1,40,0.00,-RMK Clear,SKC,0.00,WUHU216WMR200,2013-01-31 00:42:00,
2013-01-30 16:43:00,65.3,40.8,30.21,SW,225,1.1,3.1,41,0.00,-RMK Clear,SKC,0.00,WUHU216WMR200,2013-01-31 00:43:00,
2013-01-30 16:44:00,65.1,40.6,30.21,WSW,247,1.6,3.1,41,0.00,-RMK Clear,SKC,0.00,WUHU216WMR200,2013-01-31 00:44:00,
2013-01-30 16:45:00,65.1,40.6,30.21,SW,225,0.9,3.1,41,0.00,-RMK Clear,SKC,0.00,WUHU216WMR200,2013-01-31 00:45:00,
2013-01-30 16:46:00,64.9,39.8,30.21,SSE,157,2.2,3.1,40,0.00,-RMK Clear,SKC,0.00,WUHU216WMR200,2013-01-31 00:46:00,
2013-01-30 16:47:00,64.9,39.8,30.21,South,180,2.5,3.1,40,0.00,-RMK Clear,SKC,0.00,WUHU216WMR200,2013-01-31 00:47:00,
2013-01-30 16:48:00,64.9,39.8,30.21,WNW,292,3.1,3.1,40,0.00,-RMK Clear,SKC,0.00,WUHU216WMR200,2013-01-31 00:48:00,
2013-01-30 16:49:00,64.9,40.4,30.21,WSW,247,0.0,3.1,41,0.00,-RMK Clear,SKC,0.00,WUHU216WMR200,2013-01-31 00:49:00,
2013-01-30 16:50:00,64.7,40.2,30.21,SW,225,1.3,3.1,41,0.00,-RMK Clear,SKC,0.00,WUHU216WMR200,2013-01-31 00:50:00,
2013-01-30 16:51:00,64.7,40.2,30.21,NW,315,2.2,3.1,41,0.00,-RMK Clear,SKC,0.00,WUHU216WMR200,2013-01-31 00:51:00,
2013-01-30 16:52:00,64.7,40.2,30.21,South,180,1.1,3.1,41,0.00,-RMK Clear,SKC,0.00,WUHU216WMR200,2013-01-31 00:52:00,
2013-01-30 16:53:00,64.7,40.2,30.21,NW,315,2.2,3.1,41,0.00,-RMK Clear,SKC,0.00,WUHU216WMR200,2013-01-31 00:53:00,
2013-01-30 16:54:00,64.5,40.1,30.21,NW,315,1.6,3.1,41,0.00,-RMK Clear,SKC,0.00,WUHU216WMR200,2013-01-31 00:54:00,
2013-01-30 16:55:00,64.4,40.6,30.21,WSW,247,2.0,3.1,42,0.00,-RMK Clear,SKC,0.00,WUHU216WMR200,2013-01-31 00:55:00,
2013-01-30 16:56:00,64.4,40.0,30.21,WSW,247,1.3,3.1,41,0.00,-RMK Clear,SKC,0.00,WUHU216WMR200,2013-01-31 00:56:00,
2013-01-30 16:57:00,64.4,40.6,30.21,SE,135,1.6,3.1,42,0.00,-RMK Clear,SKC,0.00,WUHU216WMR200,2013-01-31 00:57:00,
2013-01-30 16:58:00,64.2,40.4,30.21,SSW,202,1.6,3.1,42,0.00,-RMK Clear,SKC,0.00,WUHU216WMR200,2013-01-31 00:58:00,
2013-01-30 16:59:00,64.0,39.6,30.21,SW,225,2.0,2.2,41,0.00,-RMK Clear,SKC,0.00,WUHU216WMR200,2013-01-31 00:59:00,
2013-01-30 17:00:00,64.0,40.2,30.21,WSW,247,1.6,2.2,42,0.00,-RMK Clear,SKC,0.00,WUHU216WMR200,2013-01-31 01:00:00,
2013-01-30 17:01:00,63.8,40.1,30.21,SW,225,4.3,4.3,42,0.00,-RMK Clear,SKC,0.00,WUHU216WMR200,2013-01-31 01:01:00,
2013-01-30 17:02:00,63.8,40.1,30.21,NW,315,2.2,4.3,42,0.00,-RMK Clear,SKC,0.00,WUHU216WMR200,2013-01-31 01:02:00,
2013-01-30 17:03:00,63.8,40.1,30.21,WSW,247,2.5,4.3,42,0.00,-RMK Clear,SKC,0.00,WUHU216WMR200,2013-01-31 01:03:00,
2013-01-30 17:04:00,63.6,39.9,30.21,WSW,247,4.3,4.3,42,0.00,-RMK Clear,SKC,0.00,WUHU216WMR200,2013-01-31 01:04:00,
2013-01-30 17:05:00,63.6,39.2,30.21,SE,135,2.9,4.3,41,0.00,-RMK Clear,SKC,0.00,WUHU216WMR200,2013-01-31 01:05:00,
2013-01-30 17:06:00,63.6,39.9,30.21,NW,315,1.6,4.3,42,0.00,-RMK Clear,SKC,0.00,WUHU216WMR200,2013-01-31 01:06:00,
2013-01-30 17:07:00,63.6,39.9,30.21,West,270,1.3,4.3,42,0.00,-RMK Clear,SKC,0.00,WUHU216WMR200,2013-01-31 01:07:00,
2013-01-30 17:08:00,63.6,39.9,30.21,North,0,2.7,4.3,42,0.00,-RMK Clear,SKC,0.00,WUHU216WMR200,2013-01-31 01:08:00,
2013-01-30 17:09:00,63.5,39.8,30.21,SW,225,2.5,4.3,42,0.00,-RMK Clear,SKC,0.00,WUHU216WMR200,2013-01-31 01:09:00,
2013-01-30 17:10:00,63.5,39.8,30.21,West,270,1.6,4.3,42,0.00,-RMK Clear,SKC,0.00,WUHU216WMR200,2013-01-31 01:10:00,
2013-01-30 17:11:00,63.3,39.6,30.21,WSW,247,1.3,4.3,42,0.00,-RMK Clear,SKC,0.00,WUHU216WMR200,2013-01-31 01:11:00,
2013-01-30 17:12:00,63.1,39.4,30.21,WNW,292,2.0,4.3,42,0.00,-RMK Clear,SKC,0.00,WUHU216WMR200,2013-01-31 01:12:00,
2013-01-30 17:13:00,63.1,40.1,30.21,NW,315,0.9,4.3,43,0.00,-RMK Clear,SKC,0.00,WUHU216WMR200,2013-01-31 01:13:00,
2013-01-30 17:14:00,62.9,39.9,30.21,WNW,292,2.9,4.3,43,0.00,-RMK Clear,SKC,0.00,WUHU216WMR200,2013-01-31 01:14:00,
2013-01-30 17:15:00,62.7,39.7,30.21,WSW,247,1.6,2.9,43,0.00,-RMK Clear,SKC,0.00,WUHU216WMR200,2013-01-31 01:15:00,
2013-01-30 17:16:00,62.7,39.7,30.21,WNW,292,2.5,2.9,43,0.00,-RMK Clear,SKC,0.00,WUHU216WMR200,2013-01-31 01:16:00,
2013-01-30 17:17:00,62.6,39.6,30.21,WNW,292,2.9,2.9,43,0.00,-RMK Clear,SKC,0.00,WUHU216WMR200,2013-01-31 01:17:00,
2013-01-30 17:18:00,62.6,39.6,30.21,NW,315,3.6,3.6,43,0.00,-RMK Clear,SKC,0.00,WUHU216WMR200,2013-01-31 01:18:00,
2013-01-30 17:19:00,62.6,39.0,30.21,NNW,337,3.8,3.8,42,0.00,-RMK Clear,SKC,0.00,WUHU216WMR200,2013-01-31 01:19:00,
2013-01-30 17:20:00,62.6,39.0,30.21,West,270,2.5,3.8,42,0.00,-RMK Clear,SKC,0.00,WUHU216WMR200,2013-01-31 01:20:00,
2013-01-30 17:21:00,62.6,39.6,30.21,NW,315,1.6,3.8,43,0.00,-RMK Clear,SKC,0.00,WUHU216WMR200,2013-01-31 01:21:00,
2013-01-30 17:22:00,62.6,39.6,30.21,West,270,3.1,3.8,43,0.00,-RMK Clear,SKC,0.00,WUHU216WMR200,2013-01-31 01:22:00,
2013-01-30 17:23:00,62.6,39.0,30.21,WNW,292,2.9,3.8,42,0.00,-RMK Clear,SKC,0.00,WUHU216WMR200,2013-01-31 01:23:00,
2013-01-30 17:24:00,62.4,39.4,30.21,NW,315,1.3,3.8,43,0.00,-RMK Clear,SKC,0.00,WUHU216WMR200,2013-01-31 01:24:00,
2013-01-30 17:25:00,62.4,38.8,30.21,North,0,2.7,3.8,42,0.00,-RMK Clear,SKC,0.00,WUHU216WMR200,2013-01-31 01:25:00,
2013-01-30 17:26:00,62.2,39.2,30.21,West,270,2.7,3.8,43,0.00,-RMK Clear,SKC,0.00,WUHU216WMR200,2013-01-31 01:26:00,
2013-01-30 17:27:00,62.2,39.2,30.21,WNW,292,2.0,3.8,43,0.00,-RMK Clear,SKC,0.00,WUHU216WMR200,2013-01-31 01:27:00,
2013-01-30 17:28:00,62.0,39.1,30.21,West,270,1.6,3.8,43,0.00,-RMK Clear,SKC,0.00,WUHU216WMR200,2013-01-31 01:28:00,
2013-01-30 17:29:00,62.0,39.1,30.21,WNW,292,1.3,3.8,43,0.00,-RMK Clear,SKC,0.00,WUHU216WMR200,2013-01-31 01:29:00,
2013-01-30 17:30:00,62.0,39.1,30.21,NNE,22,3.8,3.8,43,0.00,-RMK Clear,SKC,0.00,WUHU216WMR200,2013-01-31 01:30:00,
2013-01-30 17:31:00,61.8,38.9,30.21,West,270,2.0,3.8,43,0.00,-RMK Clear,SKC,0.00,WUHU216WMR200,2013-01-31 01:31:00,
2013-01-30 17:32:00,61.8,38.9,30.21,NW,315,1.6,3.8,43,0.00,-RMK Clear,SKC,0.00,WUHU216WMR200,2013-01-31 01:32:00,
2013-01-30 17:33:00,61.8,38.9,30.21,West,270,1.3,3.8,43,0.00,-RMK Clear,SKC,0.00,WUHU216WMR200,2013-01-31 01:33:00,
2013-01-30 17:34:00,61.7,38.8,30.21,WNW,292,2.9,3.8,43,0.00,-RMK Clear,SKC,0.00,WUHU216WMR200,2013-01-31 01:34:00,
2013-01-30 17:35:00,61.7,38.8,30.21,WSW,247,2.9,3.8,43,0.00,-RMK Clear,SKC,0.00,WUHU216WMR200,2013-01-31 01:35:00,
2013-01-30 17:36:00,61.7,38.8,30.21,NW,315,3.1,3.8,43,0.00,-RMK Clear,SKC,0.00,WUHU216WMR200,2013-01-31 01:36:00,
2013-01-30 17:37:00,61.5,38.6,30.21,West,270,2.0,3.8,43,0.00,-RMK Clear,SKC,0.00,WUHU216WMR200,2013-01-31 01:37:00,
2013-01-30 17:38:00,61.5,38.6,30.21,NW,315,4.3,4.3,43,0.00,-RMK Clear,SKC,0.00,WUHU216WMR200,2013-01-31 01:38:00,
2013-01-30 17:39:00,61.5,38.6,30.21,WSW,247,2.7,4.3,43,0.00,-RMK Clear,SKC,0.00,WUHU216WMR200,2013-01-31 01:39:00,
2013-01-30 17:40:00,61.5,38.6,30.21,NW,315,2.5,4.3,43,0.00,-RMK Clear,SKC,0.00,WUHU216WMR200,2013-01-31 01:40:00,
2013-01-30 17:41:00,61.5,38.6,30.21,North,0,4.0,4.3,43,0.00,-RMK Clear,SKC,0.00,WUHU216WMR200,2013-01-31 01:41:00,
2013-01-30 17:42:00,61.5,38.6,30.21,South,180,1.1,4.3,43,0.00,-RMK Clear,SKC,0.00,WUHU216WMR200,2013-01-31 01:42:00,
2013-01-30 17:43:00,61.5,38.6,30.21,NNW,337,3.1,4.3,43,0.00,-RMK Clear,SKC,0.00,WUHU216WMR200,2013-01-31 01:43:00,
2013-01-30 17:44:00,61.3,38.4,30.21,WNW,292,2.5,4.3,43,0.00,-RMK Clear,SKC,0.00,WUHU216WMR200,2013-01-31 01:44:00,
2013-01-30 17:45:00,61.1,38.2,30.21,West,270,5.6,5.6,43,0.00,-RMK Clear,SKC,0.00,WUHU216WMR200,2013-01-31 01:45:00,
2013-01-30 17:46:00,61.1,38.2,30.21,NNW,337,1.6,5.6,43,0.00,-RMK Clear,SKC,0.00,WUHU216WMR200,2013-01-31 01:46:00,
2013-01-30 17:47:00,61.1,38.2,30.21,NW,315,2.7,5.6,43,0.00,-RMK Clear,SKC,0.00,WUHU216WMR200,2013-01-31 01:47:00,
2013-01-30 17:48:00,60.9,38.1,30.24,NNW,337,3.6,5.6,43,0.00,-RMK Clear,SKC,0.00,WUHU216WMR200,2013-01-31 01:48:00,
2013-01-30 17:49:00,60.9,38.1,30.24,NW,315,2.9,5.6,43,0.00,-RMK Clear,SKC,0.00,WUHU216WMR200,2013-01-31 01:49:00,
2013-01-30 17:50:00,60.9,38.1,30.24,North,0,3.4,5.6,43,0.00,-RMK Clear,SKC,0.00,WUHU216WMR200,2013-01-31 01:50:00,
2013-01-30 17:51:00,60.9,38.1,30.24,North,0,3.1,5.6,43,0.00,-RMK Clear,SKC,0.00,WUHU216WMR200,2013-01-31 01:51:00,
2013-01-30 17:52:00,60.9,38.1,30.24,NW,315,3.6,5.6,43,0.00,-RMK Clear,SKC,0.00,WUHU216WMR200,2013-01-31 01:52:00,
2013-01-30 17:53:00,60.9,38.1,30.24,NW,315,2.2,5.6,43,0.00,-RMK Clear,SKC,0.00,WUHU216WMR200,2013-01-31 01:53:00,
2013-01-30 17:54:00,60.9,38.1,30.24,West,270,5.8,5.8,43,0.00,-RMK Clear,SKC,0.00,WUHU216WMR200,2013-01-31 01:54:00,
2013-01-30 17:55:00,60.8,38.0,30.24,West,270,4.3,5.8,43,0.00,-RMK Clear,SKC,0.00,WUHU216WMR200,2013-01-31 01:55:00,
2013-01-30 17:56:00,60.8,38.0,30.24,WSW,247,3.4,5.8,43,0.00,-RMK Clear,SKC,0.00,WUHU216WMR200,2013-01-31 01:56:00,
2013-01-30 17:57:00,60.8,38.0,30.24,NW,315,4.7,5.8,43,0.00,-RMK Clear,SKC,0.00,WUHU216WMR200,2013-01-31 01:57:00,
2013-01-30 17:58:00,60.6,38.4,30.24,West,270,2.9,5.8,44,0.00,-RMK Clear,SKC,0.00,WUHU216WMR200,2013-01-31 01:58:00,
2013-01-30 17:59:00,60.6,38.4,30.24,West,270,2.5,5.8,44,0.00,-RMK Clear,SKC,0.00,WUHU216WMR200,2013-01-31 01:59:00,
2013-01-30 18:00:00,60.4,37.6,30.24,NW,315,2.0,5.8,43,0.00,-RMK Clear,SKC,0.00,WUHU216WMR200,2013-01-31 02:00:00,
2013-01-30 18:01:00,60.4,38.2,30.24,NNW,337,3.1,5.8,44,0.00,-RMK Clear,SKC,0.00,WUHU216WMR200,2013-01-31 02:01:00,
2013-01-30 18:02:00,60.4,38.2,30.21,WNW,292,2.5,5.8,44,0.00,-RMK Clear,SKC,0.00,WUHU216WMR200,2013-01-31 02:02:00,
2013-01-30 18:03:00,60.2,38.0,30.21,NW,315,2.5,5.8,44,0.00,-RMK Clear,SKC,0.00,WUHU216WMR200,2013-01-31 02:03:00,
2013-01-30 18:04:00,60.2,38.0,30.21,West,270,2.2,5.8,44,0.00,-RMK Clear,SKC,0.00,WUHU216WMR200,2013-01-31 02:04:00,
2013-01-30 18:05:00,60.2,38.0,30.21,WSW,247,2.7,4.7,44,0.00,-RMK Clear,SKC,0.00,WUHU216WMR200,2013-01-31 02:05:00,
2013-01-30 18:06:00,60.0,37.8,30.21,NW,315,3.1,4.7,44,0.00,-RMK Clear,SKC,0.00,WUHU216WMR200,2013-01-31 02:06:00,
2013-01-30 18:07:00,60.0,37.8,30.21,WNW,292,3.1,4.7,44,0.00,-RMK Clear,SKC,0.00,WUHU216WMR200,2013-01-31 02:07:00,
2013-01-30 18:08:00,60.0,37.8,30.21,NW,315,3.4,3.4,44,0.00,-RMK Clear,SKC,0.00,WUHU216WMR200,2013-01-31 02:08:00,
2013-01-30 18:09:00,60.0,37.8,30.21,WNW,292,2.9,3.4,44,0.00,-RMK Clear,SKC,0.00,WUHU216WMR200,2013-01-31 02:09:00,
2013-01-30 18:11:00,59.9,38.3,30.21,West,270,2.0,3.4,45,0.00,-RMK Clear,SKC,0.00,WUHU216WMR200,2013-01-31 02:11:00,
2013-01-30 18:12:00,59.9,38.3,30.21,NW,315,3.1,3.4,45,0.00,-RMK Clear,SKC,0.00,WUHU216WMR200,2013-01-31 02:12:00,
2013-01-30 18:13:00,59.7,38.2,30.21,WSW,247,3.6,3.6,45,0.00,-RMK Clear,SKC,0.00,WUHU216WMR200,2013-01-31 02:13:00,
2013-01-30 18:14:00,59.9,38.3,30.21,West,270,3.8,3.8,45,0.00,-RMK Clear,SKC,0.00,WUHU216WMR200,2013-01-31 02:14:00,
2013-01-30 18:15:00,59.9,38.3,30.21,NW,315,2.7,3.8,45,0.00,-RMK Clear,SKC,0.00,WUHU216WMR200,2013-01-31 02:15:00,
2013-01-30 18:16:00,59.7,38.2,30.21,NW,315,8.1,8.1,45,0.00,-RMK Clear,SKC,0.00,WUHU216WMR200,2013-01-31 02:16:00,
2013-01-30 18:17:00,59.7,38.2,30.21,West,270,1.3,8.1,45,0.00,-RMK Clear,SKC,0.00,WUHU216WMR200,2013-01-31 02:17:00,
2013-01-30 18:18:00,59.7,38.2,30.24,West,270,5.6,8.1,45,0.00,-RMK Clear,SKC,0.00,WUHU216WMR200,2013-01-31 02:18:00,
2013-01-30 18:19:00,59.7,38.2,30.24,NW,315,2.9,8.1,45,0.00,-RMK Clear,SKC,0.00,WUHU216WMR200,2013-01-31 02:19:00,
2013-01-30 18:20:00,59.5,38.0,30.24,West,270,2.9,8.1,45,0.00,-RMK Clear,SKC,0.00,WUHU216WMR200,2013-01-31 02:20:00,
2013-01-30 18:21:00,59.5,38.0,30.24,West,270,3.1,8.1,45,0.00,-RMK Clear,SKC,0.00,WUHU216WMR200,2013-01-31 02:21:00,
2013-01-30 18:22:00,59.5,38.0,30.24,North,0,2.7,8.1,45,0.00,-RMK Clear,SKC,0.00,WUHU216WMR200,2013-01-31 02:22:00,
2013-01-30 18:23:00,59.5,38.0,30.24,NW,315,2.5,8.1,45,0.00,-RMK Clear,SKC,0.00,WUHU216WMR200,2013-01-31 02:23:00,
2013-01-30 18:24:00,59.3,37.8,30.24,North,0,1.3,8.1,45,0.00,-RMK Clear,SKC,0.00,WUHU216WMR200,2013-01-31 02:24:00,
2013-01-30 18:25:00,59.3,38.4,30.24,WSW,247,3.6,8.1,46,0.00,-RMK Clear,SKC,0.00,WUHU216WMR200,2013-01-31 02:25:00,
2013-01-30 18:26:00,59.3,37.8,30.24,WNW,292,1.1,8.1,45,0.00,-RMK Clear,SKC,0.00,WUHU216WMR200,2013-01-31 02:26:00,
2013-01-30 18:27:00,59.3,38.4,30.24,WNW,292,2.5,5.6,46,0.00,-RMK Clear,SKC,0.00,WUHU216WMR200,2013-01-31 02:27:00,
2013-01-30 18:28:00,59.3,38.4,30.24,West,270,2.5,5.6,46,0.00,-RMK Clear,SKC,0.00,WUHU216WMR200,2013-01-31 02:28:00,
2013-01-30 18:29:00,59.1,38.2,30.24,WNW,292,3.4,3.6,46,0.00,-RMK Clear,SKC,0.00,WUHU216WMR200,2013-01-31 02:29:00,
2013-01-30 18:30:00,59.1,38.2,30.24,NW,315,5.6,5.6,46,0.00,-RMK Clear,SKC,0.00,WUHU216WMR200,2013-01-31 02:30:00,
2013-01-30 18:31:00,59.1,38.2,30.24,West,270,5.8,5.8,46,0.00,-RMK Clear,SKC,0.00,WUHU216WMR200,2013-01-31 02:31:00,
2013-01-30 18:32:00,59.5,38.6,30.24,South,180,4.3,5.8,46,0.00,-RMK Clear,SKC,0.00,WUHU216WMR200,2013-01-31 02:32:00,
2013-01-30 18:33:00,59.5,38.6,30.24,West,270,4.3,5.8,46,0.00,-RMK Clear,SKC,0.00,WUHU216WMR200,2013-01-31 02:33:00,
2013-01-30 18:34:00,59.7,38.7,30.24,ENE,67,3.1,5.8,46,0.00,-RMK Clear,SKC,0.00,WUHU216WMR200,2013-01-31 02:34:00,
2013-01-30 18:35:00,59.7,38.7,30.24,WNW,292,3.4,5.8,46,0.00,-RMK Clear,SKC,0.00,WUHU216WMR200,2013-01-31 02:35:00,
2013-01-30 18:36:00,59.7,38.7,30.24,WSW,247,4.0,5.8,46,0.00,-RMK Clear,SKC,0.00,WUHU216WMR200,2013-01-31 02:36:00,
2013-01-30 18:37:00,59.7,38.7,30.24,WNW,292,3.4,5.8,46,0.00,-RMK Clear,SKC,0.00,WUHU216WMR200,2013-01-31 02:37:00,
2013-01-30 18:38:00,59.7,38.7,30.24,West,270,3.1,5.8,46,0.00,-RMK Clear,SKC,0.00,WUHU216WMR200,2013-01-31 02:38:00,
2013-01-30 18:39:00,59.7,38.7,30.24,WNW,292,6.0,6.0,46,0.00,-RMK Clear,SKC,0.00,WUHU216WMR200,2013-01-31 02:39:00,
2013-01-30 18:40:00,59.7,38.7,30.24,SSW,202,4.0,6.0,46,0.00,-RMK Clear,SKC,0.00,WUHU216WMR200,2013-01-31 02:40:00,
2013-01-30 18:41:00,59.7,38.7,30.24,NW,315,2.9,6.0,46,0.00,-RMK Clear,SKC,0.00,WUHU216WMR200,2013-01-31 02:41:00,
2013-01-30 18:42:00,59.7,38.7,30.24,ENE,67,3.4,6.0,46,0.00,-RMK Clear,SKC,0.00,WUHU216WMR200,2013-01-31 02:42:00,
2013-01-30 18:43:00,59.7,38.7,30.24,NW,315,2.9,6.0,46,0.00,-RMK Clear,SKC,0.00,WUHU216WMR200,2013-01-31 02:43:00,
2013-01-30 18:44:00,59.7,38.7,30.24,NW,315,1.6,6.0,46,0.00,-RMK Clear,SKC,0.00,WUHU216WMR200,2013-01-31 02:44:00,
2013-01-30 18:45:00,59.5,38.6,30.24,West,270,3.6,6.0,46,0.00,-RMK Clear,SKC,0.00,WUHU216WMR200,2013-01-31 02:45:00,
2013-01-30 18:46:00,59.5,38.6,30.24,West,270,8.1,8.1,46,0.00,-RMK Clear,SKC,0.00,WUHU216WMR200,2013-01-31 02:46:00,
2013-01-30 18:47:00,59.5,38.6,30.24,West,270,5.8,8.1,46,0.00,-RMK Clear,SKC,0.00,WUHU216WMR200,2013-01-31 02:47:00,
2013-01-30 18:48:00,59.3,38.4,30.24,WNW,292,5.4,8.1,46,0.00,-RMK Clear,SKC,0.00,WUHU216WMR200,2013-01-31 02:48:00,
2013-01-30 18:49:00,59.3,38.4,30.24,WSW,247,4.0,8.1,46,0.00,-RMK Clear,SKC,0.00,WUHU216WMR200,2013-01-31 02:49:00,
2013-01-30 18:50:00,59.3,38.4,30.24,North,0,3.1,8.1,46,0.00,-RMK Clear,SKC,0.00,WUHU216WMR200,2013-01-31 02:50:00,
2013-01-30 18:51:00,59.3,38.4,30.24,North,0,3.6,8.1,46,0.00,-RMK Clear,SKC,0.00,WUHU216WMR200,2013-01-31 02:51:00,
2013-01-30 18:52:00,59.1,38.2,30.24,NW,315,4.0,8.1,46,0.00,-RMK Clear,SKC,0.00,WUHU216WMR200,2013-01-31 02:52:00,
2013-01-30 18:53:00,59.1,38.2,30.24,WNW,292,4.0,8.1,46,0.00,-RMK Clear,SKC,0.00,WUHU216WMR200,2013-01-31 02:53:00,
2013-01-30 18:54:00,59.1,38.2,30.24,WNW,292,4.0,8.1,46,0.00,-RMK Clear,SKC,0.00,WUHU216WMR200,2013-01-31 02:54:00,
2013-01-30 18:55:00,59.1,38.2,30.24,West,270,3.4,8.1,46,0.00,-RMK Clear,SKC,0.00,WUHU216WMR200,2013-01-31 02:55:00,
2013-01-30 18:56:00,59.1,38.2,30.24,WNW,292,2.9,8.1,46,0.00,-RMK Clear,SKC,0.00,WUHU216WMR200,2013-01-31 02:56:00,
2013-01-30 18:57:00,59.0,38.1,30.24,South,180,5.8,5.8,46,0.00,-RMK Clear,SKC,0.00,WUHU216WMR200,2013-01-31 02:57:00,
2013-01-30 18:58:00,59.0,38.1,30.24,WNW,292,3.8,5.8,46,0.00,-RMK Clear,SKC,0.00,WUHU216WMR200,2013-01-31 02:58:00,
2013-01-30 18:59:00,59.0,38.1,30.24,West,270,3.4,5.8,46,0.00,-RMK Clear,SKC,0.00,WUHU216WMR200,2013-01-31 02:59:00,
2013-01-30 19:00:00,58.8,37.9,30.24,WNW,292,2.9,5.8,46,0.00,-RMK Clear,SKC,0.00,WUHU216WMR200,2013-01-31 03:00:00,
2013-01-30 19:01:00,58.8,37.9,30.24,NW,315,3.4,5.8,46,0.00,-RMK Clear,SKC,0.00,WUHU216WMR200,2013-01-31 03:01:00,
2013-01-30 19:02:00,58.8,37.9,30.24,NW,315,2.2,5.8,46,0.00,-RMK Clear,SKC,0.00,WUHU216WMR200,2013-01-31 03:02:00,
2013-01-30 19:03:00,58.6,38.3,30.24,WNW,292,3.1,5.8,47,0.00,-RMK Clear,SKC,0.00,WUHU216WMR200,2013-01-31 03:03:00,
2013-01-30 19:04:00,58.4,38.1,30.24,WNW,292,4.0,5.8,47,0.00,-RMK Clear,SKC,0.00,WUHU216WMR200,2013-01-31 03:04:00,
2013-01-30 19:05:00,58.4,38.1,30.24,WSW,247,2.7,5.8,47,0.00,-RMK Clear,SKC,0.00,WUHU216WMR200,2013-01-31 03:05:00,
2013-01-30 19:06:00,58.2,37.9,30.24,WNW,292,6.9,6.9,47,0.00,-RMK Clear,SKC,0.00,WUHU216WMR200,2013-01-31 03:06:00,
2013-01-30 19:07:00,58.4,38.1,30.24,WSW,247,3.4,6.9,47,0.00,-RMK Clear,SKC,0.00,WUHU216WMR200,2013-01-31 03:07:00,
2013-01-30 19:08:00,58.4,38.1,30.24,West,270,4.7,6.9,47,0.00,-RMK Clear,SKC,0.00,WUHU216WMR200,2013-01-31 03:08:00,
2013-01-30 19:09:00,58.4,38.1,30.24,West,270,4.0,6.9,47,0.00,-RMK Clear,SKC,0.00,WUHU216WMR200,2013-01-31 03:09:00,
2013-01-30 19:10:00,58.4,38.1,30.24,WSW,247,2.7,6.9,47,0.00,-RMK Clear,SKC,0.00,WUHU216WMR200,2013-01-31 03:10:00,
2013-01-30 19:11:00,58.2,37.9,30.24,WNW,292,4.7,6.9,47,0.00,-RMK Clear,SKC,0.00,WUHU216WMR200,2013-01-31 03:11:00,
2013-01-30 19:12:00,58.2,37.9,30.24,West,270,2.9,6.9,47,0.00,-RMK Clear,SKC,0.00,WUHU216WMR200,2013-01-31 03:12:00,
2013-01-30 19:13:00,58.2,37.9,30.24,SSW,202,3.4,6.9,47,0.00,-RMK Clear,SKC,0.00,WUHU216WMR200,2013-01-31 03:13:00,
2013-01-30 19:14:00,58.2,37.9,30.24,NNW,337,2.5,6.9,47,0.00,-RMK Clear,SKC,0.00,WUHU216WMR200,2013-01-31 03:14:00,
2013-01-30 19:15:00,58.1,37.9,30.24,WNW,292,3.6,6.9,47,0.00,-RMK Clear,SKC,0.00,WUHU216WMR200,2013-01-31 03:15:00,
2013-01-30 19:16:00,58.1,37.9,30.24,NW,315,3.8,6.9,47,0.00,-RMK Clear,SKC,0.00,WUHU216WMR200,2013-01-31 03:16:00,
2013-01-30 19:17:00,57.9,37.7,30.24,NNW,337,2.7,4.7,47,0.00,-RMK Clear,SKC,0.00,WUHU216WMR200,2013-01-31 03:17:00,
2013-01-30 19:18:00,57.9,37.7,30.24,WNW,292,3.8,4.7,47,0.00,-RMK Clear,SKC,0.00,WUHU216WMR200,2013-01-31 03:18:00,
2013-01-30 19:19:00,57.7,37.5,30.24,NW,315,3.4,4.7,47,0.00,-RMK Clear,SKC,0.00,WUHU216WMR200,2013-01-31 03:19:00,
2013-01-30 19:20:00,57.7,37.5,30.24,West,270,4.3,4.7,47,0.00,-RMK Clear,SKC,0.00,WUHU216WMR200,2013-01-31 03:20:00,
2013-01-30 19:21:00,57.7,37.5,30.24,WNW,292,1.3,4.7,47,0.00,-RMK Clear,SKC,0.00,WUHU216WMR200,2013-01-31 03:21:00,
2013-01-30 19:22:00,57.7,37.5,30.24,WNW,292,3.4,4.3,47,0.00,-RMK Clear,SKC,0.00,WUHU216WMR200,2013-01-31 03:22:00,
2013-01-30 19:23:00,57.5,37.3,30.24,West,270,3.4,4.3,47,0.00,-RMK Clear,SKC,0.00,WUHU216WMR200,2013-01-31 03:23:00,
2013-01-30 19:24:00,57.5,37.9,30.24,NW,315,3.4,4.3,48,0.00,-RMK Clear,SKC,0.00,WUHU216WMR200,2013-01-31 03:24:00,
2013-01-30 19:25:00,57.3,37.1,30.24,North,0,3.4,4.3,47,0.00,-RMK Clear,SKC,0.00,WUHU216WMR200,2013-01-31 03:25:00,
2013-01-30 19:26:00,57.3,37.7,30.24,WNW,292,2.0,4.3,48,0.00,-RMK Clear,SKC,0.00,WUHU216WMR200,2013-01-31 03:26:00,
2013-01-30 19:27:00,57.3,37.7,30.24,WNW,292,5.8,5.8,48,0.00,-RMK Clear,SKC,0.00,WUHU216WMR200,2013-01-31 03:27:00,
2013-01-30 19:28:00,57.3,37.7,30.24,NW,315,4.3,5.8,48,0.00,-RMK Clear,SKC,0.00,WUHU216WMR200,2013-01-31 03:28:00,
2013-01-30 19:29:00,57.3,37.7,30.24,NW,315,3.8,5.8,48,0.00,-RMK Clear,SKC,0.00,WUHU216WMR200,2013-01-31 03:29:00,
2013-01-30 19:30:00,57.2,37.6,30.24,NW,315,4.0,5.8,48,0.00,-RMK Clear,SKC,0.00,WUHU216WMR200,2013-01-31 03:30:00,
2013-01-30 19:31:00,57.2,37.6,30.24,North,0,2.7,5.8,48,0.00,-RMK Clear,SKC,0.00,WUHU216WMR200,2013-01-31 03:31:00,
2013-01-30 19:32:00,57.2,37.6,30.24,West,270,3.6,5.8,48,0.00,-RMK Clear,SKC,0.00,WUHU216WMR200,2013-01-31 03:32:00,
2013-01-30 19:33:00,57.0,37.4,30.24,WNW,292,2.9,5.8,48,0.00,-RMK Clear,SKC,0.00,WUHU216WMR200,2013-01-31 03:33:00,
2013-01-30 19:34:00,57.0,37.4,30.24,WNW,292,2.7,5.8,48,0.00,-RMK Clear,SKC,0.00,WUHU216WMR200,2013-01-31 03:34:00,
2013-01-30 19:35:00,57.0,37.4,30.24,West,270,4.0,5.8,48,0.00,-RMK Clear,SKC,0.00,WUHU216WMR200,2013-01-31 03:35:00,
2013-01-30 19:36:00,56.8,37.2,30.24,WNW,292,5.4,5.8,48,0.00,-RMK Clear,SKC,0.00,WUHU216WMR200,2013-01-31 03:36:00,
2013-01-30 19:37:00,56.8,37.2,30.24,NW,315,2.9,5.8,48,0.00,-RMK Clear,SKC,0.00,WUHU216WMR200,2013-01-31 03:37:00,
2013-01-30 19:38:00,56.8,37.2,30.24,West,270,3.6,5.4,48,0.00,-RMK Clear,SKC,0.00,WUHU216WMR200,2013-01-31 03:38:00,
2013-01-30 19:39:00,56.8,37.2,30.24,NW,315,2.5,5.4,48,0.00,-RMK Clear,SKC,0.00,WUHU216WMR200,2013-01-31 03:39:00,
2013-01-30 19:40:00,56.8,37.2,30.24,NW,315,3.8,5.4,48,0.00,-RMK Clear,SKC,0.00,WUHU216WMR200,2013-01-31 03:40:00,
2013-01-30 19:41:00,56.6,37.6,30.24,NE,45,1.3,5.4,49,0.00,-RMK Clear,SKC,0.00,WUHU216WMR200,2013-01-31 03:41:00,
2013-01-30 19:42:00,56.6,37.6,30.24,WNW,292,3.8,5.4,49,0.00,-RMK Clear,SKC,0.00,WUHU216WMR200,2013-01-31 03:42:00,
2013-01-30 19:43:00,56.4,37.4,30.24,WNW,292,4.3,5.4,49,0.00,-RMK Clear,SKC,0.00,WUHU216WMR200,2013-01-31 03:43:00,
2013-01-30 19:44:00,56.4,37.4,30.24,NE,45,1.3,5.4,49,0.00,-RMK Clear,SKC,0.00,WUHU216WMR200,2013-01-31 03:44:00,
2013-01-30 19:45:00,56.4,37.4,30.24,WSW,247,0.0,5.4,49,0.00,-RMK Clear,SKC,0.00,WUHU216WMR200,2013-01-31 03:45:00,
2013-01-30 19:46:00,56.3,37.3,30.24,WNW,292,1.3,5.4,49,0.00,-RMK Clear,SKC,0.00,WUHU216WMR200,2013-01-31 03:46:00,
2013-01-30 19:47:00,56.3,37.3,30.24,WNW,292,2.2,4.3,49,0.00,-RMK Clear,SKC,0.00,WUHU216WMR200,2013-01-31 03:47:00,
2013-01-30 19:48:00,56.1,37.1,30.24,NW,315,0.0,4.3,49,0.00,-RMK Clear,SKC,0.00,WUHU216WMR200,2013-01-31 03:48:00,
2013-01-30 19:49:00,55.9,36.9,30.24,WSW,247,0.0,4.3,49,0.00,-RMK Clear,SKC,0.00,WUHU216WMR200,2013-01-31 03:49:00,
2013-01-30 19:50:00,55.9,36.9,30.24,SE,135,1.1,4.3,49,0.00,-RMK Clear,SKC,0.00,WUHU216WMR200,2013-01-31 03:50:00,
2013-01-30 19:51:00,55.7,36.7,30.24,East,90,0.0,4.3,49,0.00,-RMK Clear,SKC,0.00,WUHU216WMR200,2013-01-31 03:51:00,
2013-01-30 19:52:00,55.7,36.7,30.24,East,90,0.0,4.3,49,0.00,-RMK Clear,SKC,0.00,WUHU216WMR200,2013-01-31 03:52:00,
2013-01-30 19:53:00,55.5,36.6,30.24,East,90,0.0,4.3,49,0.00,-RMK Clear,SKC,0.00,WUHU216WMR200,2013-01-31 03:53:00,
2013-01-30 19:54:00,55.4,36.5,30.24,East,90,0.0,2.2,49,0.00,-RMK Clear,SKC,0.00,WUHU216WMR200,2013-01-31 03:54:00,
2013-01-30 19:55:00,55.2,36.3,30.24,East,90,0.0,2.2,49,0.00,-RMK Clear,SKC,0.00,WUHU216WMR200,2013-01-31 03:55:00,
2013-01-30 19:56:00,54.8,36.4,30.24,East,90,0.0,2.2,50,0.00,-RMK Clear,SKC,0.00,WUHU216WMR200,2013-01-31 03:56:00,
2013-01-30 19:57:00,54.6,36.3,30.24,East,90,0.0,2.2,50,0.00,-RMK Clear,SKC,0.00,WUHU216WMR200,2013-01-31 03:57:00,
2013-01-30 19:58:00,54.5,36.2,30.24,East,90,0.0,1.1,50,0.00,-RMK Clear,SKC,0.00,WUHU216WMR200,2013-01-31 03:58:00,
2013-01-30 19:59:00,54.5,36.2,30.24,East,90,0.0,1.1,50,0.00,-RMK Clear,SKC,0.00,WUHU216WMR200,2013-01-31 03:59:00,
2013-01-30 20:00:00,54.3,36.0,30.24,East,90,0.0,1.1,50,0.00,-RMK Clear,SKC,0.00,WUHU216WMR200,2013-01-31 04:00:00,
2013-01-30 20:02:00,54.1,35.8,30.24,NNE,22,0.0,0.0,50,0.00,-RMK Clear,SKC,0.00,WUHU216WMR200,2013-01-31 04:02:00,
2013-01-30 20:03:00,54.1,35.8,30.24,NNE,22,0.0,0.0,50,0.00,-RMK Clear,SKC,0.00,WUHU216WMR200,2013-01-31 04:03:00,
2013-01-30 20:08:00,53.7,35.9,30.24,West,270,0.0,0.0,51,0.00,-RMK Clear,SKC,0.00,WUHU216WMR200,2013-01-31 04:08:00,
2013-01-30 20:13:00,53.4,35.7,30.24,West,270,0.0,1.3,51,0.00,-RMK Clear,SKC,0.00,WUHU216WMR200,2013-01-31 04:13:00,
2013-01-30 20:18:00,53.0,35.8,30.24,ENE,67,0.0,1.3,52,0.00,-RMK Clear,SKC,0.00,WUHU216WMR200,2013-01-31 04:18:00,
2013-01-30 20:23:00,53.0,35.8,30.24,North,0,0.0,0.0,52,0.00,-RMK Clear,SKC,0.00,WUHU216WMR200,2013-01-31 04:23:00,
2013-01-30 20:28:00,53.0,36.3,30.24,East,90,0.0,0.9,53,0.00,-RMK Clear,SKC,0.00,WUHU216WMR200,2013-01-31 04:28:00,
2013-01-30 20:33:00,52.7,36.1,30.27,NNW,337,0.0,0.9,53,0.00,-RMK Clear,SKC,0.00,WUHU216WMR200,2013-01-31 04:33:00,
2013-01-30 20:38:00,52.5,35.9,30.27,North,0,0.0,0.0,53,0.00,-RMK Clear,SKC,0.00,WUHU216WMR200,2013-01-31 04:38:00,
2013-01-30 20:43:00,52.3,35.7,30.27,North,0,0.0,0.0,53,0.00,-RMK Clear,SKC,0.00,WUHU216WMR200,2013-01-31 04:43:00,
2013-01-30 20:48:00,52.1,36.0,30.27,NW,315,0.0,1.6,54,0.00,-RMK Clear,SKC,0.00,WUHU216WMR200,2013-01-31 04:48:00,
2013-01-30 20:53:00,52.1,36.0,30.27,NW,315,0.0,1.6,54,0.00,-RMK Clear,SKC,0.00,WUHU216WMR200,2013-01-31 04:53:00,
2013-01-30 20:58:00,51.9,35.8,30.27,NW,315,0.0,0.0,54,0.00,-RMK Clear,SKC,0.00,WUHU216WMR200,2013-01-31 04:58:00,
2013-01-30 21:00:00,51.8,35.7,30.27,NW,315,0.0,0.0,54,0.00,-RMK Clear,SKC,0.00,WUHU216WMR200,2013-01-31 05:00:00,
2013-01-30 21:06:00,51.4,35.8,30.27,North,0,0.0,0.0,55,0.00,-RMK Clear,SKC,0.00,WUHU216WMR200,2013-01-31 05:06:00,
2013-01-30 21:11:00,51.2,36.1,30.27,WNW,292,0.0,0.0,56,0.00,-RMK Clear,SKC,0.00,WUHU216WMR200,2013-01-31 05:11:00,
2013-01-30 21:16:00,51.2,36.1,30.27,WNW,292,0.0,0.0,56,0.00,-RMK Clear,SKC,0.00,WUHU216WMR200,2013-01-31 05:16:00,
2013-01-30 21:21:00,51.2,36.1,30.27,NW,315,0.0,0.0,56,0.00,-RMK Clear,SKC,0.00,WUHU216WMR200,2013-01-31 05:21:00,
2013-01-30 21:26:00,51.0,35.9,30.27,WNW,292,0.0,0.0,56,0.00,-RMK Clear,SKC,0.00,WUHU216WMR200,2013-01-31 05:26:00,
2013-01-30 21:31:00,50.9,36.3,30.27,NW,315,0.0,0.0,57,0.00,-RMK Clear,SKC,0.00,WUHU216WMR200,2013-01-31 05:31:00,
2013-01-30 21:36:00,50.9,36.3,30.27,NW,315,0.0,0.0,57,0.00,-RMK Clear,SKC,0.00,WUHU216WMR200,2013-01-31 05:36:00,
2013-01-30 21:41:00,50.9,36.2,30.27,East,90,0.0,0.0,57,0.00,-RMK Clear,SKC,0.00,WUHU216WMR200,2013-01-31 05:41:00,
2013-01-30 21:46:00,50.5,35.9,30.27,NE,45,0.0,0.0,57,0.00,-RMK Clear,SKC,0.00,WUHU216WMR200,2013-01-31 05:46:00,
2013-01-30 21:51:00,50.5,35.9,30.27,ENE,67,0.0,0.0,57,0.00,-RMK Clear,SKC,0.00,WUHU216WMR200,2013-01-31 05:51:00,
2013-01-30 21:56:00,50.3,36.1,30.27,ENE,67,0.0,0.0,58,0.00,-RMK Clear,SKC,0.00,WUHU216WMR200,2013-01-31 05:56:00,
2013-01-30 22:01:00,50.1,35.9,30.27,ENE,67,0.0,0.0,58,0.00,-RMK Clear,SKC,0.00,WUHU216WMR200,2013-01-31 06:01:00,
2013-01-30 22:06:00,50.0,36.3,30.27,North,0,0.0,0.0,59,0.00,-RMK Clear,SKC,0.00,WUHU216WMR200,2013-01-31 06:06:00,
2013-01-30 22:11:00,50.1,36.2,30.27,North,0,0.0,0.0,59,0.00,-RMK Clear,SKC,0.00,WUHU216WMR200,2013-01-31 06:11:00,
2013-01-30 22:16:00,49.9,36.0,30.27,North,0,0.0,0.0,59,0.00,-RMK Clear,SKC,0.00,WUHU216WMR200,2013-01-31 06:16:00,
2013-01-30 22:21:00,49.9,36.0,30.24,North,0,0.0,0.0,59,0.00,-RMK Clear,SKC,0.00,WUHU216WMR200,2013-01-31 06:21:00,
2013-01-30 22:26:00,49.7,35.8,30.24,NNW,337,0.0,0.0,59,0.00,-RMK Clear,SKC,0.00,WUHU216WMR200,2013-01-31 06:26:00,
2013-01-30 22:31:00,49.7,35.8,30.24,NNW,337,0.0,0.0,59,0.00,-RMK Clear,SKC,0.00,WUHU216WMR200,2013-01-31 06:31:00,
2013-01-30 22:36:00,49.7,36.3,30.24,NNW,337,0.0,0.0,60,0.00,-RMK Clear,SKC,0.00,WUHU216WMR200,2013-01-31 06:36:00,
2013-01-30 22:41:00,49.7,36.2,30.24,North,0,0.0,0.0,60,0.00,-RMK Clear,SKC,0.00,WUHU216WMR200,2013-01-31 06:41:00,
2013-01-30 22:46:00,49.5,36.5,30.24,North,0,0.0,0.0,60,0.00,-RMK Clear,SKC,0.00,WUHU216WMR200,2013-01-31 06:46:00,
2013-01-30 22:51:00,49.3,36.3,30.27,NNE,22,0.0,0.0,60,0.00,-RMK Clear,SKC,0.00,WUHU216WMR200,2013-01-31 06:51:00,
2013-01-30 22:56:00,49.7,36.2,30.27,NE,45,0.0,1.3,59,0.00,-RMK Clear,SKC,0.00,WUHU216WMR200,2013-01-31 06:56:00,
2013-01-30 23:01:00,50.0,36.4,30.27,NNW,337,0.0,1.3,59,0.00,-RMK Clear,SKC,0.00,WUHU216WMR200,2013-01-31 07:01:00,
2013-01-30 23:06:00,50.3,36.6,30.27,NNE,22,1.6,1.6,59,0.00,-RMK Clear,SKC,0.00,WUHU216WMR200,2013-01-31 07:06:00,
2013-01-30 23:11:00,50.3,36.6,30.27,NE,45,0.0,2.0,59,0.00,-RMK Clear,SKC,0.00,WUHU216WMR200,2013-01-31 07:11:00,
2013-01-30 23:16:00,50.7,37.0,30.27,NE,45,0.0,2.0,59,0.00,-RMK Clear,SKC,0.00,WUHU216WMR200,2013-01-31 07:16:00,
2013-01-30 23:21:00,50.5,37.2,30.27,NE,45,0.0,0.0,60,0.00,-RMK Clear,SKC,0.00,WUHU216WMR200,2013-01-31 07:21:00,
2013-01-30 23:26:00,50.5,36.8,30.27,NE,45,0.0,0.0,59,0.00,-RMK Clear,SKC,0.00,WUHU216WMR200,2013-01-31 07:26:00,
2013-01-30 23:31:00,50.9,37.1,30.27,East,90,0.0,0.0,59,0.00,-RMK Clear,SKC,0.00,WUHU216WMR200,2013-01-31 07:31:00,
2013-01-30 23:36:00,51.2,37.4,30.24,NE,45,0.0,2.0,59,0.00,-RMK Clear,SKC,0.00,WUHU216WMR200,2013-01-31 07:36:00,
2013-01-30 23:41:00,51.5,37.6,30.24,NE,45,0.0,2.0,59,0.00,-RMK Clear,SKC,0.00,WUHU216WMR200,2013-01-31 07:41:00,
2013-01-30 23:46:00,51.7,37.7,30.24,NNE,22,0.9,2.0,59,0.00,-RMK Clear,SKC,0.00,WUHU216WMR200,2013-01-31 07:46:00,
2013-01-30 23:51:00,51.2,37.7,30.30,ESE,112,0.9,2.7,60,0.00,-RMK Clear,SKC,0.00,WUHU216WMR200,2013-01-31 07:51:00,
2013-01-30 23:56:00,51.3,37.8,30.30,East,90,0.0,2.7,60,0.00,-RMK Clear,SKC,0.00,WUHU216WMR200,2013-01-31 07:56:00,